<?xml version="1.0" encoding="UTF-8" standalone="no" ?>
<gpx xmlns="http://www.topografix.com/GPX/1/1" xmlns:xsi="http://www.w3.org/2001/XMLSchema-instance" xsi:schemaLocation="http://www.topografix.com/GPX/1/1 http://www.topografix.com/GPX/1/1/gpx.xsd" version="1.1" creator="VisuGPX - https://www.visugpx.com">
  <metadata>
    <name>Boucle sous les aiguilles d'Arves </name>
    <desc><![CDATA[Trace AlpineQuest 10/09/2022 09:54:03]]></desc>
  </metadata>
  <trk>
    <name><![CDATA[Boucle sous les aiguilles d'Arves _1]]></name>
    <trkseg>
      <trkpt lat="45.18544" lon="6.31818">
        <ele>1592.583</ele>
        <time>2022-09-10T07:54:03Z</time>
      </trkpt>
      <trkpt lat="45.18544" lon="6.31818">
        <ele>1591.369</ele>
        <time>2022-09-10T07:54:13Z</time>
      </trkpt>
      <trkpt lat="45.18544" lon="6.31818">
        <ele>1591.162</ele>
        <time>2022-09-10T07:54:23Z</time>
      </trkpt>
      <trkpt lat="45.18544" lon="6.31818">
        <ele>1591.077</ele>
        <time>2022-09-10T07:54:32Z</time>
      </trkpt>
      <trkpt lat="45.18544" lon="6.31818">
        <ele>1591.091</ele>
        <time>2022-09-10T07:54:41Z</time>
      </trkpt>
      <trkpt lat="45.18544" lon="6.31818">
        <ele>1591.096</ele>
        <time>2022-09-10T07:54:51Z</time>
      </trkpt>
      <trkpt lat="45.18545" lon="6.31816">
        <ele>1591.186</ele>
        <time>2022-09-10T07:55:01Z</time>
      </trkpt>
      <trkpt lat="45.18545" lon="6.31816">
        <ele>1589.616</ele>
        <time>2022-09-10T07:55:11Z</time>
      </trkpt>
      <trkpt lat="45.18545" lon="6.31816">
        <ele>1589.494</ele>
        <time>2022-09-10T07:55:21Z</time>
      </trkpt>
      <trkpt lat="45.18544" lon="6.31818">
        <ele>1588.874</ele>
        <time>2022-09-10T07:55:30Z</time>
      </trkpt>
      <trkpt lat="45.18544" lon="6.31818">
        <ele>1588.968</ele>
        <time>2022-09-10T07:55:40Z</time>
      </trkpt>
      <trkpt lat="45.18544" lon="6.31819">
        <ele>1589.485</ele>
        <time>2022-09-10T07:55:50Z</time>
      </trkpt>
      <trkpt lat="45.18544" lon="6.31819">
        <ele>1589.791</ele>
        <time>2022-09-10T07:56:00Z</time>
      </trkpt>
      <trkpt lat="45.18544" lon="6.31819">
        <ele>1591.177</ele>
        <time>2022-09-10T07:56:10Z</time>
      </trkpt>
      <trkpt lat="45.18543" lon="6.31819">
        <ele>1590.49</ele>
        <time>2022-09-10T07:56:20Z</time>
      </trkpt>
      <trkpt lat="45.18543" lon="6.31819">
        <ele>1590.438</ele>
        <time>2022-09-10T07:56:29Z</time>
      </trkpt>
      <trkpt lat="45.18543" lon="6.31819">
        <ele>1591.582</ele>
        <time>2022-09-10T07:56:38Z</time>
      </trkpt>
      <trkpt lat="45.18543" lon="6.31819">
        <ele>1591.235</ele>
        <time>2022-09-10T07:56:48Z</time>
      </trkpt>
      <trkpt lat="45.18544" lon="6.31819">
        <ele>1591.585</ele>
        <time>2022-09-10T07:56:58Z</time>
      </trkpt>
      <trkpt lat="45.18544" lon="6.31819">
        <ele>1591.584</ele>
        <time>2022-09-10T07:57:08Z</time>
      </trkpt>
      <trkpt lat="45.18544" lon="6.31817">
        <ele>1592.608</ele>
        <time>2022-09-10T07:57:17Z</time>
      </trkpt>
      <trkpt lat="45.18545" lon="6.31815">
        <ele>1593.511</ele>
        <time>2022-09-10T07:57:27Z</time>
      </trkpt>
      <trkpt lat="45.18545" lon="6.31815">
        <ele>1593.64</ele>
        <time>2022-09-10T07:57:36Z</time>
      </trkpt>
      <trkpt lat="45.18545" lon="6.31815">
        <ele>1593.697</ele>
        <time>2022-09-10T07:57:46Z</time>
      </trkpt>
      <trkpt lat="45.18545" lon="6.31815">
        <ele>1593.705</ele>
        <time>2022-09-10T07:57:56Z</time>
      </trkpt>
      <trkpt lat="45.18545" lon="6.31815">
        <ele>1593.708</ele>
        <time>2022-09-10T07:58:06Z</time>
      </trkpt>
      <trkpt lat="45.18545" lon="6.31817">
        <ele>1592.518</ele>
        <time>2022-09-10T07:58:16Z</time>
      </trkpt>
      <trkpt lat="45.18545" lon="6.31818">
        <ele>1591.71</ele>
        <time>2022-09-10T07:58:25Z</time>
      </trkpt>
      <trkpt lat="45.18545" lon="6.31818">
        <ele>1590.733</ele>
        <time>2022-09-10T07:58:35Z</time>
      </trkpt>
      <trkpt lat="45.18545" lon="6.31818">
        <ele>1590.86</ele>
        <time>2022-09-10T07:58:44Z</time>
      </trkpt>
      <trkpt lat="45.18545" lon="6.31818">
        <ele>1591.248</ele>
        <time>2022-09-10T07:58:54Z</time>
      </trkpt>
      <trkpt lat="45.18545" lon="6.3182">
        <ele>1591.409</ele>
        <time>2022-09-10T07:59:04Z</time>
      </trkpt>
      <trkpt lat="45.18545" lon="6.3182">
        <ele>1591.495</ele>
        <time>2022-09-10T07:59:13Z</time>
      </trkpt>
      <trkpt lat="45.18545" lon="6.3182">
        <ele>1591.516</ele>
        <time>2022-09-10T07:59:23Z</time>
      </trkpt>
      <trkpt lat="45.18545" lon="6.31818">
        <ele>1591.289</ele>
        <time>2022-09-10T07:59:33Z</time>
      </trkpt>
      <trkpt lat="45.18545" lon="6.31818">
        <ele>1591.495</ele>
        <time>2022-09-10T07:59:42Z</time>
      </trkpt>
      <trkpt lat="45.18545" lon="6.31819">
        <ele>1591.466</ele>
        <time>2022-09-10T07:59:51Z</time>
      </trkpt>
      <trkpt lat="45.18544" lon="6.31821">
        <ele>1590.768</ele>
        <time>2022-09-10T08:00:01Z</time>
      </trkpt>
      <trkpt lat="45.18543" lon="6.31821">
        <ele>1590.571</ele>
        <time>2022-09-10T08:00:10Z</time>
      </trkpt>
      <trkpt lat="45.18543" lon="6.31822">
        <ele>1590.755</ele>
        <time>2022-09-10T08:00:19Z</time>
      </trkpt>
      <trkpt lat="45.18543" lon="6.31822">
        <ele>1590.922</ele>
        <time>2022-09-10T08:00:28Z</time>
      </trkpt>
      <trkpt lat="45.18543" lon="6.31822">
        <ele>1590.926</ele>
        <time>2022-09-10T08:00:38Z</time>
      </trkpt>
      <trkpt lat="45.18543" lon="6.31822">
        <ele>1590.916</ele>
        <time>2022-09-10T08:00:48Z</time>
      </trkpt>
      <trkpt lat="45.18543" lon="6.31822">
        <ele>1590.911</ele>
        <time>2022-09-10T08:00:59Z</time>
      </trkpt>
      <trkpt lat="45.18543" lon="6.31822">
        <ele>1590.912</ele>
        <time>2022-09-10T08:01:08Z</time>
      </trkpt>
      <trkpt lat="45.18543" lon="6.31822">
        <ele>1590.919</ele>
        <time>2022-09-10T08:01:17Z</time>
      </trkpt>
      <trkpt lat="45.18543" lon="6.31822">
        <ele>1590.929</ele>
        <time>2022-09-10T08:01:27Z</time>
      </trkpt>
      <trkpt lat="45.18543" lon="6.31822">
        <ele>1590.929</ele>
        <time>2022-09-10T08:01:37Z</time>
      </trkpt>
      <trkpt lat="45.18543" lon="6.31822">
        <ele>1590.931</ele>
        <time>2022-09-10T08:01:46Z</time>
      </trkpt>
      <trkpt lat="45.18543" lon="6.31822">
        <ele>1590.947</ele>
        <time>2022-09-10T08:01:56Z</time>
      </trkpt>
      <trkpt lat="45.1854" lon="6.31821">
        <ele>1591.035</ele>
        <time>2022-09-10T08:02:05Z</time>
      </trkpt>
      <trkpt lat="45.1852" lon="6.31801">
        <ele>1590.268</ele>
        <time>2022-09-10T08:02:15Z</time>
      </trkpt>
      <trkpt lat="45.185" lon="6.31769">
        <ele>1592.333</ele>
        <time>2022-09-10T08:02:24Z</time>
      </trkpt>
      <trkpt lat="45.18486" lon="6.31755">
        <ele>1594.962</ele>
        <time>2022-09-10T08:02:33Z</time>
      </trkpt>
      <trkpt lat="45.18469" lon="6.31755">
        <ele>1596.267</ele>
        <time>2022-09-10T08:02:42Z</time>
      </trkpt>
      <trkpt lat="45.18452" lon="6.31759">
        <ele>1596.996</ele>
        <time>2022-09-10T08:02:51Z</time>
      </trkpt>
      <trkpt lat="45.18432" lon="6.3176">
        <ele>1598.121</ele>
        <time>2022-09-10T08:03:01Z</time>
      </trkpt>
      <trkpt lat="45.18417" lon="6.31755">
        <ele>1600.782</ele>
        <time>2022-09-10T08:03:10Z</time>
      </trkpt>
      <trkpt lat="45.18404" lon="6.31746">
        <ele>1603.13</ele>
        <time>2022-09-10T08:03:19Z</time>
      </trkpt>
      <trkpt lat="45.18391" lon="6.31735">
        <ele>1605.027</ele>
        <time>2022-09-10T08:03:29Z</time>
      </trkpt>
      <trkpt lat="45.1838" lon="6.31727">
        <ele>1607.732</ele>
        <time>2022-09-10T08:03:38Z</time>
      </trkpt>
      <trkpt lat="45.1837" lon="6.3172">
        <ele>1609.389</ele>
        <time>2022-09-10T08:03:47Z</time>
      </trkpt>
      <trkpt lat="45.18356" lon="6.31714">
        <ele>1611.143</ele>
        <time>2022-09-10T08:03:57Z</time>
      </trkpt>
      <trkpt lat="45.18343" lon="6.3171">
        <ele>1612.437</ele>
        <time>2022-09-10T08:04:07Z</time>
      </trkpt>
      <trkpt lat="45.1833" lon="6.31709">
        <ele>1613.57</ele>
        <time>2022-09-10T08:04:16Z</time>
      </trkpt>
      <trkpt lat="45.18317" lon="6.31709">
        <ele>1613.976</ele>
        <time>2022-09-10T08:04:25Z</time>
      </trkpt>
      <trkpt lat="45.18305" lon="6.31702">
        <ele>1615.977</ele>
        <time>2022-09-10T08:04:35Z</time>
      </trkpt>
      <trkpt lat="45.18294" lon="6.31694">
        <ele>1618.433</ele>
        <time>2022-09-10T08:04:44Z</time>
      </trkpt>
      <trkpt lat="45.18282" lon="6.31683">
        <ele>1620.416</ele>
        <time>2022-09-10T08:04:54Z</time>
      </trkpt>
      <trkpt lat="45.1827" lon="6.31673">
        <ele>1622.494</ele>
        <time>2022-09-10T08:05:04Z</time>
      </trkpt>
      <trkpt lat="45.18256" lon="6.31669">
        <ele>1624.114</ele>
        <time>2022-09-10T08:05:14Z</time>
      </trkpt>
      <trkpt lat="45.18242" lon="6.31671">
        <ele>1625.387</ele>
        <time>2022-09-10T08:05:23Z</time>
      </trkpt>
      <trkpt lat="45.18226" lon="6.31674">
        <ele>1626.657</ele>
        <time>2022-09-10T08:05:33Z</time>
      </trkpt>
      <trkpt lat="45.18217" lon="6.31683">
        <ele>1626.981</ele>
        <time>2022-09-10T08:05:42Z</time>
      </trkpt>
      <trkpt lat="45.18222" lon="6.31695">
        <ele>1628.133</ele>
        <time>2022-09-10T08:05:51Z</time>
      </trkpt>
      <trkpt lat="45.18236" lon="6.317">
        <ele>1630.792</ele>
        <time>2022-09-10T08:06:01Z</time>
      </trkpt>
      <trkpt lat="45.18248" lon="6.31707">
        <ele>1632.332</ele>
        <time>2022-09-10T08:06:10Z</time>
      </trkpt>
      <trkpt lat="45.18258" lon="6.3172">
        <ele>1633.888</ele>
        <time>2022-09-10T08:06:19Z</time>
      </trkpt>
      <trkpt lat="45.18267" lon="6.31735">
        <ele>1635.396</ele>
        <time>2022-09-10T08:06:29Z</time>
      </trkpt>
      <trkpt lat="45.18274" lon="6.3175">
        <ele>1636.274</ele>
        <time>2022-09-10T08:06:38Z</time>
      </trkpt>
      <trkpt lat="45.1828" lon="6.31769">
        <ele>1636.912</ele>
        <time>2022-09-10T08:06:48Z</time>
      </trkpt>
      <trkpt lat="45.18284" lon="6.31786">
        <ele>1638.903</ele>
        <time>2022-09-10T08:06:57Z</time>
      </trkpt>
      <trkpt lat="45.18289" lon="6.31805">
        <ele>1640.036</ele>
        <time>2022-09-10T08:07:06Z</time>
      </trkpt>
      <trkpt lat="45.18297" lon="6.31822">
        <ele>1640.671</ele>
        <time>2022-09-10T08:07:15Z</time>
      </trkpt>
      <trkpt lat="45.18305" lon="6.31838">
        <ele>1641.991</ele>
        <time>2022-09-10T08:07:25Z</time>
      </trkpt>
      <trkpt lat="45.18315" lon="6.31853">
        <ele>1643.187</ele>
        <time>2022-09-10T08:07:35Z</time>
      </trkpt>
      <trkpt lat="45.18325" lon="6.31867">
        <ele>1644.486</ele>
        <time>2022-09-10T08:07:44Z</time>
      </trkpt>
      <trkpt lat="45.18336" lon="6.31881">
        <ele>1645.935</ele>
        <time>2022-09-10T08:07:54Z</time>
      </trkpt>
      <trkpt lat="45.18346" lon="6.31896">
        <ele>1646.368</ele>
        <time>2022-09-10T08:08:04Z</time>
      </trkpt>
      <trkpt lat="45.18354" lon="6.31911">
        <ele>1648.013</ele>
        <time>2022-09-10T08:08:13Z</time>
      </trkpt>
      <trkpt lat="45.18363" lon="6.31928">
        <ele>1649.139</ele>
        <time>2022-09-10T08:08:22Z</time>
      </trkpt>
      <trkpt lat="45.18371" lon="6.31945">
        <ele>1650.525</ele>
        <time>2022-09-10T08:08:32Z</time>
      </trkpt>
      <trkpt lat="45.1838" lon="6.31961">
        <ele>1651.464</ele>
        <time>2022-09-10T08:08:42Z</time>
      </trkpt>
      <trkpt lat="45.18389" lon="6.31978">
        <ele>1652.698</ele>
        <time>2022-09-10T08:08:52Z</time>
      </trkpt>
      <trkpt lat="45.18392" lon="6.31996">
        <ele>1654.568</ele>
        <time>2022-09-10T08:09:02Z</time>
      </trkpt>
      <trkpt lat="45.18381" lon="6.32008">
        <ele>1656.592</ele>
        <time>2022-09-10T08:09:12Z</time>
      </trkpt>
      <trkpt lat="45.18368" lon="6.32013">
        <ele>1657.745</ele>
        <time>2022-09-10T08:09:22Z</time>
      </trkpt>
      <trkpt lat="45.18354" lon="6.32018">
        <ele>1659.95</ele>
        <time>2022-09-10T08:09:32Z</time>
      </trkpt>
      <trkpt lat="45.18341" lon="6.32022">
        <ele>1661.328</ele>
        <time>2022-09-10T08:09:41Z</time>
      </trkpt>
      <trkpt lat="45.18326" lon="6.32026">
        <ele>1663.336</ele>
        <time>2022-09-10T08:09:51Z</time>
      </trkpt>
      <trkpt lat="45.18315" lon="6.32033">
        <ele>1664.486</ele>
        <time>2022-09-10T08:10:00Z</time>
      </trkpt>
      <trkpt lat="45.18304" lon="6.32043">
        <ele>1666.179</ele>
        <time>2022-09-10T08:10:09Z</time>
      </trkpt>
      <trkpt lat="45.18293" lon="6.32054">
        <ele>1667.33</ele>
        <time>2022-09-10T08:10:19Z</time>
      </trkpt>
      <trkpt lat="45.18282" lon="6.32067">
        <ele>1668.66</ele>
        <time>2022-09-10T08:10:29Z</time>
      </trkpt>
      <trkpt lat="45.18277" lon="6.32083">
        <ele>1669.914</ele>
        <time>2022-09-10T08:10:38Z</time>
      </trkpt>
      <trkpt lat="45.18282" lon="6.32102">
        <ele>1672.677</ele>
        <time>2022-09-10T08:10:48Z</time>
      </trkpt>
      <trkpt lat="45.18293" lon="6.32115">
        <ele>1674.699</ele>
        <time>2022-09-10T08:10:58Z</time>
      </trkpt>
      <trkpt lat="45.18305" lon="6.32122">
        <ele>1676.205</ele>
        <time>2022-09-10T08:11:07Z</time>
      </trkpt>
      <trkpt lat="45.18316" lon="6.32136">
        <ele>1678.215</ele>
        <time>2022-09-10T08:11:17Z</time>
      </trkpt>
      <trkpt lat="45.18325" lon="6.3215">
        <ele>1679.624</ele>
        <time>2022-09-10T08:11:26Z</time>
      </trkpt>
      <trkpt lat="45.18334" lon="6.32165">
        <ele>1680.822</ele>
        <time>2022-09-10T08:11:36Z</time>
      </trkpt>
      <trkpt lat="45.18343" lon="6.3218">
        <ele>1681.893</ele>
        <time>2022-09-10T08:11:46Z</time>
      </trkpt>
      <trkpt lat="45.18352" lon="6.32198">
        <ele>1684.511</ele>
        <time>2022-09-10T08:11:56Z</time>
      </trkpt>
      <trkpt lat="45.1836" lon="6.32212">
        <ele>1685.646</ele>
        <time>2022-09-10T08:12:06Z</time>
      </trkpt>
      <trkpt lat="45.18367" lon="6.32218">
        <ele>1686.783</ele>
        <time>2022-09-10T08:12:15Z</time>
      </trkpt>
      <trkpt lat="45.18377" lon="6.32225">
        <ele>1687.719</ele>
        <time>2022-09-10T08:12:24Z</time>
      </trkpt>
      <trkpt lat="45.18391" lon="6.32227">
        <ele>1689.619</ele>
        <time>2022-09-10T08:12:34Z</time>
      </trkpt>
      <trkpt lat="45.18404" lon="6.32226">
        <ele>1691.209</ele>
        <time>2022-09-10T08:12:44Z</time>
      </trkpt>
      <trkpt lat="45.18418" lon="6.3223">
        <ele>1692.748</ele>
        <time>2022-09-10T08:12:54Z</time>
      </trkpt>
      <trkpt lat="45.18428" lon="6.32237">
        <ele>1694.131</ele>
        <time>2022-09-10T08:13:03Z</time>
      </trkpt>
      <trkpt lat="45.18438" lon="6.32249">
        <ele>1695.422</ele>
        <time>2022-09-10T08:13:13Z</time>
      </trkpt>
      <trkpt lat="45.18447" lon="6.32261">
        <ele>1696.681</ele>
        <time>2022-09-10T08:13:22Z</time>
      </trkpt>
      <trkpt lat="45.18455" lon="6.32271">
        <ele>1698.269</ele>
        <time>2022-09-10T08:13:31Z</time>
      </trkpt>
      <trkpt lat="45.18464" lon="6.32279">
        <ele>1700.975</ele>
        <time>2022-09-10T08:13:41Z</time>
      </trkpt>
      <trkpt lat="45.18477" lon="6.32279">
        <ele>1702.545</ele>
        <time>2022-09-10T08:13:51Z</time>
      </trkpt>
      <trkpt lat="45.18489" lon="6.32275">
        <ele>1704.7</ele>
        <time>2022-09-10T08:14:00Z</time>
      </trkpt>
      <trkpt lat="45.18501" lon="6.32269">
        <ele>1705.822</ele>
        <time>2022-09-10T08:14:10Z</time>
      </trkpt>
      <trkpt lat="45.1851" lon="6.3226">
        <ele>1705.641</ele>
        <time>2022-09-10T08:14:19Z</time>
      </trkpt>
      <trkpt lat="45.18519" lon="6.32251">
        <ele>1706.3</ele>
        <time>2022-09-10T08:14:28Z</time>
      </trkpt>
      <trkpt lat="45.18531" lon="6.32243">
        <ele>1707.99</ele>
        <time>2022-09-10T08:14:38Z</time>
      </trkpt>
      <trkpt lat="45.18544" lon="6.32248">
        <ele>1709.892</ele>
        <time>2022-09-10T08:14:48Z</time>
      </trkpt>
      <trkpt lat="45.18555" lon="6.32258">
        <ele>1711.879</ele>
        <time>2022-09-10T08:14:57Z</time>
      </trkpt>
      <trkpt lat="45.18565" lon="6.3227">
        <ele>1713.64</ele>
        <time>2022-09-10T08:15:07Z</time>
      </trkpt>
      <trkpt lat="45.18573" lon="6.32282">
        <ele>1714.749</ele>
        <time>2022-09-10T08:15:16Z</time>
      </trkpt>
      <trkpt lat="45.18584" lon="6.32292">
        <ele>1715.932</ele>
        <time>2022-09-10T08:15:25Z</time>
      </trkpt>
      <trkpt lat="45.18595" lon="6.32303">
        <ele>1717.989</ele>
        <time>2022-09-10T08:15:35Z</time>
      </trkpt>
      <trkpt lat="45.18606" lon="6.32311">
        <ele>1719.332</ele>
        <time>2022-09-10T08:15:44Z</time>
      </trkpt>
      <trkpt lat="45.18616" lon="6.32323">
        <ele>1720.535</ele>
        <time>2022-09-10T08:15:54Z</time>
      </trkpt>
      <trkpt lat="45.1862" lon="6.32342">
        <ele>1722.385</ele>
        <time>2022-09-10T08:16:04Z</time>
      </trkpt>
      <trkpt lat="45.1861" lon="6.32351">
        <ele>1722.18</ele>
        <time>2022-09-10T08:16:14Z</time>
      </trkpt>
      <trkpt lat="45.18599" lon="6.32357">
        <ele>1723.756</ele>
        <time>2022-09-10T08:16:23Z</time>
      </trkpt>
      <trkpt lat="45.18587" lon="6.32367">
        <ele>1724.415</ele>
        <time>2022-09-10T08:16:33Z</time>
      </trkpt>
      <trkpt lat="45.18575" lon="6.3238">
        <ele>1726.475</ele>
        <time>2022-09-10T08:16:43Z</time>
      </trkpt>
      <trkpt lat="45.18566" lon="6.324">
        <ele>1728.6</ele>
        <time>2022-09-10T08:16:53Z</time>
      </trkpt>
      <trkpt lat="45.18559" lon="6.32418">
        <ele>1729.349</ele>
        <time>2022-09-10T08:17:02Z</time>
      </trkpt>
      <trkpt lat="45.18552" lon="6.32437">
        <ele>1731.744</ele>
        <time>2022-09-10T08:17:12Z</time>
      </trkpt>
      <trkpt lat="45.18548" lon="6.32457">
        <ele>1734.671</ele>
        <time>2022-09-10T08:17:22Z</time>
      </trkpt>
      <trkpt lat="45.18542" lon="6.32476">
        <ele>1736.063</ele>
        <time>2022-09-10T08:17:32Z</time>
      </trkpt>
      <trkpt lat="45.1854" lon="6.32494">
        <ele>1736.895</ele>
        <time>2022-09-10T08:17:41Z</time>
      </trkpt>
      <trkpt lat="45.18537" lon="6.32513">
        <ele>1738.436</ele>
        <time>2022-09-10T08:17:51Z</time>
      </trkpt>
      <trkpt lat="45.18534" lon="6.3253">
        <ele>1739.976</ele>
        <time>2022-09-10T08:18:00Z</time>
      </trkpt>
      <trkpt lat="45.18531" lon="6.32546">
        <ele>1740.87</ele>
        <time>2022-09-10T08:18:09Z</time>
      </trkpt>
      <trkpt lat="45.18526" lon="6.32564">
        <ele>1742.77</ele>
        <time>2022-09-10T08:18:19Z</time>
      </trkpt>
      <trkpt lat="45.18522" lon="6.3258">
        <ele>1744.149</ele>
        <time>2022-09-10T08:18:28Z</time>
      </trkpt>
      <trkpt lat="45.18515" lon="6.32597">
        <ele>1746.104</ele>
        <time>2022-09-10T08:18:38Z</time>
      </trkpt>
      <trkpt lat="45.18505" lon="6.32606">
        <ele>1746.919</ele>
        <time>2022-09-10T08:18:48Z</time>
      </trkpt>
      <trkpt lat="45.18495" lon="6.32611">
        <ele>1748.768</ele>
        <time>2022-09-10T08:18:57Z</time>
      </trkpt>
      <trkpt lat="45.18487" lon="6.32617">
        <ele>1749.71</ele>
        <time>2022-09-10T08:19:06Z</time>
      </trkpt>
      <trkpt lat="45.18478" lon="6.32625">
        <ele>1750.845</ele>
        <time>2022-09-10T08:19:16Z</time>
      </trkpt>
      <trkpt lat="45.18468" lon="6.32634">
        <ele>1752.166</ele>
        <time>2022-09-10T08:19:26Z</time>
      </trkpt>
      <trkpt lat="45.18459" lon="6.32645">
        <ele>1753.75</ele>
        <time>2022-09-10T08:19:36Z</time>
      </trkpt>
      <trkpt lat="45.18451" lon="6.32658">
        <ele>1755.188</ele>
        <time>2022-09-10T08:19:45Z</time>
      </trkpt>
      <trkpt lat="45.18441" lon="6.32668">
        <ele>1756.056</ele>
        <time>2022-09-10T08:19:54Z</time>
      </trkpt>
      <trkpt lat="45.1843" lon="6.32677">
        <ele>1756.977</ele>
        <time>2022-09-10T08:20:04Z</time>
      </trkpt>
      <trkpt lat="45.1842" lon="6.32687">
        <ele>1758.554</ele>
        <time>2022-09-10T08:20:14Z</time>
      </trkpt>
      <trkpt lat="45.1841" lon="6.32695">
        <ele>1760.188</ele>
        <time>2022-09-10T08:20:23Z</time>
      </trkpt>
      <trkpt lat="45.184" lon="6.32706">
        <ele>1761.812</ele>
        <time>2022-09-10T08:20:33Z</time>
      </trkpt>
      <trkpt lat="45.1839" lon="6.32721">
        <ele>1763.324</ele>
        <time>2022-09-10T08:20:43Z</time>
      </trkpt>
      <trkpt lat="45.18383" lon="6.32736">
        <ele>1765.294</ele>
        <time>2022-09-10T08:20:53Z</time>
      </trkpt>
      <trkpt lat="45.18378" lon="6.32751">
        <ele>1767.038</ele>
        <time>2022-09-10T08:21:02Z</time>
      </trkpt>
      <trkpt lat="45.18374" lon="6.32769">
        <ele>1768.628</ele>
        <time>2022-09-10T08:21:12Z</time>
      </trkpt>
      <trkpt lat="45.1837" lon="6.32785">
        <ele>1769.472</ele>
        <time>2022-09-10T08:21:21Z</time>
      </trkpt>
      <trkpt lat="45.18366" lon="6.32802">
        <ele>1771.253</ele>
        <time>2022-09-10T08:21:31Z</time>
      </trkpt>
      <trkpt lat="45.18362" lon="6.32819">
        <ele>1773.408</ele>
        <time>2022-09-10T08:21:40Z</time>
      </trkpt>
      <trkpt lat="45.18358" lon="6.32836">
        <ele>1773.976</ele>
        <time>2022-09-10T08:21:50Z</time>
      </trkpt>
      <trkpt lat="45.18355" lon="6.32852">
        <ele>1775.767</ele>
        <time>2022-09-10T08:21:59Z</time>
      </trkpt>
      <trkpt lat="45.1835" lon="6.3287">
        <ele>1777.201</ele>
        <time>2022-09-10T08:22:09Z</time>
      </trkpt>
      <trkpt lat="45.18347" lon="6.32888">
        <ele>1779.588</ele>
        <time>2022-09-10T08:22:19Z</time>
      </trkpt>
      <trkpt lat="45.18342" lon="6.32906">
        <ele>1780.471</ele>
        <time>2022-09-10T08:22:29Z</time>
      </trkpt>
      <trkpt lat="45.18338" lon="6.32923">
        <ele>1782.666</ele>
        <time>2022-09-10T08:22:38Z</time>
      </trkpt>
      <trkpt lat="45.18335" lon="6.32941">
        <ele>1785.069</ele>
        <time>2022-09-10T08:22:48Z</time>
      </trkpt>
      <trkpt lat="45.18331" lon="6.32958">
        <ele>1786.699</ele>
        <time>2022-09-10T08:22:57Z</time>
      </trkpt>
      <trkpt lat="45.18327" lon="6.32976">
        <ele>1788.045</ele>
        <time>2022-09-10T08:23:06Z</time>
      </trkpt>
      <trkpt lat="45.18321" lon="6.32995">
        <ele>1789.013</ele>
        <time>2022-09-10T08:23:16Z</time>
      </trkpt>
      <trkpt lat="45.18316" lon="6.33012">
        <ele>1790.641</ele>
        <time>2022-09-10T08:23:25Z</time>
      </trkpt>
      <trkpt lat="45.18309" lon="6.33031">
        <ele>1791.566</ele>
        <time>2022-09-10T08:23:35Z</time>
      </trkpt>
      <trkpt lat="45.18303" lon="6.33046">
        <ele>1792.827</ele>
        <time>2022-09-10T08:23:44Z</time>
      </trkpt>
      <trkpt lat="45.18296" lon="6.33061">
        <ele>1793.275</ele>
        <time>2022-09-10T08:23:53Z</time>
      </trkpt>
      <trkpt lat="45.18289" lon="6.33076">
        <ele>1794.215</ele>
        <time>2022-09-10T08:24:02Z</time>
      </trkpt>
      <trkpt lat="45.1828" lon="6.33093">
        <ele>1795.374</ele>
        <time>2022-09-10T08:24:12Z</time>
      </trkpt>
      <trkpt lat="45.18272" lon="6.33108">
        <ele>1796.909</ele>
        <time>2022-09-10T08:24:21Z</time>
      </trkpt>
      <trkpt lat="45.18266" lon="6.33124">
        <ele>1797.774</ele>
        <time>2022-09-10T08:24:30Z</time>
      </trkpt>
      <trkpt lat="45.18258" lon="6.33142">
        <ele>1800.769</ele>
        <time>2022-09-10T08:24:40Z</time>
      </trkpt>
      <trkpt lat="45.18252" lon="6.3316">
        <ele>1802.219</ele>
        <time>2022-09-10T08:24:50Z</time>
      </trkpt>
      <trkpt lat="45.18248" lon="6.33177">
        <ele>1804.755</ele>
        <time>2022-09-10T08:24:59Z</time>
      </trkpt>
      <trkpt lat="45.18243" lon="6.33195">
        <ele>1807.547</ele>
        <time>2022-09-10T08:25:09Z</time>
      </trkpt>
      <trkpt lat="45.18236" lon="6.33212">
        <ele>1807.842</ele>
        <time>2022-09-10T08:25:18Z</time>
      </trkpt>
      <trkpt lat="45.18228" lon="6.33232">
        <ele>1808.755</ele>
        <time>2022-09-10T08:25:28Z</time>
      </trkpt>
      <trkpt lat="45.18221" lon="6.33253">
        <ele>1809.612</ele>
        <time>2022-09-10T08:25:38Z</time>
      </trkpt>
      <trkpt lat="45.18218" lon="6.33272">
        <ele>1812.993</ele>
        <time>2022-09-10T08:25:47Z</time>
      </trkpt>
      <trkpt lat="45.18216" lon="6.3329">
        <ele>1814.439</ele>
        <time>2022-09-10T08:25:56Z</time>
      </trkpt>
      <trkpt lat="45.18209" lon="6.33299">
        <ele>1814.471</ele>
        <time>2022-09-10T08:26:06Z</time>
      </trkpt>
      <trkpt lat="45.18198" lon="6.33294">
        <ele>1815.489</ele>
        <time>2022-09-10T08:26:16Z</time>
      </trkpt>
      <trkpt lat="45.1819" lon="6.33279">
        <ele>1816.519</ele>
        <time>2022-09-10T08:26:25Z</time>
      </trkpt>
      <trkpt lat="45.18181" lon="6.33262">
        <ele>1818.012</ele>
        <time>2022-09-10T08:26:34Z</time>
      </trkpt>
      <trkpt lat="45.18172" lon="6.33245">
        <ele>1817.958</ele>
        <time>2022-09-10T08:26:44Z</time>
      </trkpt>
      <trkpt lat="45.18164" lon="6.33226">
        <ele>1819.872</ele>
        <time>2022-09-10T08:26:54Z</time>
      </trkpt>
      <trkpt lat="45.18156" lon="6.33209">
        <ele>1821.487</ele>
        <time>2022-09-10T08:27:03Z</time>
      </trkpt>
      <trkpt lat="45.1815" lon="6.33188">
        <ele>1824.196</ele>
        <time>2022-09-10T08:27:13Z</time>
      </trkpt>
      <trkpt lat="45.18146" lon="6.33167">
        <ele>1824.289</ele>
        <time>2022-09-10T08:27:22Z</time>
      </trkpt>
      <trkpt lat="45.18143" lon="6.33146">
        <ele>1825.606</ele>
        <time>2022-09-10T08:27:31Z</time>
      </trkpt>
      <trkpt lat="45.18142" lon="6.33125">
        <ele>1827.541</ele>
        <time>2022-09-10T08:27:41Z</time>
      </trkpt>
      <trkpt lat="45.1814" lon="6.33106">
        <ele>1829.014</ele>
        <time>2022-09-10T08:27:50Z</time>
      </trkpt>
      <trkpt lat="45.18139" lon="6.33087">
        <ele>1831.336</ele>
        <time>2022-09-10T08:27:59Z</time>
      </trkpt>
      <trkpt lat="45.18137" lon="6.33067">
        <ele>1833.269</ele>
        <time>2022-09-10T08:28:09Z</time>
      </trkpt>
      <trkpt lat="45.18134" lon="6.33049">
        <ele>1835.003</ele>
        <time>2022-09-10T08:28:18Z</time>
      </trkpt>
      <trkpt lat="45.18128" lon="6.33029">
        <ele>1836.479</ele>
        <time>2022-09-10T08:28:28Z</time>
      </trkpt>
      <trkpt lat="45.1812" lon="6.3301">
        <ele>1838.704</ele>
        <time>2022-09-10T08:28:38Z</time>
      </trkpt>
      <trkpt lat="45.18113" lon="6.32993">
        <ele>1840.194</ele>
        <time>2022-09-10T08:28:47Z</time>
      </trkpt>
      <trkpt lat="45.18104" lon="6.32976">
        <ele>1841.561</ele>
        <time>2022-09-10T08:28:57Z</time>
      </trkpt>
      <trkpt lat="45.18095" lon="6.32963">
        <ele>1844.38</ele>
        <time>2022-09-10T08:29:06Z</time>
      </trkpt>
      <trkpt lat="45.18082" lon="6.32952">
        <ele>1846.597</ele>
        <time>2022-09-10T08:29:16Z</time>
      </trkpt>
      <trkpt lat="45.1807" lon="6.32944">
        <ele>1847.338</ele>
        <time>2022-09-10T08:29:25Z</time>
      </trkpt>
      <trkpt lat="45.18055" lon="6.32942">
        <ele>1849.073</ele>
        <time>2022-09-10T08:29:35Z</time>
      </trkpt>
      <trkpt lat="45.1804" lon="6.32944">
        <ele>1851.503</ele>
        <time>2022-09-10T08:29:45Z</time>
      </trkpt>
      <trkpt lat="45.18025" lon="6.32948">
        <ele>1853.994</ele>
        <time>2022-09-10T08:29:55Z</time>
      </trkpt>
      <trkpt lat="45.18011" lon="6.32954">
        <ele>1853.137</ele>
        <time>2022-09-10T08:30:05Z</time>
      </trkpt>
      <trkpt lat="45.17997" lon="6.32958">
        <ele>1855.618</ele>
        <time>2022-09-10T08:30:14Z</time>
      </trkpt>
      <trkpt lat="45.17982" lon="6.32961">
        <ele>1857.537</ele>
        <time>2022-09-10T08:30:24Z</time>
      </trkpt>
      <trkpt lat="45.17968" lon="6.32966">
        <ele>1858.945</ele>
        <time>2022-09-10T08:30:34Z</time>
      </trkpt>
      <trkpt lat="45.17954" lon="6.32971">
        <ele>1860.819</ele>
        <time>2022-09-10T08:30:43Z</time>
      </trkpt>
      <trkpt lat="45.17941" lon="6.32979">
        <ele>1862.124</ele>
        <time>2022-09-10T08:30:52Z</time>
      </trkpt>
      <trkpt lat="45.17926" lon="6.32985">
        <ele>1863.628</ele>
        <time>2022-09-10T08:31:02Z</time>
      </trkpt>
      <trkpt lat="45.17918" lon="6.32991">
        <ele>1863.693</ele>
        <time>2022-09-10T08:31:12Z</time>
      </trkpt>
      <trkpt lat="45.17919" lon="6.3299">
        <ele>1863.72</ele>
        <time>2022-09-10T08:31:21Z</time>
      </trkpt>
      <trkpt lat="45.17919" lon="6.32989">
        <ele>1864.226</ele>
        <time>2022-09-10T08:31:30Z</time>
      </trkpt>
      <trkpt lat="45.17923" lon="6.32985">
        <ele>1863.876</ele>
        <time>2022-09-10T08:31:39Z</time>
      </trkpt>
      <trkpt lat="45.17953" lon="6.32968">
        <ele>1860.854</ele>
        <time>2022-09-10T08:31:49Z</time>
      </trkpt>
      <trkpt lat="45.17958" lon="6.3298">
        <ele>1861.925</ele>
        <time>2022-09-10T08:31:59Z</time>
      </trkpt>
      <trkpt lat="45.17949" lon="6.32991">
        <ele>1862.543</ele>
        <time>2022-09-10T08:32:08Z</time>
      </trkpt>
      <trkpt lat="45.17939" lon="6.33002">
        <ele>1864.321</ele>
        <time>2022-09-10T08:32:18Z</time>
      </trkpt>
      <trkpt lat="45.1793" lon="6.33013">
        <ele>1865.834</ele>
        <time>2022-09-10T08:32:28Z</time>
      </trkpt>
      <trkpt lat="45.17922" lon="6.33022">
        <ele>1868.02</ele>
        <time>2022-09-10T08:32:37Z</time>
      </trkpt>
      <trkpt lat="45.17913" lon="6.33029">
        <ele>1870.099</ele>
        <time>2022-09-10T08:32:46Z</time>
      </trkpt>
      <trkpt lat="45.17903" lon="6.33038">
        <ele>1871.684</ele>
        <time>2022-09-10T08:32:56Z</time>
      </trkpt>
      <trkpt lat="45.17894" lon="6.33047">
        <ele>1873.808</ele>
        <time>2022-09-10T08:33:05Z</time>
      </trkpt>
      <trkpt lat="45.17884" lon="6.33051">
        <ele>1876.346</ele>
        <time>2022-09-10T08:33:14Z</time>
      </trkpt>
      <trkpt lat="45.17874" lon="6.33057">
        <ele>1877.872</ele>
        <time>2022-09-10T08:33:24Z</time>
      </trkpt>
      <trkpt lat="45.17864" lon="6.33062">
        <ele>1880.05</ele>
        <time>2022-09-10T08:33:33Z</time>
      </trkpt>
      <trkpt lat="45.17855" lon="6.33068">
        <ele>1884.489</ele>
        <time>2022-09-10T08:33:43Z</time>
      </trkpt>
      <trkpt lat="45.17846" lon="6.33069">
        <ele>1886.652</ele>
        <time>2022-09-10T08:33:53Z</time>
      </trkpt>
      <trkpt lat="45.17837" lon="6.33071">
        <ele>1889.61</ele>
        <time>2022-09-10T08:34:02Z</time>
      </trkpt>
      <trkpt lat="45.17826" lon="6.33076">
        <ele>1890.98</ele>
        <time>2022-09-10T08:34:12Z</time>
      </trkpt>
      <trkpt lat="45.17816" lon="6.33079">
        <ele>1892.528</ele>
        <time>2022-09-10T08:34:21Z</time>
      </trkpt>
      <trkpt lat="45.17805" lon="6.33083">
        <ele>1893.695</ele>
        <time>2022-09-10T08:34:30Z</time>
      </trkpt>
      <trkpt lat="45.17795" lon="6.33089">
        <ele>1895.896</ele>
        <time>2022-09-10T08:34:40Z</time>
      </trkpt>
      <trkpt lat="45.17784" lon="6.33094">
        <ele>1896.848</ele>
        <time>2022-09-10T08:34:49Z</time>
      </trkpt>
      <trkpt lat="45.17774" lon="6.33101">
        <ele>1898.36</ele>
        <time>2022-09-10T08:34:59Z</time>
      </trkpt>
      <trkpt lat="45.17766" lon="6.33107">
        <ele>1899.763</ele>
        <time>2022-09-10T08:35:08Z</time>
      </trkpt>
      <trkpt lat="45.17758" lon="6.33114">
        <ele>1901.716</ele>
        <time>2022-09-10T08:35:17Z</time>
      </trkpt>
      <trkpt lat="45.17748" lon="6.33124">
        <ele>1904.368</ele>
        <time>2022-09-10T08:35:27Z</time>
      </trkpt>
      <trkpt lat="45.17739" lon="6.33134">
        <ele>1907.185</ele>
        <time>2022-09-10T08:35:37Z</time>
      </trkpt>
      <trkpt lat="45.17731" lon="6.33143">
        <ele>1908.807</ele>
        <time>2022-09-10T08:35:47Z</time>
      </trkpt>
      <trkpt lat="45.17726" lon="6.33153">
        <ele>1908.869</ele>
        <time>2022-09-10T08:35:56Z</time>
      </trkpt>
      <trkpt lat="45.17719" lon="6.33165">
        <ele>1910.461</ele>
        <time>2022-09-10T08:36:06Z</time>
      </trkpt>
      <trkpt lat="45.17712" lon="6.33177">
        <ele>1911.795</ele>
        <time>2022-09-10T08:36:15Z</time>
      </trkpt>
      <trkpt lat="45.17704" lon="6.33191">
        <ele>1912.561</ele>
        <time>2022-09-10T08:36:25Z</time>
      </trkpt>
      <trkpt lat="45.17696" lon="6.33206">
        <ele>1914.524</ele>
        <time>2022-09-10T08:36:35Z</time>
      </trkpt>
      <trkpt lat="45.17691" lon="6.33221">
        <ele>1915.772</ele>
        <time>2022-09-10T08:36:45Z</time>
      </trkpt>
      <trkpt lat="45.17687" lon="6.33235">
        <ele>1916.944</ele>
        <time>2022-09-10T08:36:54Z</time>
      </trkpt>
      <trkpt lat="45.1768" lon="6.33248">
        <ele>1917.971</ele>
        <time>2022-09-10T08:37:04Z</time>
      </trkpt>
      <trkpt lat="45.17671" lon="6.3326">
        <ele>1918.976</ele>
        <time>2022-09-10T08:37:13Z</time>
      </trkpt>
      <trkpt lat="45.17658" lon="6.33275">
        <ele>1919.478</ele>
        <time>2022-09-10T08:37:23Z</time>
      </trkpt>
      <trkpt lat="45.17647" lon="6.33289">
        <ele>1919.997</ele>
        <time>2022-09-10T08:37:32Z</time>
      </trkpt>
      <trkpt lat="45.17638" lon="6.33303">
        <ele>1920.705</ele>
        <time>2022-09-10T08:37:41Z</time>
      </trkpt>
      <trkpt lat="45.17628" lon="6.33317">
        <ele>1920.816</ele>
        <time>2022-09-10T08:37:50Z</time>
      </trkpt>
      <trkpt lat="45.17617" lon="6.33332">
        <ele>1922.888</ele>
        <time>2022-09-10T08:38:00Z</time>
      </trkpt>
      <trkpt lat="45.17607" lon="6.33344">
        <ele>1924.162</ele>
        <time>2022-09-10T08:38:09Z</time>
      </trkpt>
      <trkpt lat="45.17596" lon="6.33355">
        <ele>1925.079</ele>
        <time>2022-09-10T08:38:19Z</time>
      </trkpt>
      <trkpt lat="45.17585" lon="6.33364">
        <ele>1926.795</ele>
        <time>2022-09-10T08:38:28Z</time>
      </trkpt>
      <trkpt lat="45.17574" lon="6.33375">
        <ele>1928.175</ele>
        <time>2022-09-10T08:38:37Z</time>
      </trkpt>
      <trkpt lat="45.17564" lon="6.33386">
        <ele>1929.443</ele>
        <time>2022-09-10T08:38:46Z</time>
      </trkpt>
      <trkpt lat="45.17554" lon="6.33395">
        <ele>1930.949</ele>
        <time>2022-09-10T08:38:55Z</time>
      </trkpt>
      <trkpt lat="45.17544" lon="6.33408">
        <ele>1931.68</ele>
        <time>2022-09-10T08:39:05Z</time>
      </trkpt>
      <trkpt lat="45.17536" lon="6.33417">
        <ele>1933.61</ele>
        <time>2022-09-10T08:39:14Z</time>
      </trkpt>
      <trkpt lat="45.17527" lon="6.33427">
        <ele>1935.826</ele>
        <time>2022-09-10T08:39:23Z</time>
      </trkpt>
      <trkpt lat="45.17519" lon="6.33437">
        <ele>1937.914</ele>
        <time>2022-09-10T08:39:32Z</time>
      </trkpt>
      <trkpt lat="45.1751" lon="6.33448">
        <ele>1940.397</ele>
        <time>2022-09-10T08:39:42Z</time>
      </trkpt>
      <trkpt lat="45.175" lon="6.33458">
        <ele>1941.944</ele>
        <time>2022-09-10T08:39:51Z</time>
      </trkpt>
      <trkpt lat="45.1749" lon="6.33468">
        <ele>1943.341</ele>
        <time>2022-09-10T08:40:01Z</time>
      </trkpt>
      <trkpt lat="45.17482" lon="6.3348">
        <ele>1944.317</ele>
        <time>2022-09-10T08:40:10Z</time>
      </trkpt>
      <trkpt lat="45.17472" lon="6.33488">
        <ele>1945.654</ele>
        <time>2022-09-10T08:40:20Z</time>
      </trkpt>
      <trkpt lat="45.17462" lon="6.33498">
        <ele>1946.943</ele>
        <time>2022-09-10T08:40:29Z</time>
      </trkpt>
      <trkpt lat="45.17451" lon="6.3351">
        <ele>1948.596</ele>
        <time>2022-09-10T08:40:39Z</time>
      </trkpt>
      <trkpt lat="45.1744" lon="6.33521">
        <ele>1950.042</ele>
        <time>2022-09-10T08:40:48Z</time>
      </trkpt>
      <trkpt lat="45.17431" lon="6.33534">
        <ele>1951.442</ele>
        <time>2022-09-10T08:40:58Z</time>
      </trkpt>
      <trkpt lat="45.17422" lon="6.33547">
        <ele>1951.948</ele>
        <time>2022-09-10T08:41:07Z</time>
      </trkpt>
      <trkpt lat="45.17414" lon="6.33565">
        <ele>1953.22</ele>
        <time>2022-09-10T08:41:16Z</time>
      </trkpt>
      <trkpt lat="45.17404" lon="6.33586">
        <ele>1953.352</ele>
        <time>2022-09-10T08:41:25Z</time>
      </trkpt>
      <trkpt lat="45.17393" lon="6.33608">
        <ele>1952.859</ele>
        <time>2022-09-10T08:41:35Z</time>
      </trkpt>
      <trkpt lat="45.17385" lon="6.33626">
        <ele>1954.814</ele>
        <time>2022-09-10T08:41:44Z</time>
      </trkpt>
      <trkpt lat="45.17376" lon="6.33643">
        <ele>1957.623</ele>
        <time>2022-09-10T08:41:54Z</time>
      </trkpt>
      <trkpt lat="45.17367" lon="6.33656">
        <ele>1959.402</ele>
        <time>2022-09-10T08:42:03Z</time>
      </trkpt>
      <trkpt lat="45.17353" lon="6.33665">
        <ele>1961.557</ele>
        <time>2022-09-10T08:42:13Z</time>
      </trkpt>
      <trkpt lat="45.1734" lon="6.33675">
        <ele>1962.686</ele>
        <time>2022-09-10T08:42:23Z</time>
      </trkpt>
      <trkpt lat="45.17328" lon="6.3369">
        <ele>1962.928</ele>
        <time>2022-09-10T08:42:33Z</time>
      </trkpt>
      <trkpt lat="45.17319" lon="6.33706">
        <ele>1961.983</ele>
        <time>2022-09-10T08:42:43Z</time>
      </trkpt>
      <trkpt lat="45.17315" lon="6.33709">
        <ele>1962.206</ele>
        <time>2022-09-10T08:42:53Z</time>
      </trkpt>
      <trkpt lat="45.17316" lon="6.33709">
        <ele>1962.9</ele>
        <time>2022-09-10T08:43:02Z</time>
      </trkpt>
      <trkpt lat="45.17316" lon="6.33709">
        <ele>1962.967</ele>
        <time>2022-09-10T08:43:12Z</time>
      </trkpt>
      <trkpt lat="45.17314" lon="6.33709">
        <ele>1963.258</ele>
        <time>2022-09-10T08:43:22Z</time>
      </trkpt>
      <trkpt lat="45.17314" lon="6.33709">
        <ele>1961.859</ele>
        <time>2022-09-10T08:43:31Z</time>
      </trkpt>
      <trkpt lat="45.17314" lon="6.33709">
        <ele>1961.295</ele>
        <time>2022-09-10T08:43:40Z</time>
      </trkpt>
      <trkpt lat="45.17315" lon="6.33707">
        <ele>1962.692</ele>
        <time>2022-09-10T08:43:49Z</time>
      </trkpt>
      <trkpt lat="45.17315" lon="6.33707">
        <ele>1962.989</ele>
        <time>2022-09-10T08:43:59Z</time>
      </trkpt>
      <trkpt lat="45.17315" lon="6.33707">
        <ele>1962.796</ele>
        <time>2022-09-10T08:44:09Z</time>
      </trkpt>
      <trkpt lat="45.17315" lon="6.33708">
        <ele>1963.256</ele>
        <time>2022-09-10T08:44:18Z</time>
      </trkpt>
      <trkpt lat="45.17319" lon="6.33715">
        <ele>1963.394</ele>
        <time>2022-09-10T08:44:28Z</time>
      </trkpt>
      <trkpt lat="45.17321" lon="6.33716">
        <ele>1963.497</ele>
        <time>2022-09-10T08:44:38Z</time>
      </trkpt>
      <trkpt lat="45.17322" lon="6.33716">
        <ele>1963.343</ele>
        <time>2022-09-10T08:44:47Z</time>
      </trkpt>
      <trkpt lat="45.17322" lon="6.33716">
        <ele>1963.337</ele>
        <time>2022-09-10T08:44:56Z</time>
      </trkpt>
      <trkpt lat="45.17322" lon="6.33716">
        <ele>1963.337</ele>
        <time>2022-09-10T08:45:06Z</time>
      </trkpt>
      <trkpt lat="45.17314" lon="6.33711">
        <ele>1962.514</ele>
        <time>2022-09-10T08:45:15Z</time>
      </trkpt>
      <trkpt lat="45.17314" lon="6.33709">
        <ele>1962.197</ele>
        <time>2022-09-10T08:45:25Z</time>
      </trkpt>
      <trkpt lat="45.17314" lon="6.33709">
        <ele>1962.508</ele>
        <time>2022-09-10T08:45:34Z</time>
      </trkpt>
      <trkpt lat="45.17315" lon="6.33707">
        <ele>1963.269</ele>
        <time>2022-09-10T08:45:44Z</time>
      </trkpt>
      <trkpt lat="45.17315" lon="6.33718">
        <ele>1962.56</ele>
        <time>2022-09-10T08:45:54Z</time>
      </trkpt>
      <trkpt lat="45.17297" lon="6.33723">
        <ele>1962.102</ele>
        <time>2022-09-10T08:46:03Z</time>
      </trkpt>
      <trkpt lat="45.17268" lon="6.33731">
        <ele>1960.038</ele>
        <time>2022-09-10T08:46:13Z</time>
      </trkpt>
      <trkpt lat="45.17257" lon="6.33737">
        <ele>1960.796</ele>
        <time>2022-09-10T08:46:23Z</time>
      </trkpt>
      <trkpt lat="45.17257" lon="6.33736">
        <ele>1961.25</ele>
        <time>2022-09-10T08:46:32Z</time>
      </trkpt>
      <trkpt lat="45.17258" lon="6.33737">
        <ele>1961.287</ele>
        <time>2022-09-10T08:46:41Z</time>
      </trkpt>
      <trkpt lat="45.17237" lon="6.33742">
        <ele>1959.75</ele>
        <time>2022-09-10T08:46:50Z</time>
      </trkpt>
      <trkpt lat="45.17211" lon="6.33743">
        <ele>1961.803</ele>
        <time>2022-09-10T08:47:00Z</time>
      </trkpt>
      <trkpt lat="45.17195" lon="6.3374">
        <ele>1963.994</ele>
        <time>2022-09-10T08:47:09Z</time>
      </trkpt>
      <trkpt lat="45.17177" lon="6.33745">
        <ele>1965.557</ele>
        <time>2022-09-10T08:47:19Z</time>
      </trkpt>
      <trkpt lat="45.17161" lon="6.33754">
        <ele>1966.138</ele>
        <time>2022-09-10T08:47:28Z</time>
      </trkpt>
      <trkpt lat="45.17146" lon="6.33768">
        <ele>1967.271</ele>
        <time>2022-09-10T08:47:37Z</time>
      </trkpt>
      <trkpt lat="45.17126" lon="6.33783">
        <ele>1968.62</ele>
        <time>2022-09-10T08:47:46Z</time>
      </trkpt>
      <trkpt lat="45.17109" lon="6.33782">
        <ele>1969</ele>
        <time>2022-09-10T08:47:56Z</time>
      </trkpt>
      <trkpt lat="45.17109" lon="6.33775">
        <ele>1968.341</ele>
        <time>2022-09-10T08:48:06Z</time>
      </trkpt>
      <trkpt lat="45.1711" lon="6.33775">
        <ele>1968.901</ele>
        <time>2022-09-10T08:48:15Z</time>
      </trkpt>
      <trkpt lat="45.1711" lon="6.33775">
        <ele>1968.069</ele>
        <time>2022-09-10T08:48:25Z</time>
      </trkpt>
      <trkpt lat="45.17109" lon="6.33775">
        <ele>1967.947</ele>
        <time>2022-09-10T08:48:34Z</time>
      </trkpt>
      <trkpt lat="45.17109" lon="6.33774">
        <ele>1967.108</ele>
        <time>2022-09-10T08:48:44Z</time>
      </trkpt>
      <trkpt lat="45.1711" lon="6.33777">
        <ele>1965.809</ele>
        <time>2022-09-10T08:48:53Z</time>
      </trkpt>
      <trkpt lat="45.17098" lon="6.33787">
        <ele>1968.729</ele>
        <time>2022-09-10T08:49:03Z</time>
      </trkpt>
      <trkpt lat="45.17067" lon="6.33803">
        <ele>1967.22</ele>
        <time>2022-09-10T08:49:13Z</time>
      </trkpt>
      <trkpt lat="45.17024" lon="6.33823">
        <ele>1965.754</ele>
        <time>2022-09-10T08:49:22Z</time>
      </trkpt>
      <trkpt lat="45.16978" lon="6.33828">
        <ele>1965.299</ele>
        <time>2022-09-10T08:49:32Z</time>
      </trkpt>
      <trkpt lat="45.16956" lon="6.33823">
        <ele>1965.951</ele>
        <time>2022-09-10T08:49:42Z</time>
      </trkpt>
      <trkpt lat="45.1694" lon="6.3382">
        <ele>1968.119</ele>
        <time>2022-09-10T08:49:52Z</time>
      </trkpt>
      <trkpt lat="45.16924" lon="6.33818">
        <ele>1970.377</ele>
        <time>2022-09-10T08:50:02Z</time>
      </trkpt>
      <trkpt lat="45.16911" lon="6.33818">
        <ele>1971.339</ele>
        <time>2022-09-10T08:50:11Z</time>
      </trkpt>
      <trkpt lat="45.16895" lon="6.3382">
        <ele>1973.81</ele>
        <time>2022-09-10T08:50:21Z</time>
      </trkpt>
      <trkpt lat="45.16882" lon="6.33819">
        <ele>1975.651</ele>
        <time>2022-09-10T08:50:31Z</time>
      </trkpt>
      <trkpt lat="45.16868" lon="6.33816">
        <ele>1976.806</ele>
        <time>2022-09-10T08:50:40Z</time>
      </trkpt>
      <trkpt lat="45.16857" lon="6.33817">
        <ele>1979.036</ele>
        <time>2022-09-10T08:50:49Z</time>
      </trkpt>
      <trkpt lat="45.16845" lon="6.33817">
        <ele>1980.173</ele>
        <time>2022-09-10T08:50:58Z</time>
      </trkpt>
      <trkpt lat="45.16832" lon="6.33819">
        <ele>1981.457</ele>
        <time>2022-09-10T08:51:07Z</time>
      </trkpt>
      <trkpt lat="45.1682" lon="6.33822">
        <ele>1982.637</ele>
        <time>2022-09-10T08:51:16Z</time>
      </trkpt>
      <trkpt lat="45.1681" lon="6.33824">
        <ele>1983.768</ele>
        <time>2022-09-10T08:51:26Z</time>
      </trkpt>
      <trkpt lat="45.168" lon="6.33823">
        <ele>1985.191</ele>
        <time>2022-09-10T08:51:35Z</time>
      </trkpt>
      <trkpt lat="45.16791" lon="6.33821">
        <ele>1986.228</ele>
        <time>2022-09-10T08:51:44Z</time>
      </trkpt>
      <trkpt lat="45.16781" lon="6.33818">
        <ele>1987.638</ele>
        <time>2022-09-10T08:51:54Z</time>
      </trkpt>
      <trkpt lat="45.16769" lon="6.33815">
        <ele>1989.255</ele>
        <time>2022-09-10T08:52:03Z</time>
      </trkpt>
      <trkpt lat="45.16757" lon="6.33813">
        <ele>1990.545</ele>
        <time>2022-09-10T08:52:13Z</time>
      </trkpt>
      <trkpt lat="45.16747" lon="6.33813">
        <ele>1991.944</ele>
        <time>2022-09-10T08:52:22Z</time>
      </trkpt>
      <trkpt lat="45.16735" lon="6.33813">
        <ele>1993.883</ele>
        <time>2022-09-10T08:52:32Z</time>
      </trkpt>
      <trkpt lat="45.16725" lon="6.33813">
        <ele>1995.328</ele>
        <time>2022-09-10T08:52:41Z</time>
      </trkpt>
      <trkpt lat="45.16714" lon="6.33816">
        <ele>1996.981</ele>
        <time>2022-09-10T08:52:51Z</time>
      </trkpt>
      <trkpt lat="45.16703" lon="6.33818">
        <ele>1998.584</ele>
        <time>2022-09-10T08:53:00Z</time>
      </trkpt>
      <trkpt lat="45.16691" lon="6.33821">
        <ele>2002.063</ele>
        <time>2022-09-10T08:53:10Z</time>
      </trkpt>
      <trkpt lat="45.1668" lon="6.33824">
        <ele>2004.312</ele>
        <time>2022-09-10T08:53:19Z</time>
      </trkpt>
      <trkpt lat="45.16671" lon="6.3382">
        <ele>2005.63</ele>
        <time>2022-09-10T08:53:28Z</time>
      </trkpt>
      <trkpt lat="45.16661" lon="6.33808">
        <ele>2006.163</ele>
        <time>2022-09-10T08:53:38Z</time>
      </trkpt>
      <trkpt lat="45.1665" lon="6.33799">
        <ele>2007.334</ele>
        <time>2022-09-10T08:53:47Z</time>
      </trkpt>
      <trkpt lat="45.16639" lon="6.33792">
        <ele>2008.785</ele>
        <time>2022-09-10T08:53:56Z</time>
      </trkpt>
      <trkpt lat="45.16627" lon="6.33784">
        <ele>2010.205</ele>
        <time>2022-09-10T08:54:06Z</time>
      </trkpt>
      <trkpt lat="45.16615" lon="6.3378">
        <ele>2010.837</ele>
        <time>2022-09-10T08:54:15Z</time>
      </trkpt>
      <trkpt lat="45.16601" lon="6.33781">
        <ele>2012.317</ele>
        <time>2022-09-10T08:54:25Z</time>
      </trkpt>
      <trkpt lat="45.16588" lon="6.3378">
        <ele>2013.806</ele>
        <time>2022-09-10T08:54:34Z</time>
      </trkpt>
      <trkpt lat="45.16579" lon="6.33769">
        <ele>2015.298</ele>
        <time>2022-09-10T08:54:43Z</time>
      </trkpt>
      <trkpt lat="45.16567" lon="6.33758">
        <ele>2017.249</ele>
        <time>2022-09-10T08:54:53Z</time>
      </trkpt>
      <trkpt lat="45.16553" lon="6.33752">
        <ele>2019.06</ele>
        <time>2022-09-10T08:55:03Z</time>
      </trkpt>
      <trkpt lat="45.16538" lon="6.33748">
        <ele>2021.655</ele>
        <time>2022-09-10T08:55:13Z</time>
      </trkpt>
      <trkpt lat="45.16523" lon="6.3374">
        <ele>2022.968</ele>
        <time>2022-09-10T08:55:23Z</time>
      </trkpt>
      <trkpt lat="45.16509" lon="6.33722">
        <ele>2021.8</ele>
        <time>2022-09-10T08:55:33Z</time>
      </trkpt>
      <trkpt lat="45.16496" lon="6.33703">
        <ele>2021.339</ele>
        <time>2022-09-10T08:55:42Z</time>
      </trkpt>
      <trkpt lat="45.16485" lon="6.33688">
        <ele>2022.884</ele>
        <time>2022-09-10T08:55:51Z</time>
      </trkpt>
      <trkpt lat="45.16473" lon="6.33679">
        <ele>2022.848</ele>
        <time>2022-09-10T08:56:01Z</time>
      </trkpt>
      <trkpt lat="45.1644" lon="6.33689">
        <ele>2021.513</ele>
        <time>2022-09-10T08:56:10Z</time>
      </trkpt>
      <trkpt lat="45.16397" lon="6.33732">
        <ele>2020.125</ele>
        <time>2022-09-10T08:56:20Z</time>
      </trkpt>
      <trkpt lat="45.16377" lon="6.3375">
        <ele>2021.786</ele>
        <time>2022-09-10T08:56:30Z</time>
      </trkpt>
      <trkpt lat="45.16366" lon="6.3376">
        <ele>2022.762</ele>
        <time>2022-09-10T08:56:40Z</time>
      </trkpt>
      <trkpt lat="45.16356" lon="6.33767">
        <ele>2026.308</ele>
        <time>2022-09-10T08:56:50Z</time>
      </trkpt>
      <trkpt lat="45.16346" lon="6.33774">
        <ele>2026.972</ele>
        <time>2022-09-10T08:56:59Z</time>
      </trkpt>
      <trkpt lat="45.16337" lon="6.33782">
        <ele>2027.034</ele>
        <time>2022-09-10T08:57:08Z</time>
      </trkpt>
      <trkpt lat="45.16327" lon="6.3379">
        <ele>2027.961</ele>
        <time>2022-09-10T08:57:18Z</time>
      </trkpt>
      <trkpt lat="45.16318" lon="6.33798">
        <ele>2030.61</ele>
        <time>2022-09-10T08:57:27Z</time>
      </trkpt>
      <trkpt lat="45.16308" lon="6.33804">
        <ele>2030.452</ele>
        <time>2022-09-10T08:57:37Z</time>
      </trkpt>
      <trkpt lat="45.16297" lon="6.33813">
        <ele>2029.551</ele>
        <time>2022-09-10T08:57:47Z</time>
      </trkpt>
      <trkpt lat="45.16286" lon="6.33818">
        <ele>2030.486</ele>
        <time>2022-09-10T08:57:56Z</time>
      </trkpt>
      <trkpt lat="45.16275" lon="6.33821">
        <ele>2033.81</ele>
        <time>2022-09-10T08:58:05Z</time>
      </trkpt>
      <trkpt lat="45.16263" lon="6.3382">
        <ele>2034.312</ele>
        <time>2022-09-10T08:58:15Z</time>
      </trkpt>
      <trkpt lat="45.16253" lon="6.33815">
        <ele>2034.914</ele>
        <time>2022-09-10T08:58:24Z</time>
      </trkpt>
      <trkpt lat="45.16245" lon="6.33805">
        <ele>2038.032</ele>
        <time>2022-09-10T08:58:33Z</time>
      </trkpt>
      <trkpt lat="45.16237" lon="6.33802">
        <ele>2041.017</ele>
        <time>2022-09-10T08:58:43Z</time>
      </trkpt>
      <trkpt lat="45.16231" lon="6.33817">
        <ele>2043.348</ele>
        <time>2022-09-10T08:58:53Z</time>
      </trkpt>
      <trkpt lat="45.16227" lon="6.33829">
        <ele>2048.433</ele>
        <time>2022-09-10T08:59:02Z</time>
      </trkpt>
      <trkpt lat="45.16217" lon="6.33833">
        <ele>2050.824</ele>
        <time>2022-09-10T08:59:12Z</time>
      </trkpt>
      <trkpt lat="45.16209" lon="6.33843">
        <ele>2051.953</ele>
        <time>2022-09-10T08:59:21Z</time>
      </trkpt>
      <trkpt lat="45.16202" lon="6.33853">
        <ele>2051.919</ele>
        <time>2022-09-10T08:59:30Z</time>
      </trkpt>
      <trkpt lat="45.16197" lon="6.33865">
        <ele>2055.598</ele>
        <time>2022-09-10T08:59:39Z</time>
      </trkpt>
      <trkpt lat="45.16192" lon="6.33876">
        <ele>2056.42</ele>
        <time>2022-09-10T08:59:49Z</time>
      </trkpt>
      <trkpt lat="45.16188" lon="6.33889">
        <ele>2059.193</ele>
        <time>2022-09-10T08:59:58Z</time>
      </trkpt>
      <trkpt lat="45.16184" lon="6.33902">
        <ele>2061.043</ele>
        <time>2022-09-10T09:00:07Z</time>
      </trkpt>
      <trkpt lat="45.16173" lon="6.33902">
        <ele>2060.568</ele>
        <time>2022-09-10T09:00:17Z</time>
      </trkpt>
      <trkpt lat="45.16165" lon="6.33891">
        <ele>2061.269</ele>
        <time>2022-09-10T09:00:27Z</time>
      </trkpt>
      <trkpt lat="45.16164" lon="6.33877">
        <ele>2061.587</ele>
        <time>2022-09-10T09:00:36Z</time>
      </trkpt>
      <trkpt lat="45.16165" lon="6.33857">
        <ele>2063.013</ele>
        <time>2022-09-10T09:00:46Z</time>
      </trkpt>
      <trkpt lat="45.16169" lon="6.33826">
        <ele>2062.307</ele>
        <time>2022-09-10T09:00:55Z</time>
      </trkpt>
      <trkpt lat="45.16164" lon="6.33812">
        <ele>2065.658</ele>
        <time>2022-09-10T09:01:04Z</time>
      </trkpt>
      <trkpt lat="45.16157" lon="6.33802">
        <ele>2069.74</ele>
        <time>2022-09-10T09:01:14Z</time>
      </trkpt>
      <trkpt lat="45.16148" lon="6.33797">
        <ele>2073.482</ele>
        <time>2022-09-10T09:01:23Z</time>
      </trkpt>
      <trkpt lat="45.16139" lon="6.338">
        <ele>2076.086</ele>
        <time>2022-09-10T09:01:33Z</time>
      </trkpt>
      <trkpt lat="45.1613" lon="6.33806">
        <ele>2079.503</ele>
        <time>2022-09-10T09:01:43Z</time>
      </trkpt>
      <trkpt lat="45.16121" lon="6.33809">
        <ele>2081.141</ele>
        <time>2022-09-10T09:01:52Z</time>
      </trkpt>
      <trkpt lat="45.16112" lon="6.33805">
        <ele>2082.623</ele>
        <time>2022-09-10T09:02:01Z</time>
      </trkpt>
      <trkpt lat="45.16102" lon="6.33802">
        <ele>2084.16</ele>
        <time>2022-09-10T09:02:11Z</time>
      </trkpt>
      <trkpt lat="45.16094" lon="6.33798">
        <ele>2085.461</ele>
        <time>2022-09-10T09:02:20Z</time>
      </trkpt>
      <trkpt lat="45.16084" lon="6.33795">
        <ele>2087.267</ele>
        <time>2022-09-10T09:02:30Z</time>
      </trkpt>
      <trkpt lat="45.16075" lon="6.33793">
        <ele>2089.902</ele>
        <time>2022-09-10T09:02:39Z</time>
      </trkpt>
      <trkpt lat="45.16066" lon="6.33787">
        <ele>2092.666</ele>
        <time>2022-09-10T09:02:49Z</time>
      </trkpt>
      <trkpt lat="45.16057" lon="6.33783">
        <ele>2096.193</ele>
        <time>2022-09-10T09:02:59Z</time>
      </trkpt>
      <trkpt lat="45.16048" lon="6.33778">
        <ele>2097.824</ele>
        <time>2022-09-10T09:03:09Z</time>
      </trkpt>
      <trkpt lat="45.16041" lon="6.33771">
        <ele>2099.268</ele>
        <time>2022-09-10T09:03:19Z</time>
      </trkpt>
      <trkpt lat="45.16034" lon="6.33766">
        <ele>2102.539</ele>
        <time>2022-09-10T09:03:28Z</time>
      </trkpt>
      <trkpt lat="45.16025" lon="6.33763">
        <ele>2104.726</ele>
        <time>2022-09-10T09:03:38Z</time>
      </trkpt>
      <trkpt lat="45.16018" lon="6.33758">
        <ele>2104.572</ele>
        <time>2022-09-10T09:03:47Z</time>
      </trkpt>
      <trkpt lat="45.1601" lon="6.33749">
        <ele>2104.941</ele>
        <time>2022-09-10T09:03:57Z</time>
      </trkpt>
      <trkpt lat="45.16004" lon="6.3374">
        <ele>2104.864</ele>
        <time>2022-09-10T09:04:06Z</time>
      </trkpt>
      <trkpt lat="45.15996" lon="6.33731">
        <ele>2105.585</ele>
        <time>2022-09-10T09:04:16Z</time>
      </trkpt>
      <trkpt lat="45.15989" lon="6.33722">
        <ele>2106.229</ele>
        <time>2022-09-10T09:04:25Z</time>
      </trkpt>
      <trkpt lat="45.15981" lon="6.33714">
        <ele>2107.951</ele>
        <time>2022-09-10T09:04:34Z</time>
      </trkpt>
      <trkpt lat="45.15967" lon="6.33708">
        <ele>2108.9</ele>
        <time>2022-09-10T09:04:44Z</time>
      </trkpt>
      <trkpt lat="45.15955" lon="6.33703">
        <ele>2109.488</ele>
        <time>2022-09-10T09:04:53Z</time>
      </trkpt>
      <trkpt lat="45.1593" lon="6.33719">
        <ele>2104.487</ele>
        <time>2022-09-10T09:05:02Z</time>
      </trkpt>
      <trkpt lat="45.15909" lon="6.33705">
        <ele>2106.489</ele>
        <time>2022-09-10T09:05:11Z</time>
      </trkpt>
      <trkpt lat="45.15897" lon="6.33696">
        <ele>2108.409</ele>
        <time>2022-09-10T09:05:21Z</time>
      </trkpt>
      <trkpt lat="45.1588" lon="6.33693">
        <ele>2108.051</ele>
        <time>2022-09-10T09:05:30Z</time>
      </trkpt>
      <trkpt lat="45.15855" lon="6.33699">
        <ele>2106.903</ele>
        <time>2022-09-10T09:05:39Z</time>
      </trkpt>
      <trkpt lat="45.1585" lon="6.33705">
        <ele>2106.641</ele>
        <time>2022-09-10T09:05:49Z</time>
      </trkpt>
      <trkpt lat="45.15849" lon="6.33703">
        <ele>2107.156</ele>
        <time>2022-09-10T09:05:59Z</time>
      </trkpt>
      <trkpt lat="45.15849" lon="6.33704">
        <ele>2107.42</ele>
        <time>2022-09-10T09:06:09Z</time>
      </trkpt>
      <trkpt lat="45.1585" lon="6.33702">
        <ele>2107.496</ele>
        <time>2022-09-10T09:06:18Z</time>
      </trkpt>
      <trkpt lat="45.1585" lon="6.33702">
        <ele>2106.733</ele>
        <time>2022-09-10T09:06:28Z</time>
      </trkpt>
      <trkpt lat="45.1585" lon="6.33702">
        <ele>2106.326</ele>
        <time>2022-09-10T09:06:37Z</time>
      </trkpt>
      <trkpt lat="45.1585" lon="6.33704">
        <ele>2106.289</ele>
        <time>2022-09-10T09:06:47Z</time>
      </trkpt>
      <trkpt lat="45.15849" lon="6.33705">
        <ele>2106.717</ele>
        <time>2022-09-10T09:06:57Z</time>
      </trkpt>
      <trkpt lat="45.15849" lon="6.33705">
        <ele>2106.704</ele>
        <time>2022-09-10T09:07:07Z</time>
      </trkpt>
      <trkpt lat="45.15849" lon="6.33705">
        <ele>2106.45</ele>
        <time>2022-09-10T09:07:16Z</time>
      </trkpt>
      <trkpt lat="45.15849" lon="6.33705">
        <ele>2106.103</ele>
        <time>2022-09-10T09:07:26Z</time>
      </trkpt>
      <trkpt lat="45.15849" lon="6.33703">
        <ele>2106.295</ele>
        <time>2022-09-10T09:07:36Z</time>
      </trkpt>
      <trkpt lat="45.15849" lon="6.33701">
        <ele>2105.707</ele>
        <time>2022-09-10T09:07:46Z</time>
      </trkpt>
      <trkpt lat="45.15849" lon="6.33701">
        <ele>2105.936</ele>
        <time>2022-09-10T09:07:56Z</time>
      </trkpt>
      <trkpt lat="45.1585" lon="6.33701">
        <ele>2106.262</ele>
        <time>2022-09-10T09:08:05Z</time>
      </trkpt>
      <trkpt lat="45.1585" lon="6.33701">
        <ele>2106.277</ele>
        <time>2022-09-10T09:08:15Z</time>
      </trkpt>
      <trkpt lat="45.15851" lon="6.33701">
        <ele>2107.546</ele>
        <time>2022-09-10T09:08:25Z</time>
      </trkpt>
      <trkpt lat="45.15851" lon="6.33701">
        <ele>2107.837</ele>
        <time>2022-09-10T09:08:35Z</time>
      </trkpt>
      <trkpt lat="45.15851" lon="6.33701">
        <ele>2107.848</ele>
        <time>2022-09-10T09:08:44Z</time>
      </trkpt>
      <trkpt lat="45.15853" lon="6.33704">
        <ele>2107.662</ele>
        <time>2022-09-10T09:08:53Z</time>
      </trkpt>
      <trkpt lat="45.15849" lon="6.33705">
        <ele>2105.86</ele>
        <time>2022-09-10T09:09:03Z</time>
      </trkpt>
      <trkpt lat="45.15849" lon="6.33705">
        <ele>2105.911</ele>
        <time>2022-09-10T09:09:12Z</time>
      </trkpt>
      <trkpt lat="45.15849" lon="6.33704">
        <ele>2105.889</ele>
        <time>2022-09-10T09:09:22Z</time>
      </trkpt>
      <trkpt lat="45.15849" lon="6.33704">
        <ele>2105.898</ele>
        <time>2022-09-10T09:09:31Z</time>
      </trkpt>
      <trkpt lat="45.1585" lon="6.33705">
        <ele>2107.118</ele>
        <time>2022-09-10T09:09:41Z</time>
      </trkpt>
      <trkpt lat="45.1585" lon="6.33704">
        <ele>2107.565</ele>
        <time>2022-09-10T09:09:51Z</time>
      </trkpt>
      <trkpt lat="45.15849" lon="6.33705">
        <ele>2106.353</ele>
        <time>2022-09-10T09:10:00Z</time>
      </trkpt>
      <trkpt lat="45.15848" lon="6.33705">
        <ele>2105.391</ele>
        <time>2022-09-10T09:10:10Z</time>
      </trkpt>
      <trkpt lat="45.15847" lon="6.33704">
        <ele>2105.409</ele>
        <time>2022-09-10T09:10:20Z</time>
      </trkpt>
      <trkpt lat="45.15848" lon="6.33705">
        <ele>2105.101</ele>
        <time>2022-09-10T09:10:29Z</time>
      </trkpt>
      <trkpt lat="45.15848" lon="6.33705">
        <ele>2104.863</ele>
        <time>2022-09-10T09:10:38Z</time>
      </trkpt>
      <trkpt lat="45.15849" lon="6.33707">
        <ele>2105.585</ele>
        <time>2022-09-10T09:10:48Z</time>
      </trkpt>
      <trkpt lat="45.15848" lon="6.33706">
        <ele>2105.036</ele>
        <time>2022-09-10T09:10:58Z</time>
      </trkpt>
      <trkpt lat="45.15848" lon="6.33706">
        <ele>2105.051</ele>
        <time>2022-09-10T09:11:07Z</time>
      </trkpt>
      <trkpt lat="45.15848" lon="6.33706">
        <ele>2105.077</ele>
        <time>2022-09-10T09:11:16Z</time>
      </trkpt>
      <trkpt lat="45.15847" lon="6.33706">
        <ele>2105.406</ele>
        <time>2022-09-10T09:11:25Z</time>
      </trkpt>
      <trkpt lat="45.15848" lon="6.33706">
        <ele>2105.794</ele>
        <time>2022-09-10T09:11:35Z</time>
      </trkpt>
      <trkpt lat="45.15848" lon="6.33706">
        <ele>2105.723</ele>
        <time>2022-09-10T09:11:44Z</time>
      </trkpt>
      <trkpt lat="45.15848" lon="6.33706">
        <ele>2105.706</ele>
        <time>2022-09-10T09:11:54Z</time>
      </trkpt>
      <trkpt lat="45.15848" lon="6.33706">
        <ele>2105.672</ele>
        <time>2022-09-10T09:12:03Z</time>
      </trkpt>
      <trkpt lat="45.15848" lon="6.33706">
        <ele>2105.647</ele>
        <time>2022-09-10T09:12:13Z</time>
      </trkpt>
      <trkpt lat="45.15848" lon="6.33706">
        <ele>2105.638</ele>
        <time>2022-09-10T09:12:23Z</time>
      </trkpt>
      <trkpt lat="45.15848" lon="6.33706">
        <ele>2105.626</ele>
        <time>2022-09-10T09:12:32Z</time>
      </trkpt>
      <trkpt lat="45.15848" lon="6.33706">
        <ele>2105.623</ele>
        <time>2022-09-10T09:12:41Z</time>
      </trkpt>
      <trkpt lat="45.15848" lon="6.33706">
        <ele>2105.624</ele>
        <time>2022-09-10T09:12:51Z</time>
      </trkpt>
      <trkpt lat="45.15843" lon="6.33708">
        <ele>2105.804</ele>
        <time>2022-09-10T09:13:00Z</time>
      </trkpt>
      <trkpt lat="45.15833" lon="6.33712">
        <ele>2106.735</ele>
        <time>2022-09-10T09:13:09Z</time>
      </trkpt>
      <trkpt lat="45.1582" lon="6.33712">
        <ele>2108.113</ele>
        <time>2022-09-10T09:13:18Z</time>
      </trkpt>
      <trkpt lat="45.15806" lon="6.33712">
        <ele>2108.298</ele>
        <time>2022-09-10T09:13:27Z</time>
      </trkpt>
      <trkpt lat="45.15787" lon="6.33711">
        <ele>2108.598</ele>
        <time>2022-09-10T09:13:37Z</time>
      </trkpt>
      <trkpt lat="45.15771" lon="6.33709">
        <ele>2109.747</ele>
        <time>2022-09-10T09:13:46Z</time>
      </trkpt>
      <trkpt lat="45.15755" lon="6.33726">
        <ele>2111.044</ele>
        <time>2022-09-10T09:13:56Z</time>
      </trkpt>
      <trkpt lat="45.15735" lon="6.33733">
        <ele>2111.171</ele>
        <time>2022-09-10T09:14:06Z</time>
      </trkpt>
      <trkpt lat="45.15719" lon="6.33737">
        <ele>2112.853</ele>
        <time>2022-09-10T09:14:15Z</time>
      </trkpt>
      <trkpt lat="45.15708" lon="6.3374">
        <ele>2113.556</ele>
        <time>2022-09-10T09:14:24Z</time>
      </trkpt>
      <trkpt lat="45.15698" lon="6.3374">
        <ele>2114.849</ele>
        <time>2022-09-10T09:14:33Z</time>
      </trkpt>
      <trkpt lat="45.15691" lon="6.33759">
        <ele>2117.639</ele>
        <time>2022-09-10T09:14:43Z</time>
      </trkpt>
      <trkpt lat="45.15679" lon="6.33758">
        <ele>2116.508</ele>
        <time>2022-09-10T09:14:53Z</time>
      </trkpt>
      <trkpt lat="45.15673" lon="6.33744">
        <ele>2116.369</ele>
        <time>2022-09-10T09:15:02Z</time>
      </trkpt>
      <trkpt lat="45.15665" lon="6.33733">
        <ele>2116.987</ele>
        <time>2022-09-10T09:15:12Z</time>
      </trkpt>
      <trkpt lat="45.15662" lon="6.3373">
        <ele>2117.843</ele>
        <time>2022-09-10T09:15:21Z</time>
      </trkpt>
      <trkpt lat="45.15661" lon="6.33724">
        <ele>2120.169</ele>
        <time>2022-09-10T09:15:31Z</time>
      </trkpt>
      <trkpt lat="45.15664" lon="6.33713">
        <ele>2119.576</ele>
        <time>2022-09-10T09:15:41Z</time>
      </trkpt>
      <trkpt lat="45.15658" lon="6.33706">
        <ele>2120.893</ele>
        <time>2022-09-10T09:15:51Z</time>
      </trkpt>
      <trkpt lat="45.15656" lon="6.33703">
        <ele>2123.719</ele>
        <time>2022-09-10T09:16:00Z</time>
      </trkpt>
      <trkpt lat="45.15657" lon="6.33695">
        <ele>2126.429</ele>
        <time>2022-09-10T09:16:10Z</time>
      </trkpt>
      <trkpt lat="45.15656" lon="6.33686">
        <ele>2129.022</ele>
        <time>2022-09-10T09:16:19Z</time>
      </trkpt>
      <trkpt lat="45.15655" lon="6.33675">
        <ele>2131.341</ele>
        <time>2022-09-10T09:16:29Z</time>
      </trkpt>
      <trkpt lat="45.15657" lon="6.33669">
        <ele>2132.68</ele>
        <time>2022-09-10T09:16:38Z</time>
      </trkpt>
      <trkpt lat="45.15659" lon="6.33662">
        <ele>2134.659</ele>
        <time>2022-09-10T09:16:47Z</time>
      </trkpt>
      <trkpt lat="45.15656" lon="6.33653">
        <ele>2134.683</ele>
        <time>2022-09-10T09:16:57Z</time>
      </trkpt>
      <trkpt lat="45.15651" lon="6.33647">
        <ele>2134.516</ele>
        <time>2022-09-10T09:17:06Z</time>
      </trkpt>
      <trkpt lat="45.15645" lon="6.33646">
        <ele>2134.799</ele>
        <time>2022-09-10T09:17:15Z</time>
      </trkpt>
      <trkpt lat="45.15641" lon="6.33646">
        <ele>2136.776</ele>
        <time>2022-09-10T09:17:24Z</time>
      </trkpt>
      <trkpt lat="45.15635" lon="6.33646">
        <ele>2136.692</ele>
        <time>2022-09-10T09:17:34Z</time>
      </trkpt>
      <trkpt lat="45.15628" lon="6.33648">
        <ele>2138.213</ele>
        <time>2022-09-10T09:17:43Z</time>
      </trkpt>
      <trkpt lat="45.1562" lon="6.33647">
        <ele>2139.993</ele>
        <time>2022-09-10T09:17:53Z</time>
      </trkpt>
      <trkpt lat="45.15612" lon="6.33648">
        <ele>2142.203</ele>
        <time>2022-09-10T09:18:03Z</time>
      </trkpt>
      <trkpt lat="45.15605" lon="6.33648">
        <ele>2144.825</ele>
        <time>2022-09-10T09:18:12Z</time>
      </trkpt>
      <trkpt lat="45.15597" lon="6.33652">
        <ele>2147.461</ele>
        <time>2022-09-10T09:18:21Z</time>
      </trkpt>
      <trkpt lat="45.15588" lon="6.33653">
        <ele>2149.927</ele>
        <time>2022-09-10T09:18:31Z</time>
      </trkpt>
      <trkpt lat="45.1558" lon="6.33655">
        <ele>2152.814</ele>
        <time>2022-09-10T09:18:40Z</time>
      </trkpt>
      <trkpt lat="45.15571" lon="6.33655">
        <ele>2153.024</ele>
        <time>2022-09-10T09:18:50Z</time>
      </trkpt>
      <trkpt lat="45.15562" lon="6.3366">
        <ele>2154.89</ele>
        <time>2022-09-10T09:19:00Z</time>
      </trkpt>
      <trkpt lat="45.15554" lon="6.33668">
        <ele>2157.105</ele>
        <time>2022-09-10T09:19:10Z</time>
      </trkpt>
      <trkpt lat="45.15546" lon="6.33673">
        <ele>2159.506</ele>
        <time>2022-09-10T09:19:20Z</time>
      </trkpt>
      <trkpt lat="45.15536" lon="6.33677">
        <ele>2163.24</ele>
        <time>2022-09-10T09:19:30Z</time>
      </trkpt>
      <trkpt lat="45.15524" lon="6.33675">
        <ele>2166.959</ele>
        <time>2022-09-10T09:19:40Z</time>
      </trkpt>
      <trkpt lat="45.15516" lon="6.33669">
        <ele>2167.665</ele>
        <time>2022-09-10T09:19:49Z</time>
      </trkpt>
      <trkpt lat="45.15509" lon="6.33679">
        <ele>2170.746</ele>
        <time>2022-09-10T09:19:59Z</time>
      </trkpt>
      <trkpt lat="45.15508" lon="6.33696">
        <ele>2175.262</ele>
        <time>2022-09-10T09:20:09Z</time>
      </trkpt>
      <trkpt lat="45.15505" lon="6.337">
        <ele>2173.957</ele>
        <time>2022-09-10T09:20:18Z</time>
      </trkpt>
      <trkpt lat="45.15505" lon="6.33699">
        <ele>2172.927</ele>
        <time>2022-09-10T09:20:28Z</time>
      </trkpt>
      <trkpt lat="45.15504" lon="6.33701">
        <ele>2172.472</ele>
        <time>2022-09-10T09:20:38Z</time>
      </trkpt>
      <trkpt lat="45.15503" lon="6.337">
        <ele>2172.897</ele>
        <time>2022-09-10T09:20:48Z</time>
      </trkpt>
      <trkpt lat="45.15504" lon="6.337">
        <ele>2172.519</ele>
        <time>2022-09-10T09:20:57Z</time>
      </trkpt>
      <trkpt lat="45.15504" lon="6.337">
        <ele>2174.505</ele>
        <time>2022-09-10T09:21:07Z</time>
      </trkpt>
      <trkpt lat="45.15505" lon="6.33702">
        <ele>2175.573</ele>
        <time>2022-09-10T09:21:16Z</time>
      </trkpt>
      <trkpt lat="45.15505" lon="6.33702">
        <ele>2175.207</ele>
        <time>2022-09-10T09:21:25Z</time>
      </trkpt>
      <trkpt lat="45.15505" lon="6.33702">
        <ele>2175.12</ele>
        <time>2022-09-10T09:21:35Z</time>
      </trkpt>
      <trkpt lat="45.15505" lon="6.33702">
        <ele>2175.092</ele>
        <time>2022-09-10T09:21:44Z</time>
      </trkpt>
      <trkpt lat="45.15505" lon="6.33702">
        <ele>2175.073</ele>
        <time>2022-09-10T09:21:53Z</time>
      </trkpt>
      <trkpt lat="45.15505" lon="6.33702">
        <ele>2175.063</ele>
        <time>2022-09-10T09:22:02Z</time>
      </trkpt>
      <trkpt lat="45.15505" lon="6.33702">
        <ele>2174.986</ele>
        <time>2022-09-10T09:22:11Z</time>
      </trkpt>
      <trkpt lat="45.15504" lon="6.33702">
        <ele>2174.866</ele>
        <time>2022-09-10T09:22:21Z</time>
      </trkpt>
      <trkpt lat="45.15504" lon="6.33701">
        <ele>2172.05</ele>
        <time>2022-09-10T09:22:31Z</time>
      </trkpt>
      <trkpt lat="45.15504" lon="6.33701">
        <ele>2171.985</ele>
        <time>2022-09-10T09:22:41Z</time>
      </trkpt>
      <trkpt lat="45.15504" lon="6.33701">
        <ele>2171.976</ele>
        <time>2022-09-10T09:22:50Z</time>
      </trkpt>
      <trkpt lat="45.15503" lon="6.33702">
        <ele>2171.32</ele>
        <time>2022-09-10T09:23:00Z</time>
      </trkpt>
      <trkpt lat="45.15499" lon="6.33701">
        <ele>2172.727</ele>
        <time>2022-09-10T09:23:10Z</time>
      </trkpt>
      <trkpt lat="45.15489" lon="6.33703">
        <ele>2174.459</ele>
        <time>2022-09-10T09:23:19Z</time>
      </trkpt>
      <trkpt lat="45.15479" lon="6.33711">
        <ele>2175.711</ele>
        <time>2022-09-10T09:23:29Z</time>
      </trkpt>
      <trkpt lat="45.15468" lon="6.33719">
        <ele>2177.634</ele>
        <time>2022-09-10T09:23:39Z</time>
      </trkpt>
      <trkpt lat="45.15459" lon="6.33727">
        <ele>2179.644</ele>
        <time>2022-09-10T09:23:48Z</time>
      </trkpt>
      <trkpt lat="45.15452" lon="6.33743">
        <ele>2180.562</ele>
        <time>2022-09-10T09:23:58Z</time>
      </trkpt>
      <trkpt lat="45.15422" lon="6.33755">
        <ele>2178.967</ele>
        <time>2022-09-10T09:24:08Z</time>
      </trkpt>
      <trkpt lat="45.15409" lon="6.33755">
        <ele>2178.036</ele>
        <time>2022-09-10T09:24:18Z</time>
      </trkpt>
      <trkpt lat="45.15401" lon="6.33761">
        <ele>2179.979</ele>
        <time>2022-09-10T09:24:28Z</time>
      </trkpt>
      <trkpt lat="45.15396" lon="6.33767">
        <ele>2178.954</ele>
        <time>2022-09-10T09:24:38Z</time>
      </trkpt>
      <trkpt lat="45.15384" lon="6.33761">
        <ele>2176.574</ele>
        <time>2022-09-10T09:24:47Z</time>
      </trkpt>
      <trkpt lat="45.15374" lon="6.33767">
        <ele>2179.082</ele>
        <time>2022-09-10T09:24:56Z</time>
      </trkpt>
      <trkpt lat="45.15373" lon="6.33767">
        <ele>2178.591</ele>
        <time>2022-09-10T09:25:06Z</time>
      </trkpt>
      <trkpt lat="45.15372" lon="6.33768">
        <ele>2179.881</ele>
        <time>2022-09-10T09:25:16Z</time>
      </trkpt>
      <trkpt lat="45.15373" lon="6.33767">
        <ele>2179.25</ele>
        <time>2022-09-10T09:25:26Z</time>
      </trkpt>
      <trkpt lat="45.1537" lon="6.33761">
        <ele>2178.795</ele>
        <time>2022-09-10T09:25:36Z</time>
      </trkpt>
      <trkpt lat="45.15364" lon="6.33748">
        <ele>2178.56</ele>
        <time>2022-09-10T09:25:45Z</time>
      </trkpt>
      <trkpt lat="45.1536" lon="6.33736">
        <ele>2179.774</ele>
        <time>2022-09-10T09:25:54Z</time>
      </trkpt>
      <trkpt lat="45.15353" lon="6.33726">
        <ele>2179.725</ele>
        <time>2022-09-10T09:26:04Z</time>
      </trkpt>
      <trkpt lat="45.15351" lon="6.33728">
        <ele>2179.644</ele>
        <time>2022-09-10T09:26:13Z</time>
      </trkpt>
      <trkpt lat="45.15351" lon="6.33731">
        <ele>2181.774</ele>
        <time>2022-09-10T09:26:22Z</time>
      </trkpt>
      <trkpt lat="45.15351" lon="6.33732">
        <ele>2181.425</ele>
        <time>2022-09-10T09:26:31Z</time>
      </trkpt>
      <trkpt lat="45.1535" lon="6.33735">
        <ele>2182.476</ele>
        <time>2022-09-10T09:26:41Z</time>
      </trkpt>
      <trkpt lat="45.1535" lon="6.33735">
        <ele>2181.756</ele>
        <time>2022-09-10T09:26:50Z</time>
      </trkpt>
      <trkpt lat="45.15349" lon="6.33741">
        <ele>2181.318</ele>
        <time>2022-09-10T09:27:00Z</time>
      </trkpt>
      <trkpt lat="45.15346" lon="6.33743">
        <ele>2182.483</ele>
        <time>2022-09-10T09:27:10Z</time>
      </trkpt>
      <trkpt lat="45.15342" lon="6.33747">
        <ele>2183.464</ele>
        <time>2022-09-10T09:27:20Z</time>
      </trkpt>
      <trkpt lat="45.15339" lon="6.33748">
        <ele>2185.887</ele>
        <time>2022-09-10T09:27:30Z</time>
      </trkpt>
      <trkpt lat="45.15336" lon="6.33747">
        <ele>2187.207</ele>
        <time>2022-09-10T09:27:39Z</time>
      </trkpt>
      <trkpt lat="45.15334" lon="6.33742">
        <ele>2189.24</ele>
        <time>2022-09-10T09:27:48Z</time>
      </trkpt>
      <trkpt lat="45.1533" lon="6.33737">
        <ele>2193.051</ele>
        <time>2022-09-10T09:27:57Z</time>
      </trkpt>
      <trkpt lat="45.15327" lon="6.3374">
        <ele>2196.099</ele>
        <time>2022-09-10T09:28:07Z</time>
      </trkpt>
      <trkpt lat="45.15326" lon="6.33735">
        <ele>2198.832</ele>
        <time>2022-09-10T09:28:17Z</time>
      </trkpt>
      <trkpt lat="45.15323" lon="6.33731">
        <ele>2199.922</ele>
        <time>2022-09-10T09:28:27Z</time>
      </trkpt>
      <trkpt lat="45.15321" lon="6.33738">
        <ele>2202.579</ele>
        <time>2022-09-10T09:28:37Z</time>
      </trkpt>
      <trkpt lat="45.15318" lon="6.3373">
        <ele>2203.367</ele>
        <time>2022-09-10T09:28:46Z</time>
      </trkpt>
      <trkpt lat="45.15315" lon="6.33736">
        <ele>2204.237</ele>
        <time>2022-09-10T09:28:55Z</time>
      </trkpt>
      <trkpt lat="45.15313" lon="6.33735">
        <ele>2206.21</ele>
        <time>2022-09-10T09:29:05Z</time>
      </trkpt>
      <trkpt lat="45.15314" lon="6.33735">
        <ele>2207.243</ele>
        <time>2022-09-10T09:29:14Z</time>
      </trkpt>
      <trkpt lat="45.15314" lon="6.33736">
        <ele>2207.459</ele>
        <time>2022-09-10T09:29:23Z</time>
      </trkpt>
      <trkpt lat="45.15314" lon="6.33736">
        <ele>2207.462</ele>
        <time>2022-09-10T09:29:32Z</time>
      </trkpt>
      <trkpt lat="45.15314" lon="6.33736">
        <ele>2207.473</ele>
        <time>2022-09-10T09:29:41Z</time>
      </trkpt>
      <trkpt lat="45.15314" lon="6.33736">
        <ele>2207.466</ele>
        <time>2022-09-10T09:29:51Z</time>
      </trkpt>
      <trkpt lat="45.15314" lon="6.33736">
        <ele>2207.486</ele>
        <time>2022-09-10T09:30:01Z</time>
      </trkpt>
      <trkpt lat="45.15314" lon="6.33736">
        <ele>2207.515</ele>
        <time>2022-09-10T09:30:10Z</time>
      </trkpt>
      <trkpt lat="45.15314" lon="6.33736">
        <ele>2207.366</ele>
        <time>2022-09-10T09:30:20Z</time>
      </trkpt>
      <trkpt lat="45.15308" lon="6.33734">
        <ele>2211.105</ele>
        <time>2022-09-10T09:30:29Z</time>
      </trkpt>
      <trkpt lat="45.15302" lon="6.33739">
        <ele>2214.135</ele>
        <time>2022-09-10T09:30:39Z</time>
      </trkpt>
      <trkpt lat="45.15297" lon="6.3374">
        <ele>2215.145</ele>
        <time>2022-09-10T09:30:48Z</time>
      </trkpt>
      <trkpt lat="45.15291" lon="6.33738">
        <ele>2215.969</ele>
        <time>2022-09-10T09:30:58Z</time>
      </trkpt>
      <trkpt lat="45.15287" lon="6.33736">
        <ele>2216.847</ele>
        <time>2022-09-10T09:31:08Z</time>
      </trkpt>
      <trkpt lat="45.15283" lon="6.33733">
        <ele>2218.346</ele>
        <time>2022-09-10T09:31:17Z</time>
      </trkpt>
      <trkpt lat="45.15278" lon="6.33738">
        <ele>2220.024</ele>
        <time>2022-09-10T09:31:27Z</time>
      </trkpt>
      <trkpt lat="45.15273" lon="6.33737">
        <ele>2220.863</ele>
        <time>2022-09-10T09:31:36Z</time>
      </trkpt>
      <trkpt lat="45.15269" lon="6.3374">
        <ele>2222.536</ele>
        <time>2022-09-10T09:31:45Z</time>
      </trkpt>
      <trkpt lat="45.15263" lon="6.33745">
        <ele>2225.859</ele>
        <time>2022-09-10T09:31:55Z</time>
      </trkpt>
      <trkpt lat="45.15257" lon="6.33746">
        <ele>2228.959</ele>
        <time>2022-09-10T09:32:04Z</time>
      </trkpt>
      <trkpt lat="45.15252" lon="6.3375">
        <ele>2233.295</ele>
        <time>2022-09-10T09:32:14Z</time>
      </trkpt>
      <trkpt lat="45.15247" lon="6.33752">
        <ele>2235.381</ele>
        <time>2022-09-10T09:32:23Z</time>
      </trkpt>
      <trkpt lat="45.15242" lon="6.33758">
        <ele>2236.614</ele>
        <time>2022-09-10T09:32:32Z</time>
      </trkpt>
      <trkpt lat="45.15237" lon="6.33766">
        <ele>2238.484</ele>
        <time>2022-09-10T09:32:42Z</time>
      </trkpt>
      <trkpt lat="45.15231" lon="6.33772">
        <ele>2240.235</ele>
        <time>2022-09-10T09:32:52Z</time>
      </trkpt>
      <trkpt lat="45.15227" lon="6.33775">
        <ele>2240.404</ele>
        <time>2022-09-10T09:33:01Z</time>
      </trkpt>
      <trkpt lat="45.15227" lon="6.33775">
        <ele>2240.864</ele>
        <time>2022-09-10T09:33:10Z</time>
      </trkpt>
      <trkpt lat="45.15222" lon="6.33779">
        <ele>2242.297</ele>
        <time>2022-09-10T09:33:20Z</time>
      </trkpt>
      <trkpt lat="45.15216" lon="6.33784">
        <ele>2244.715</ele>
        <time>2022-09-10T09:33:29Z</time>
      </trkpt>
      <trkpt lat="45.15211" lon="6.33789">
        <ele>2246.148</ele>
        <time>2022-09-10T09:33:38Z</time>
      </trkpt>
      <trkpt lat="45.15204" lon="6.33796">
        <ele>2248.363</ele>
        <time>2022-09-10T09:33:48Z</time>
      </trkpt>
      <trkpt lat="45.15198" lon="6.33803">
        <ele>2250.201</ele>
        <time>2022-09-10T09:33:57Z</time>
      </trkpt>
      <trkpt lat="45.15192" lon="6.33808">
        <ele>2251.038</ele>
        <time>2022-09-10T09:34:06Z</time>
      </trkpt>
      <trkpt lat="45.15188" lon="6.33813">
        <ele>2252.408</ele>
        <time>2022-09-10T09:34:15Z</time>
      </trkpt>
      <trkpt lat="45.15187" lon="6.33816">
        <ele>2253.258</ele>
        <time>2022-09-10T09:34:25Z</time>
      </trkpt>
      <trkpt lat="45.15183" lon="6.33818">
        <ele>2252.779</ele>
        <time>2022-09-10T09:34:34Z</time>
      </trkpt>
      <trkpt lat="45.15182" lon="6.3382">
        <ele>2252.971</ele>
        <time>2022-09-10T09:34:43Z</time>
      </trkpt>
      <trkpt lat="45.15182" lon="6.33819">
        <ele>2253.486</ele>
        <time>2022-09-10T09:34:52Z</time>
      </trkpt>
      <trkpt lat="45.15182" lon="6.33819">
        <ele>2253.581</ele>
        <time>2022-09-10T09:35:02Z</time>
      </trkpt>
      <trkpt lat="45.15181" lon="6.3382">
        <ele>2253.204</ele>
        <time>2022-09-10T09:35:12Z</time>
      </trkpt>
      <trkpt lat="45.15181" lon="6.33819">
        <ele>2253.981</ele>
        <time>2022-09-10T09:35:21Z</time>
      </trkpt>
      <trkpt lat="45.15181" lon="6.33819">
        <ele>2253.682</ele>
        <time>2022-09-10T09:35:30Z</time>
      </trkpt>
      <trkpt lat="45.15181" lon="6.33819">
        <ele>2255.009</ele>
        <time>2022-09-10T09:35:40Z</time>
      </trkpt>
      <trkpt lat="45.1518" lon="6.33819">
        <ele>2255.281</ele>
        <time>2022-09-10T09:35:50Z</time>
      </trkpt>
      <trkpt lat="45.1518" lon="6.33822">
        <ele>2255.658</ele>
        <time>2022-09-10T09:36:00Z</time>
      </trkpt>
      <trkpt lat="45.15175" lon="6.33824">
        <ele>2255.071</ele>
        <time>2022-09-10T09:36:09Z</time>
      </trkpt>
      <trkpt lat="45.15166" lon="6.33831">
        <ele>2255.693</ele>
        <time>2022-09-10T09:36:18Z</time>
      </trkpt>
      <trkpt lat="45.15158" lon="6.33844">
        <ele>2257.702</ele>
        <time>2022-09-10T09:36:28Z</time>
      </trkpt>
      <trkpt lat="45.15154" lon="6.3385">
        <ele>2259.009</ele>
        <time>2022-09-10T09:36:38Z</time>
      </trkpt>
      <trkpt lat="45.15152" lon="6.33853">
        <ele>2259.138</ele>
        <time>2022-09-10T09:36:48Z</time>
      </trkpt>
      <trkpt lat="45.15147" lon="6.33858">
        <ele>2260.07</ele>
        <time>2022-09-10T09:36:57Z</time>
      </trkpt>
      <trkpt lat="45.15142" lon="6.33861">
        <ele>2259.982</ele>
        <time>2022-09-10T09:37:07Z</time>
      </trkpt>
      <trkpt lat="45.15133" lon="6.33867">
        <ele>2261.342</ele>
        <time>2022-09-10T09:37:17Z</time>
      </trkpt>
      <trkpt lat="45.15129" lon="6.33873">
        <ele>2262.793</ele>
        <time>2022-09-10T09:37:26Z</time>
      </trkpt>
      <trkpt lat="45.15127" lon="6.33874">
        <ele>2262.973</ele>
        <time>2022-09-10T09:37:36Z</time>
      </trkpt>
      <trkpt lat="45.15121" lon="6.33878">
        <ele>2264.965</ele>
        <time>2022-09-10T09:37:46Z</time>
      </trkpt>
      <trkpt lat="45.15115" lon="6.33888">
        <ele>2264.435</ele>
        <time>2022-09-10T09:37:55Z</time>
      </trkpt>
      <trkpt lat="45.15107" lon="6.33893">
        <ele>2265.002</ele>
        <time>2022-09-10T09:38:04Z</time>
      </trkpt>
      <trkpt lat="45.15099" lon="6.33897">
        <ele>2264.977</ele>
        <time>2022-09-10T09:38:14Z</time>
      </trkpt>
      <trkpt lat="45.15092" lon="6.33905">
        <ele>2267.987</ele>
        <time>2022-09-10T09:38:23Z</time>
      </trkpt>
      <trkpt lat="45.15083" lon="6.33914">
        <ele>2270.267</ele>
        <time>2022-09-10T09:38:33Z</time>
      </trkpt>
      <trkpt lat="45.15075" lon="6.33922">
        <ele>2272.353</ele>
        <time>2022-09-10T09:38:42Z</time>
      </trkpt>
      <trkpt lat="45.15068" lon="6.3393">
        <ele>2273.619</ele>
        <time>2022-09-10T09:38:51Z</time>
      </trkpt>
      <trkpt lat="45.15063" lon="6.33935">
        <ele>2274.582</ele>
        <time>2022-09-10T09:39:00Z</time>
      </trkpt>
      <trkpt lat="45.15059" lon="6.33941">
        <ele>2275.284</ele>
        <time>2022-09-10T09:39:10Z</time>
      </trkpt>
      <trkpt lat="45.15055" lon="6.33946">
        <ele>2274.055</ele>
        <time>2022-09-10T09:39:19Z</time>
      </trkpt>
      <trkpt lat="45.15049" lon="6.33951">
        <ele>2274.764</ele>
        <time>2022-09-10T09:39:29Z</time>
      </trkpt>
      <trkpt lat="45.15043" lon="6.33959">
        <ele>2276.246</ele>
        <time>2022-09-10T09:39:39Z</time>
      </trkpt>
      <trkpt lat="45.15037" lon="6.33965">
        <ele>2276.153</ele>
        <time>2022-09-10T09:39:48Z</time>
      </trkpt>
      <trkpt lat="45.15033" lon="6.3397">
        <ele>2276.957</ele>
        <time>2022-09-10T09:39:57Z</time>
      </trkpt>
      <trkpt lat="45.15027" lon="6.33978">
        <ele>2278.355</ele>
        <time>2022-09-10T09:40:07Z</time>
      </trkpt>
      <trkpt lat="45.1502" lon="6.33986">
        <ele>2280.417</ele>
        <time>2022-09-10T09:40:17Z</time>
      </trkpt>
      <trkpt lat="45.15012" lon="6.33993">
        <ele>2282.042</ele>
        <time>2022-09-10T09:40:26Z</time>
      </trkpt>
      <trkpt lat="45.15003" lon="6.34002">
        <ele>2284.357</ele>
        <time>2022-09-10T09:40:36Z</time>
      </trkpt>
      <trkpt lat="45.14995" lon="6.34011">
        <ele>2285.717</ele>
        <time>2022-09-10T09:40:45Z</time>
      </trkpt>
      <trkpt lat="45.14984" lon="6.3402">
        <ele>2287.979</ele>
        <time>2022-09-10T09:40:55Z</time>
      </trkpt>
      <trkpt lat="45.14975" lon="6.34027">
        <ele>2288.413</ele>
        <time>2022-09-10T09:41:04Z</time>
      </trkpt>
      <trkpt lat="45.14968" lon="6.34034">
        <ele>2289.431</ele>
        <time>2022-09-10T09:41:13Z</time>
      </trkpt>
      <trkpt lat="45.14959" lon="6.3404">
        <ele>2291.605</ele>
        <time>2022-09-10T09:41:23Z</time>
      </trkpt>
      <trkpt lat="45.14952" lon="6.34051">
        <ele>2293.956</ele>
        <time>2022-09-10T09:41:33Z</time>
      </trkpt>
      <trkpt lat="45.14952" lon="6.34052">
        <ele>2293.129</ele>
        <time>2022-09-10T09:41:43Z</time>
      </trkpt>
      <trkpt lat="45.14947" lon="6.34056">
        <ele>2293.395</ele>
        <time>2022-09-10T09:41:52Z</time>
      </trkpt>
      <trkpt lat="45.14938" lon="6.34063">
        <ele>2293.969</ele>
        <time>2022-09-10T09:42:01Z</time>
      </trkpt>
      <trkpt lat="45.14931" lon="6.3407">
        <ele>2294.877</ele>
        <time>2022-09-10T09:42:11Z</time>
      </trkpt>
      <trkpt lat="45.14923" lon="6.3408">
        <ele>2296.843</ele>
        <time>2022-09-10T09:42:20Z</time>
      </trkpt>
      <trkpt lat="45.14913" lon="6.34088">
        <ele>2299.729</ele>
        <time>2022-09-10T09:42:30Z</time>
      </trkpt>
      <trkpt lat="45.14904" lon="6.34096">
        <ele>2301.41</ele>
        <time>2022-09-10T09:42:39Z</time>
      </trkpt>
      <trkpt lat="45.14898" lon="6.34103">
        <ele>2302.907</ele>
        <time>2022-09-10T09:42:48Z</time>
      </trkpt>
      <trkpt lat="45.1489" lon="6.34109">
        <ele>2303.72</ele>
        <time>2022-09-10T09:42:58Z</time>
      </trkpt>
      <trkpt lat="45.14889" lon="6.3411">
        <ele>2304.663</ele>
        <time>2022-09-10T09:43:07Z</time>
      </trkpt>
      <trkpt lat="45.14889" lon="6.3411">
        <ele>2304.767</ele>
        <time>2022-09-10T09:43:17Z</time>
      </trkpt>
      <trkpt lat="45.14889" lon="6.3411">
        <ele>2304.753</ele>
        <time>2022-09-10T09:43:26Z</time>
      </trkpt>
      <trkpt lat="45.14889" lon="6.3411">
        <ele>2304.744</ele>
        <time>2022-09-10T09:43:35Z</time>
      </trkpt>
      <trkpt lat="45.14889" lon="6.3411">
        <ele>2304.726</ele>
        <time>2022-09-10T09:43:45Z</time>
      </trkpt>
      <trkpt lat="45.14889" lon="6.3411">
        <ele>2304.898</ele>
        <time>2022-09-10T09:43:55Z</time>
      </trkpt>
      <trkpt lat="45.14889" lon="6.34111">
        <ele>2304.241</ele>
        <time>2022-09-10T09:44:04Z</time>
      </trkpt>
      <trkpt lat="45.14889" lon="6.34111">
        <ele>2304.203</ele>
        <time>2022-09-10T09:44:14Z</time>
      </trkpt>
      <trkpt lat="45.14889" lon="6.34111">
        <ele>2303.928</ele>
        <time>2022-09-10T09:44:23Z</time>
      </trkpt>
      <trkpt lat="45.14879" lon="6.34119">
        <ele>2304.583</ele>
        <time>2022-09-10T09:44:33Z</time>
      </trkpt>
      <trkpt lat="45.14873" lon="6.34123">
        <ele>2306.491</ele>
        <time>2022-09-10T09:44:43Z</time>
      </trkpt>
      <trkpt lat="45.14868" lon="6.34131">
        <ele>2305.723</ele>
        <time>2022-09-10T09:44:53Z</time>
      </trkpt>
      <trkpt lat="45.14865" lon="6.34133">
        <ele>2305.306</ele>
        <time>2022-09-10T09:45:02Z</time>
      </trkpt>
      <trkpt lat="45.14859" lon="6.34138">
        <ele>2305.858</ele>
        <time>2022-09-10T09:45:12Z</time>
      </trkpt>
      <trkpt lat="45.14853" lon="6.34145">
        <ele>2307.568</ele>
        <time>2022-09-10T09:45:22Z</time>
      </trkpt>
      <trkpt lat="45.14847" lon="6.34152">
        <ele>2308.406</ele>
        <time>2022-09-10T09:45:31Z</time>
      </trkpt>
      <trkpt lat="45.14838" lon="6.34155">
        <ele>2309.032</ele>
        <time>2022-09-10T09:45:40Z</time>
      </trkpt>
      <trkpt lat="45.1483" lon="6.34156">
        <ele>2310.419</ele>
        <time>2022-09-10T09:45:49Z</time>
      </trkpt>
      <trkpt lat="45.14824" lon="6.34159">
        <ele>2313.038</ele>
        <time>2022-09-10T09:45:58Z</time>
      </trkpt>
      <trkpt lat="45.14818" lon="6.34163">
        <ele>2315.589</ele>
        <time>2022-09-10T09:46:08Z</time>
      </trkpt>
      <trkpt lat="45.14814" lon="6.34167">
        <ele>2317.028</ele>
        <time>2022-09-10T09:46:17Z</time>
      </trkpt>
      <trkpt lat="45.14808" lon="6.3417">
        <ele>2319.111</ele>
        <time>2022-09-10T09:46:26Z</time>
      </trkpt>
      <trkpt lat="45.14802" lon="6.34171">
        <ele>2319.788</ele>
        <time>2022-09-10T09:46:35Z</time>
      </trkpt>
      <trkpt lat="45.14794" lon="6.34177">
        <ele>2320.373</ele>
        <time>2022-09-10T09:46:45Z</time>
      </trkpt>
      <trkpt lat="45.14789" lon="6.34182">
        <ele>2321.299</ele>
        <time>2022-09-10T09:46:54Z</time>
      </trkpt>
      <trkpt lat="45.14789" lon="6.34182">
        <ele>2322.226</ele>
        <time>2022-09-10T09:47:04Z</time>
      </trkpt>
      <trkpt lat="45.14788" lon="6.34183">
        <ele>2322.765</ele>
        <time>2022-09-10T09:47:14Z</time>
      </trkpt>
      <trkpt lat="45.14783" lon="6.34182">
        <ele>2323.396</ele>
        <time>2022-09-10T09:47:23Z</time>
      </trkpt>
      <trkpt lat="45.14779" lon="6.34185">
        <ele>2324.868</ele>
        <time>2022-09-10T09:47:32Z</time>
      </trkpt>
      <trkpt lat="45.14772" lon="6.34188">
        <ele>2325.51</ele>
        <time>2022-09-10T09:47:42Z</time>
      </trkpt>
      <trkpt lat="45.14767" lon="6.3419">
        <ele>2326.683</ele>
        <time>2022-09-10T09:47:51Z</time>
      </trkpt>
      <trkpt lat="45.14762" lon="6.34192">
        <ele>2328.247</ele>
        <time>2022-09-10T09:48:01Z</time>
      </trkpt>
      <trkpt lat="45.14758" lon="6.34193">
        <ele>2330.3</ele>
        <time>2022-09-10T09:48:10Z</time>
      </trkpt>
      <trkpt lat="45.14756" lon="6.34199">
        <ele>2332.527</ele>
        <time>2022-09-10T09:48:19Z</time>
      </trkpt>
      <trkpt lat="45.14751" lon="6.34203">
        <ele>2334.846</ele>
        <time>2022-09-10T09:48:29Z</time>
      </trkpt>
      <trkpt lat="45.14748" lon="6.34208">
        <ele>2336.909</ele>
        <time>2022-09-10T09:48:39Z</time>
      </trkpt>
      <trkpt lat="45.14742" lon="6.34214">
        <ele>2339.406</ele>
        <time>2022-09-10T09:48:48Z</time>
      </trkpt>
      <trkpt lat="45.14739" lon="6.34214">
        <ele>2339.422</ele>
        <time>2022-09-10T09:48:57Z</time>
      </trkpt>
      <trkpt lat="45.14733" lon="6.34217">
        <ele>2341.562</ele>
        <time>2022-09-10T09:49:07Z</time>
      </trkpt>
      <trkpt lat="45.14729" lon="6.34218">
        <ele>2341.879</ele>
        <time>2022-09-10T09:49:16Z</time>
      </trkpt>
      <trkpt lat="45.14724" lon="6.34221">
        <ele>2342.332</ele>
        <time>2022-09-10T09:49:25Z</time>
      </trkpt>
      <trkpt lat="45.14724" lon="6.34222">
        <ele>2342.795</ele>
        <time>2022-09-10T09:49:35Z</time>
      </trkpt>
      <trkpt lat="45.14724" lon="6.34223">
        <ele>2343.054</ele>
        <time>2022-09-10T09:49:44Z</time>
      </trkpt>
      <trkpt lat="45.14721" lon="6.34223">
        <ele>2342.896</ele>
        <time>2022-09-10T09:49:54Z</time>
      </trkpt>
      <trkpt lat="45.1471" lon="6.3423">
        <ele>2344.246</ele>
        <time>2022-09-10T09:50:04Z</time>
      </trkpt>
      <trkpt lat="45.14706" lon="6.3423">
        <ele>2344.631</ele>
        <time>2022-09-10T09:50:13Z</time>
      </trkpt>
      <trkpt lat="45.14698" lon="6.34232">
        <ele>2345.483</ele>
        <time>2022-09-10T09:50:22Z</time>
      </trkpt>
      <trkpt lat="45.14691" lon="6.34235">
        <ele>2346.432</ele>
        <time>2022-09-10T09:50:32Z</time>
      </trkpt>
      <trkpt lat="45.14684" lon="6.34236">
        <ele>2347.369</ele>
        <time>2022-09-10T09:50:41Z</time>
      </trkpt>
      <trkpt lat="45.14679" lon="6.34236">
        <ele>2347.87</ele>
        <time>2022-09-10T09:50:50Z</time>
      </trkpt>
      <trkpt lat="45.14671" lon="6.34242">
        <ele>2347.898</ele>
        <time>2022-09-10T09:51:00Z</time>
      </trkpt>
      <trkpt lat="45.14664" lon="6.3425">
        <ele>2349.213</ele>
        <time>2022-09-10T09:51:09Z</time>
      </trkpt>
      <trkpt lat="45.1466" lon="6.34252">
        <ele>2347.597</ele>
        <time>2022-09-10T09:51:19Z</time>
      </trkpt>
      <trkpt lat="45.14654" lon="6.34256">
        <ele>2349.722</ele>
        <time>2022-09-10T09:51:29Z</time>
      </trkpt>
      <trkpt lat="45.1465" lon="6.34265">
        <ele>2351.639</ele>
        <time>2022-09-10T09:51:39Z</time>
      </trkpt>
      <trkpt lat="45.14644" lon="6.3427">
        <ele>2354.678</ele>
        <time>2022-09-10T09:51:48Z</time>
      </trkpt>
      <trkpt lat="45.14637" lon="6.3427">
        <ele>2354.477</ele>
        <time>2022-09-10T09:51:57Z</time>
      </trkpt>
      <trkpt lat="45.1463" lon="6.34269">
        <ele>2355.292</ele>
        <time>2022-09-10T09:52:07Z</time>
      </trkpt>
      <trkpt lat="45.14623" lon="6.34275">
        <ele>2356.741</ele>
        <time>2022-09-10T09:52:16Z</time>
      </trkpt>
      <trkpt lat="45.14616" lon="6.34279">
        <ele>2358.293</ele>
        <time>2022-09-10T09:52:25Z</time>
      </trkpt>
      <trkpt lat="45.14609" lon="6.34286">
        <ele>2359.278</ele>
        <time>2022-09-10T09:52:35Z</time>
      </trkpt>
      <trkpt lat="45.14601" lon="6.34292">
        <ele>2360.664</ele>
        <time>2022-09-10T09:52:45Z</time>
      </trkpt>
      <trkpt lat="45.14595" lon="6.34294">
        <ele>2360.711</ele>
        <time>2022-09-10T09:52:54Z</time>
      </trkpt>
      <trkpt lat="45.14593" lon="6.34295">
        <ele>2361.74</ele>
        <time>2022-09-10T09:53:04Z</time>
      </trkpt>
      <trkpt lat="45.14592" lon="6.34295">
        <ele>2364.036</ele>
        <time>2022-09-10T09:53:14Z</time>
      </trkpt>
      <trkpt lat="45.1459" lon="6.34295">
        <ele>2364.149</ele>
        <time>2022-09-10T09:53:23Z</time>
      </trkpt>
      <trkpt lat="45.1459" lon="6.34295">
        <ele>2364.69</ele>
        <time>2022-09-10T09:53:33Z</time>
      </trkpt>
      <trkpt lat="45.1459" lon="6.34295">
        <ele>2364.712</ele>
        <time>2022-09-10T09:53:42Z</time>
      </trkpt>
      <trkpt lat="45.1459" lon="6.34295">
        <ele>2364.76</ele>
        <time>2022-09-10T09:53:52Z</time>
      </trkpt>
      <trkpt lat="45.1459" lon="6.34295">
        <ele>2364.798</ele>
        <time>2022-09-10T09:54:01Z</time>
      </trkpt>
      <trkpt lat="45.14589" lon="6.34296">
        <ele>2365.571</ele>
        <time>2022-09-10T09:54:11Z</time>
      </trkpt>
      <trkpt lat="45.14588" lon="6.34296">
        <ele>2365.855</ele>
        <time>2022-09-10T09:54:20Z</time>
      </trkpt>
      <trkpt lat="45.1459" lon="6.34295">
        <ele>2364.273</ele>
        <time>2022-09-10T09:54:29Z</time>
      </trkpt>
      <trkpt lat="45.14586" lon="6.34292">
        <ele>2364.977</ele>
        <time>2022-09-10T09:54:39Z</time>
      </trkpt>
      <trkpt lat="45.1459" lon="6.34287">
        <ele>2365.269</ele>
        <time>2022-09-10T09:54:48Z</time>
      </trkpt>
      <trkpt lat="45.14594" lon="6.34274">
        <ele>2363.808</ele>
        <time>2022-09-10T09:54:57Z</time>
      </trkpt>
      <trkpt lat="45.14595" lon="6.34269">
        <ele>2363.773</ele>
        <time>2022-09-10T09:55:07Z</time>
      </trkpt>
      <trkpt lat="45.14596" lon="6.3427">
        <ele>2363.44</ele>
        <time>2022-09-10T09:55:17Z</time>
      </trkpt>
      <trkpt lat="45.14598" lon="6.34267">
        <ele>2363.49</ele>
        <time>2022-09-10T09:55:26Z</time>
      </trkpt>
      <trkpt lat="45.14603" lon="6.34265">
        <ele>2362.599</ele>
        <time>2022-09-10T09:55:36Z</time>
      </trkpt>
      <trkpt lat="45.14607" lon="6.34263">
        <ele>2362.89</ele>
        <time>2022-09-10T09:55:45Z</time>
      </trkpt>
      <trkpt lat="45.14609" lon="6.34258">
        <ele>2363.261</ele>
        <time>2022-09-10T09:55:55Z</time>
      </trkpt>
      <trkpt lat="45.14611" lon="6.34251">
        <ele>2364.542</ele>
        <time>2022-09-10T09:56:05Z</time>
      </trkpt>
      <trkpt lat="45.14615" lon="6.34244">
        <ele>2362.877</ele>
        <time>2022-09-10T09:56:14Z</time>
      </trkpt>
      <trkpt lat="45.14619" lon="6.34241">
        <ele>2362.076</ele>
        <time>2022-09-10T09:56:23Z</time>
      </trkpt>
      <trkpt lat="45.14619" lon="6.34237">
        <ele>2360.716</ele>
        <time>2022-09-10T09:56:33Z</time>
      </trkpt>
      <trkpt lat="45.14625" lon="6.34214">
        <ele>2357.327</ele>
        <time>2022-09-10T09:56:43Z</time>
      </trkpt>
      <trkpt lat="45.14624" lon="6.34208">
        <ele>2356.815</ele>
        <time>2022-09-10T09:56:52Z</time>
      </trkpt>
      <trkpt lat="45.14626" lon="6.34203">
        <ele>2357.343</ele>
        <time>2022-09-10T09:57:02Z</time>
      </trkpt>
      <trkpt lat="45.14628" lon="6.34197">
        <ele>2357.706</ele>
        <time>2022-09-10T09:57:12Z</time>
      </trkpt>
      <trkpt lat="45.14626" lon="6.34189">
        <ele>2356.967</ele>
        <time>2022-09-10T09:57:22Z</time>
      </trkpt>
      <trkpt lat="45.14627" lon="6.34182">
        <ele>2356.98</ele>
        <time>2022-09-10T09:57:32Z</time>
      </trkpt>
      <trkpt lat="45.14628" lon="6.34182">
        <ele>2356.911</ele>
        <time>2022-09-10T09:57:41Z</time>
      </trkpt>
      <trkpt lat="45.14628" lon="6.34183">
        <ele>2357.352</ele>
        <time>2022-09-10T09:57:51Z</time>
      </trkpt>
      <trkpt lat="45.14624" lon="6.34177">
        <ele>2359.304</ele>
        <time>2022-09-10T09:58:01Z</time>
      </trkpt>
      <trkpt lat="45.14619" lon="6.34171">
        <ele>2359.566</ele>
        <time>2022-09-10T09:58:11Z</time>
      </trkpt>
      <trkpt lat="45.14616" lon="6.34167">
        <ele>2360.097</ele>
        <time>2022-09-10T09:58:20Z</time>
      </trkpt>
      <trkpt lat="45.14613" lon="6.34163">
        <ele>2361.502</ele>
        <time>2022-09-10T09:58:30Z</time>
      </trkpt>
      <trkpt lat="45.14612" lon="6.34165">
        <ele>2360.681</ele>
        <time>2022-09-10T09:58:40Z</time>
      </trkpt>
      <trkpt lat="45.1461" lon="6.34166">
        <ele>2362.425</ele>
        <time>2022-09-10T09:58:49Z</time>
      </trkpt>
      <trkpt lat="45.14606" lon="6.34164">
        <ele>2365.141</ele>
        <time>2022-09-10T09:58:58Z</time>
      </trkpt>
      <trkpt lat="45.14602" lon="6.34158">
        <ele>2367.695</ele>
        <time>2022-09-10T09:59:08Z</time>
      </trkpt>
      <trkpt lat="45.14599" lon="6.34152">
        <ele>2369.491</ele>
        <time>2022-09-10T09:59:17Z</time>
      </trkpt>
      <trkpt lat="45.14596" lon="6.34155">
        <ele>2368.067</ele>
        <time>2022-09-10T09:59:27Z</time>
      </trkpt>
      <trkpt lat="45.14593" lon="6.34157">
        <ele>2368.84</ele>
        <time>2022-09-10T09:59:36Z</time>
      </trkpt>
      <trkpt lat="45.14592" lon="6.34155">
        <ele>2367.766</ele>
        <time>2022-09-10T09:59:46Z</time>
      </trkpt>
      <trkpt lat="45.14592" lon="6.34155">
        <ele>2367.834</ele>
        <time>2022-09-10T09:59:56Z</time>
      </trkpt>
      <trkpt lat="45.14588" lon="6.34157">
        <ele>2368.897</ele>
        <time>2022-09-10T10:00:05Z</time>
      </trkpt>
      <trkpt lat="45.14585" lon="6.34154">
        <ele>2370.526</ele>
        <time>2022-09-10T10:00:14Z</time>
      </trkpt>
      <trkpt lat="45.14583" lon="6.34154">
        <ele>2372.145</ele>
        <time>2022-09-10T10:00:24Z</time>
      </trkpt>
      <trkpt lat="45.14579" lon="6.34156">
        <ele>2375.408</ele>
        <time>2022-09-10T10:00:33Z</time>
      </trkpt>
      <trkpt lat="45.14578" lon="6.34156">
        <ele>2377.065</ele>
        <time>2022-09-10T10:00:43Z</time>
      </trkpt>
      <trkpt lat="45.14576" lon="6.34148">
        <ele>2379.669</ele>
        <time>2022-09-10T10:00:53Z</time>
      </trkpt>
      <trkpt lat="45.14574" lon="6.34138">
        <ele>2380.963</ele>
        <time>2022-09-10T10:01:02Z</time>
      </trkpt>
      <trkpt lat="45.14574" lon="6.34127">
        <ele>2384.33</ele>
        <time>2022-09-10T10:01:12Z</time>
      </trkpt>
      <trkpt lat="45.1457" lon="6.3412">
        <ele>2385.873</ele>
        <time>2022-09-10T10:01:21Z</time>
      </trkpt>
      <trkpt lat="45.14565" lon="6.34115">
        <ele>2387.644</ele>
        <time>2022-09-10T10:01:30Z</time>
      </trkpt>
      <trkpt lat="45.14559" lon="6.34109">
        <ele>2390.348</ele>
        <time>2022-09-10T10:01:39Z</time>
      </trkpt>
      <trkpt lat="45.14553" lon="6.34103">
        <ele>2392.312</ele>
        <time>2022-09-10T10:01:49Z</time>
      </trkpt>
      <trkpt lat="45.14553" lon="6.34098">
        <ele>2392.222</ele>
        <time>2022-09-10T10:01:59Z</time>
      </trkpt>
      <trkpt lat="45.14554" lon="6.34098">
        <ele>2392.062</ele>
        <time>2022-09-10T10:02:08Z</time>
      </trkpt>
      <trkpt lat="45.14552" lon="6.34099">
        <ele>2391.282</ele>
        <time>2022-09-10T10:02:18Z</time>
      </trkpt>
      <trkpt lat="45.14552" lon="6.34099">
        <ele>2391.385</ele>
        <time>2022-09-10T10:02:28Z</time>
      </trkpt>
      <trkpt lat="45.14552" lon="6.34099">
        <ele>2391.476</ele>
        <time>2022-09-10T10:02:38Z</time>
      </trkpt>
      <trkpt lat="45.14552" lon="6.34099">
        <ele>2391.475</ele>
        <time>2022-09-10T10:02:48Z</time>
      </trkpt>
      <trkpt lat="45.14552" lon="6.34099">
        <ele>2391.468</ele>
        <time>2022-09-10T10:02:58Z</time>
      </trkpt>
      <trkpt lat="45.14552" lon="6.34099">
        <ele>2391.459</ele>
        <time>2022-09-10T10:03:07Z</time>
      </trkpt>
      <trkpt lat="45.14555" lon="6.34098">
        <ele>2395.361</ele>
        <time>2022-09-10T10:03:17Z</time>
      </trkpt>
      <trkpt lat="45.14555" lon="6.34098">
        <ele>2393.946</ele>
        <time>2022-09-10T10:03:26Z</time>
      </trkpt>
      <trkpt lat="45.14551" lon="6.34101">
        <ele>2389.254</ele>
        <time>2022-09-10T10:03:35Z</time>
      </trkpt>
      <trkpt lat="45.14552" lon="6.34099">
        <ele>2388.88</ele>
        <time>2022-09-10T10:03:45Z</time>
      </trkpt>
      <trkpt lat="45.14552" lon="6.34099">
        <ele>2388.941</ele>
        <time>2022-09-10T10:03:54Z</time>
      </trkpt>
      <trkpt lat="45.14551" lon="6.34099">
        <ele>2390.79</ele>
        <time>2022-09-10T10:04:04Z</time>
      </trkpt>
      <trkpt lat="45.1455" lon="6.34099">
        <ele>2390.296</ele>
        <time>2022-09-10T10:04:13Z</time>
      </trkpt>
      <trkpt lat="45.14551" lon="6.34099">
        <ele>2389.791</ele>
        <time>2022-09-10T10:04:23Z</time>
      </trkpt>
      <trkpt lat="45.14551" lon="6.34097">
        <ele>2390.014</ele>
        <time>2022-09-10T10:04:33Z</time>
      </trkpt>
      <trkpt lat="45.14551" lon="6.34097">
        <ele>2390.002</ele>
        <time>2022-09-10T10:04:43Z</time>
      </trkpt>
      <trkpt lat="45.14551" lon="6.34097">
        <ele>2390.002</ele>
        <time>2022-09-10T10:04:53Z</time>
      </trkpt>
      <trkpt lat="45.14551" lon="6.34097">
        <ele>2390.002</ele>
        <time>2022-09-10T10:05:02Z</time>
      </trkpt>
      <trkpt lat="45.14551" lon="6.34097">
        <ele>2390.012</ele>
        <time>2022-09-10T10:05:11Z</time>
      </trkpt>
      <trkpt lat="45.14551" lon="6.34097">
        <ele>2390.005</ele>
        <time>2022-09-10T10:05:20Z</time>
      </trkpt>
      <trkpt lat="45.14551" lon="6.34097">
        <ele>2390.001</ele>
        <time>2022-09-10T10:05:29Z</time>
      </trkpt>
      <trkpt lat="45.1455" lon="6.34097">
        <ele>2389.064</ele>
        <time>2022-09-10T10:05:38Z</time>
      </trkpt>
      <trkpt lat="45.1455" lon="6.34097">
        <ele>2388.65</ele>
        <time>2022-09-10T10:05:47Z</time>
      </trkpt>
      <trkpt lat="45.1455" lon="6.34097">
        <ele>2388.688</ele>
        <time>2022-09-10T10:05:57Z</time>
      </trkpt>
      <trkpt lat="45.1455" lon="6.34097">
        <ele>2388.686</ele>
        <time>2022-09-10T10:06:06Z</time>
      </trkpt>
      <trkpt lat="45.1455" lon="6.34097">
        <ele>2388.674</ele>
        <time>2022-09-10T10:06:15Z</time>
      </trkpt>
      <trkpt lat="45.1455" lon="6.34097">
        <ele>2388.669</ele>
        <time>2022-09-10T10:06:25Z</time>
      </trkpt>
      <trkpt lat="45.1455" lon="6.34097">
        <ele>2387.864</ele>
        <time>2022-09-10T10:06:35Z</time>
      </trkpt>
      <trkpt lat="45.1455" lon="6.34097">
        <ele>2387.47</ele>
        <time>2022-09-10T10:06:45Z</time>
      </trkpt>
      <trkpt lat="45.1455" lon="6.34097">
        <ele>2387.448</ele>
        <time>2022-09-10T10:06:54Z</time>
      </trkpt>
      <trkpt lat="45.1455" lon="6.34097">
        <ele>2387.455</ele>
        <time>2022-09-10T10:07:03Z</time>
      </trkpt>
      <trkpt lat="45.1455" lon="6.34097">
        <ele>2387.467</ele>
        <time>2022-09-10T10:07:12Z</time>
      </trkpt>
      <trkpt lat="45.1455" lon="6.34097">
        <ele>2387.483</ele>
        <time>2022-09-10T10:07:21Z</time>
      </trkpt>
      <trkpt lat="45.1455" lon="6.34097">
        <ele>2387.488</ele>
        <time>2022-09-10T10:07:30Z</time>
      </trkpt>
      <trkpt lat="45.1455" lon="6.34098">
        <ele>2388.372</ele>
        <time>2022-09-10T10:07:39Z</time>
      </trkpt>
      <trkpt lat="45.14551" lon="6.34099">
        <ele>2388.28</ele>
        <time>2022-09-10T10:07:49Z</time>
      </trkpt>
      <trkpt lat="45.14551" lon="6.34099">
        <ele>2388.282</ele>
        <time>2022-09-10T10:07:59Z</time>
      </trkpt>
      <trkpt lat="45.14551" lon="6.34097">
        <ele>2389.216</ele>
        <time>2022-09-10T10:08:09Z</time>
      </trkpt>
      <trkpt lat="45.1455" lon="6.34097">
        <ele>2389.045</ele>
        <time>2022-09-10T10:08:18Z</time>
      </trkpt>
      <trkpt lat="45.1455" lon="6.34097">
        <ele>2389.234</ele>
        <time>2022-09-10T10:08:28Z</time>
      </trkpt>
      <trkpt lat="45.1455" lon="6.34097">
        <ele>2389.238</ele>
        <time>2022-09-10T10:08:38Z</time>
      </trkpt>
      <trkpt lat="45.1455" lon="6.34097">
        <ele>2389.244</ele>
        <time>2022-09-10T10:08:48Z</time>
      </trkpt>
      <trkpt lat="45.14551" lon="6.34099">
        <ele>2388.863</ele>
        <time>2022-09-10T10:08:58Z</time>
      </trkpt>
      <trkpt lat="45.14551" lon="6.34099">
        <ele>2389.618</ele>
        <time>2022-09-10T10:09:07Z</time>
      </trkpt>
      <trkpt lat="45.14551" lon="6.34099">
        <ele>2389.197</ele>
        <time>2022-09-10T10:09:17Z</time>
      </trkpt>
      <trkpt lat="45.14551" lon="6.34098">
        <ele>2388.987</ele>
        <time>2022-09-10T10:09:27Z</time>
      </trkpt>
      <trkpt lat="45.1455" lon="6.34098">
        <ele>2388.764</ele>
        <time>2022-09-10T10:09:37Z</time>
      </trkpt>
      <trkpt lat="45.14549" lon="6.34098">
        <ele>2389.495</ele>
        <time>2022-09-10T10:09:47Z</time>
      </trkpt>
      <trkpt lat="45.1455" lon="6.34098">
        <ele>2388.952</ele>
        <time>2022-09-10T10:09:57Z</time>
      </trkpt>
      <trkpt lat="45.14552" lon="6.34098">
        <ele>2389.652</ele>
        <time>2022-09-10T10:10:06Z</time>
      </trkpt>
      <trkpt lat="45.14552" lon="6.34098">
        <ele>2389.579</ele>
        <time>2022-09-10T10:10:15Z</time>
      </trkpt>
      <trkpt lat="45.14552" lon="6.34098">
        <ele>2389.583</ele>
        <time>2022-09-10T10:10:24Z</time>
      </trkpt>
      <trkpt lat="45.14552" lon="6.34098">
        <ele>2389.59</ele>
        <time>2022-09-10T10:10:34Z</time>
      </trkpt>
      <trkpt lat="45.14552" lon="6.34098">
        <ele>2389.58</ele>
        <time>2022-09-10T10:10:43Z</time>
      </trkpt>
      <trkpt lat="45.14552" lon="6.34098">
        <ele>2389.571</ele>
        <time>2022-09-10T10:10:53Z</time>
      </trkpt>
      <trkpt lat="45.14552" lon="6.34098">
        <ele>2389.562</ele>
        <time>2022-09-10T10:11:03Z</time>
      </trkpt>
      <trkpt lat="45.14552" lon="6.34098">
        <ele>2389.573</ele>
        <time>2022-09-10T10:11:12Z</time>
      </trkpt>
      <trkpt lat="45.14552" lon="6.34098">
        <ele>2389.572</ele>
        <time>2022-09-10T10:11:22Z</time>
      </trkpt>
      <trkpt lat="45.14552" lon="6.34098">
        <ele>2389.565</ele>
        <time>2022-09-10T10:11:31Z</time>
      </trkpt>
      <trkpt lat="45.14552" lon="6.34098">
        <ele>2389.575</ele>
        <time>2022-09-10T10:11:40Z</time>
      </trkpt>
      <trkpt lat="45.14552" lon="6.34098">
        <ele>2389.088</ele>
        <time>2022-09-10T10:11:50Z</time>
      </trkpt>
      <trkpt lat="45.14552" lon="6.34099">
        <ele>2390.203</ele>
        <time>2022-09-10T10:11:59Z</time>
      </trkpt>
      <trkpt lat="45.14551" lon="6.34099">
        <ele>2391.882</ele>
        <time>2022-09-10T10:12:09Z</time>
      </trkpt>
      <trkpt lat="45.14551" lon="6.34099">
        <ele>2391.886</ele>
        <time>2022-09-10T10:12:19Z</time>
      </trkpt>
      <trkpt lat="45.14551" lon="6.34099">
        <ele>2391.89</ele>
        <time>2022-09-10T10:12:29Z</time>
      </trkpt>
      <trkpt lat="45.14551" lon="6.34099">
        <ele>2391.19</ele>
        <time>2022-09-10T10:12:38Z</time>
      </trkpt>
      <trkpt lat="45.14551" lon="6.34099">
        <ele>2391.393</ele>
        <time>2022-09-10T10:12:47Z</time>
      </trkpt>
      <trkpt lat="45.14551" lon="6.34099">
        <ele>2391.378</ele>
        <time>2022-09-10T10:12:57Z</time>
      </trkpt>
      <trkpt lat="45.14552" lon="6.34098">
        <ele>2391.226</ele>
        <time>2022-09-10T10:13:07Z</time>
      </trkpt>
      <trkpt lat="45.14552" lon="6.34098">
        <ele>2391.113</ele>
        <time>2022-09-10T10:13:16Z</time>
      </trkpt>
      <trkpt lat="45.14552" lon="6.34098">
        <ele>2391.108</ele>
        <time>2022-09-10T10:13:26Z</time>
      </trkpt>
      <trkpt lat="45.14552" lon="6.34098">
        <ele>2391.094</ele>
        <time>2022-09-10T10:13:36Z</time>
      </trkpt>
      <trkpt lat="45.14552" lon="6.34098">
        <ele>2391.094</ele>
        <time>2022-09-10T10:13:46Z</time>
      </trkpt>
      <trkpt lat="45.14552" lon="6.34098">
        <ele>2391.091</ele>
        <time>2022-09-10T10:13:55Z</time>
      </trkpt>
      <trkpt lat="45.14552" lon="6.34098">
        <ele>2391.097</ele>
        <time>2022-09-10T10:14:04Z</time>
      </trkpt>
      <trkpt lat="45.14552" lon="6.34098">
        <ele>2391.091</ele>
        <time>2022-09-10T10:14:13Z</time>
      </trkpt>
      <trkpt lat="45.14552" lon="6.34098">
        <ele>2391.083</ele>
        <time>2022-09-10T10:14:23Z</time>
      </trkpt>
      <trkpt lat="45.14552" lon="6.34098">
        <ele>2391.068</ele>
        <time>2022-09-10T10:14:33Z</time>
      </trkpt>
      <trkpt lat="45.14552" lon="6.34098">
        <ele>2391.063</ele>
        <time>2022-09-10T10:14:43Z</time>
      </trkpt>
      <trkpt lat="45.14552" lon="6.34098">
        <ele>2391.062</ele>
        <time>2022-09-10T10:14:53Z</time>
      </trkpt>
      <trkpt lat="45.14552" lon="6.34098">
        <ele>2391.059</ele>
        <time>2022-09-10T10:15:03Z</time>
      </trkpt>
      <trkpt lat="45.14552" lon="6.34098">
        <ele>2391.051</ele>
        <time>2022-09-10T10:15:12Z</time>
      </trkpt>
      <trkpt lat="45.14552" lon="6.34098">
        <ele>2391.039</ele>
        <time>2022-09-10T10:15:22Z</time>
      </trkpt>
      <trkpt lat="45.14552" lon="6.34098">
        <ele>2391.031</ele>
        <time>2022-09-10T10:15:32Z</time>
      </trkpt>
      <trkpt lat="45.14552" lon="6.34098">
        <ele>2391.027</ele>
        <time>2022-09-10T10:15:41Z</time>
      </trkpt>
      <trkpt lat="45.14552" lon="6.34098">
        <ele>2391.021</ele>
        <time>2022-09-10T10:15:51Z</time>
      </trkpt>
      <trkpt lat="45.14552" lon="6.34098">
        <ele>2391.018</ele>
        <time>2022-09-10T10:16:00Z</time>
      </trkpt>
      <trkpt lat="45.14552" lon="6.34098">
        <ele>2391.011</ele>
        <time>2022-09-10T10:16:10Z</time>
      </trkpt>
      <trkpt lat="45.14552" lon="6.34098">
        <ele>2391.008</ele>
        <time>2022-09-10T10:16:20Z</time>
      </trkpt>
      <trkpt lat="45.14552" lon="6.34098">
        <ele>2390.999</ele>
        <time>2022-09-10T10:16:29Z</time>
      </trkpt>
      <trkpt lat="45.14552" lon="6.34098">
        <ele>2390.998</ele>
        <time>2022-09-10T10:16:39Z</time>
      </trkpt>
      <trkpt lat="45.14552" lon="6.34098">
        <ele>2391.046</ele>
        <time>2022-09-10T10:16:48Z</time>
      </trkpt>
      <trkpt lat="45.1455" lon="6.34096">
        <ele>2390.138</ele>
        <time>2022-09-10T10:16:57Z</time>
      </trkpt>
      <trkpt lat="45.1455" lon="6.34096">
        <ele>2390.184</ele>
        <time>2022-09-10T10:17:06Z</time>
      </trkpt>
      <trkpt lat="45.14553" lon="6.34094">
        <ele>2389.901</ele>
        <time>2022-09-10T10:17:16Z</time>
      </trkpt>
      <trkpt lat="45.14555" lon="6.34097">
        <ele>2391.557</ele>
        <time>2022-09-10T10:17:26Z</time>
      </trkpt>
      <trkpt lat="45.14561" lon="6.34102">
        <ele>2390.698</ele>
        <time>2022-09-10T10:17:36Z</time>
      </trkpt>
      <trkpt lat="45.14564" lon="6.34103">
        <ele>2388.536</ele>
        <time>2022-09-10T10:17:45Z</time>
      </trkpt>
      <trkpt lat="45.14564" lon="6.34102">
        <ele>2387.833</ele>
        <time>2022-09-10T10:17:54Z</time>
      </trkpt>
      <trkpt lat="45.14562" lon="6.34102">
        <ele>2388.678</ele>
        <time>2022-09-10T10:18:03Z</time>
      </trkpt>
      <trkpt lat="45.14564" lon="6.34103">
        <ele>2388.163</ele>
        <time>2022-09-10T10:18:13Z</time>
      </trkpt>
      <trkpt lat="45.14564" lon="6.34103">
        <ele>2388.517</ele>
        <time>2022-09-10T10:18:22Z</time>
      </trkpt>
      <trkpt lat="45.14565" lon="6.34102">
        <ele>2388.182</ele>
        <time>2022-09-10T10:18:32Z</time>
      </trkpt>
      <trkpt lat="45.14565" lon="6.34104">
        <ele>2387.888</ele>
        <time>2022-09-10T10:18:41Z</time>
      </trkpt>
      <trkpt lat="45.14564" lon="6.34104">
        <ele>2387.915</ele>
        <time>2022-09-10T10:18:51Z</time>
      </trkpt>
      <trkpt lat="45.14564" lon="6.34104">
        <ele>2387.907</ele>
        <time>2022-09-10T10:19:00Z</time>
      </trkpt>
      <trkpt lat="45.14564" lon="6.34105">
        <ele>2387.831</ele>
        <time>2022-09-10T10:19:09Z</time>
      </trkpt>
      <trkpt lat="45.14562" lon="6.34103">
        <ele>2387.131</ele>
        <time>2022-09-10T10:19:19Z</time>
      </trkpt>
      <trkpt lat="45.14559" lon="6.34101">
        <ele>2388.5</ele>
        <time>2022-09-10T10:19:28Z</time>
      </trkpt>
      <trkpt lat="45.14553" lon="6.34097">
        <ele>2390.817</ele>
        <time>2022-09-10T10:19:37Z</time>
      </trkpt>
      <trkpt lat="45.14551" lon="6.34093">
        <ele>2392.011</ele>
        <time>2022-09-10T10:19:47Z</time>
      </trkpt>
      <trkpt lat="45.14541" lon="6.34081">
        <ele>2393.313</ele>
        <time>2022-09-10T10:19:56Z</time>
      </trkpt>
      <trkpt lat="45.14532" lon="6.3407">
        <ele>2394.521</ele>
        <time>2022-09-10T10:20:06Z</time>
      </trkpt>
      <trkpt lat="45.14522" lon="6.34063">
        <ele>2396.494</ele>
        <time>2022-09-10T10:20:16Z</time>
      </trkpt>
      <trkpt lat="45.14514" lon="6.34057">
        <ele>2397.67</ele>
        <time>2022-09-10T10:20:25Z</time>
      </trkpt>
      <trkpt lat="45.145" lon="6.34039">
        <ele>2396.386</ele>
        <time>2022-09-10T10:20:34Z</time>
      </trkpt>
      <trkpt lat="45.14497" lon="6.34038">
        <ele>2396.685</ele>
        <time>2022-09-10T10:20:43Z</time>
      </trkpt>
      <trkpt lat="45.14498" lon="6.34037">
        <ele>2396.724</ele>
        <time>2022-09-10T10:20:53Z</time>
      </trkpt>
      <trkpt lat="45.14498" lon="6.34036">
        <ele>2396.431</ele>
        <time>2022-09-10T10:21:02Z</time>
      </trkpt>
      <trkpt lat="45.14496" lon="6.34038">
        <ele>2397.081</ele>
        <time>2022-09-10T10:21:11Z</time>
      </trkpt>
      <trkpt lat="45.14489" lon="6.34042">
        <ele>2398.129</ele>
        <time>2022-09-10T10:21:21Z</time>
      </trkpt>
      <trkpt lat="45.14481" lon="6.34043">
        <ele>2398.755</ele>
        <time>2022-09-10T10:21:30Z</time>
      </trkpt>
      <trkpt lat="45.14475" lon="6.34038">
        <ele>2397.042</ele>
        <time>2022-09-10T10:21:40Z</time>
      </trkpt>
      <trkpt lat="45.14471" lon="6.34032">
        <ele>2397.418</ele>
        <time>2022-09-10T10:21:50Z</time>
      </trkpt>
      <trkpt lat="45.14467" lon="6.34028">
        <ele>2398.925</ele>
        <time>2022-09-10T10:21:59Z</time>
      </trkpt>
      <trkpt lat="45.14464" lon="6.34023">
        <ele>2400.392</ele>
        <time>2022-09-10T10:22:09Z</time>
      </trkpt>
      <trkpt lat="45.14462" lon="6.34019">
        <ele>2402.448</ele>
        <time>2022-09-10T10:22:18Z</time>
      </trkpt>
      <trkpt lat="45.14461" lon="6.34012">
        <ele>2404.116</ele>
        <time>2022-09-10T10:22:27Z</time>
      </trkpt>
      <trkpt lat="45.14457" lon="6.34017">
        <ele>2406.959</ele>
        <time>2022-09-10T10:22:37Z</time>
      </trkpt>
      <trkpt lat="45.14453" lon="6.34016">
        <ele>2408.505</ele>
        <time>2022-09-10T10:22:47Z</time>
      </trkpt>
      <trkpt lat="45.14449" lon="6.34016">
        <ele>2410.194</ele>
        <time>2022-09-10T10:22:57Z</time>
      </trkpt>
      <trkpt lat="45.14445" lon="6.34019">
        <ele>2412.039</ele>
        <time>2022-09-10T10:23:06Z</time>
      </trkpt>
      <trkpt lat="45.14441" lon="6.34016">
        <ele>2414.821</ele>
        <time>2022-09-10T10:23:16Z</time>
      </trkpt>
      <trkpt lat="45.14437" lon="6.34017">
        <ele>2415.677</ele>
        <time>2022-09-10T10:23:25Z</time>
      </trkpt>
      <trkpt lat="45.14434" lon="6.34016">
        <ele>2418.72</ele>
        <time>2022-09-10T10:23:34Z</time>
      </trkpt>
      <trkpt lat="45.14431" lon="6.34013">
        <ele>2419.286</ele>
        <time>2022-09-10T10:23:44Z</time>
      </trkpt>
      <trkpt lat="45.14427" lon="6.34008">
        <ele>2419.131</ele>
        <time>2022-09-10T10:23:53Z</time>
      </trkpt>
      <trkpt lat="45.14424" lon="6.34002">
        <ele>2421.208</ele>
        <time>2022-09-10T10:24:03Z</time>
      </trkpt>
      <trkpt lat="45.14421" lon="6.33998">
        <ele>2423.568</ele>
        <time>2022-09-10T10:24:12Z</time>
      </trkpt>
      <trkpt lat="45.14419" lon="6.33997">
        <ele>2425.87</ele>
        <time>2022-09-10T10:24:22Z</time>
      </trkpt>
      <trkpt lat="45.14415" lon="6.33993">
        <ele>2426.583</ele>
        <time>2022-09-10T10:24:31Z</time>
      </trkpt>
      <trkpt lat="45.14412" lon="6.33989">
        <ele>2427.538</ele>
        <time>2022-09-10T10:24:40Z</time>
      </trkpt>
      <trkpt lat="45.14408" lon="6.33984">
        <ele>2428.797</ele>
        <time>2022-09-10T10:24:50Z</time>
      </trkpt>
      <trkpt lat="45.14407" lon="6.33982">
        <ele>2431.017</ele>
        <time>2022-09-10T10:25:00Z</time>
      </trkpt>
      <trkpt lat="45.14404" lon="6.33976">
        <ele>2431.88</ele>
        <time>2022-09-10T10:25:09Z</time>
      </trkpt>
      <trkpt lat="45.144" lon="6.33972">
        <ele>2433.385</ele>
        <time>2022-09-10T10:25:19Z</time>
      </trkpt>
      <trkpt lat="45.14398" lon="6.33975">
        <ele>2435.683</ele>
        <time>2022-09-10T10:25:29Z</time>
      </trkpt>
      <trkpt lat="45.14396" lon="6.33971">
        <ele>2437.488</ele>
        <time>2022-09-10T10:25:38Z</time>
      </trkpt>
      <trkpt lat="45.14392" lon="6.33968">
        <ele>2440.084</ele>
        <time>2022-09-10T10:25:48Z</time>
      </trkpt>
      <trkpt lat="45.14387" lon="6.33963">
        <ele>2441.52</ele>
        <time>2022-09-10T10:25:58Z</time>
      </trkpt>
      <trkpt lat="45.14384" lon="6.33959">
        <ele>2441.578</ele>
        <time>2022-09-10T10:26:07Z</time>
      </trkpt>
      <trkpt lat="45.14381" lon="6.33954">
        <ele>2442.472</ele>
        <time>2022-09-10T10:26:16Z</time>
      </trkpt>
      <trkpt lat="45.14377" lon="6.3395">
        <ele>2445.603</ele>
        <time>2022-09-10T10:26:25Z</time>
      </trkpt>
      <trkpt lat="45.14373" lon="6.33944">
        <ele>2446.684</ele>
        <time>2022-09-10T10:26:34Z</time>
      </trkpt>
      <trkpt lat="45.1437" lon="6.33939">
        <ele>2448.492</ele>
        <time>2022-09-10T10:26:44Z</time>
      </trkpt>
      <trkpt lat="45.1437" lon="6.33939">
        <ele>2448.379</ele>
        <time>2022-09-10T10:26:53Z</time>
      </trkpt>
      <trkpt lat="45.14371" lon="6.3394">
        <ele>2448.454</ele>
        <time>2022-09-10T10:27:03Z</time>
      </trkpt>
      <trkpt lat="45.14371" lon="6.33939">
        <ele>2448.624</ele>
        <time>2022-09-10T10:27:13Z</time>
      </trkpt>
      <trkpt lat="45.14371" lon="6.33939">
        <ele>2448.634</ele>
        <time>2022-09-10T10:27:22Z</time>
      </trkpt>
      <trkpt lat="45.14367" lon="6.33936">
        <ele>2450.719</ele>
        <time>2022-09-10T10:27:32Z</time>
      </trkpt>
      <trkpt lat="45.1436" lon="6.3393">
        <ele>2452.463</ele>
        <time>2022-09-10T10:27:41Z</time>
      </trkpt>
      <trkpt lat="45.14354" lon="6.33926">
        <ele>2452.989</ele>
        <time>2022-09-10T10:27:51Z</time>
      </trkpt>
      <trkpt lat="45.1435" lon="6.33924">
        <ele>2454.572</ele>
        <time>2022-09-10T10:28:01Z</time>
      </trkpt>
      <trkpt lat="45.14345" lon="6.3393">
        <ele>2456.229</ele>
        <time>2022-09-10T10:28:11Z</time>
      </trkpt>
      <trkpt lat="45.14345" lon="6.3393">
        <ele>2457.276</ele>
        <time>2022-09-10T10:28:20Z</time>
      </trkpt>
      <trkpt lat="45.14345" lon="6.33929">
        <ele>2457.213</ele>
        <time>2022-09-10T10:28:29Z</time>
      </trkpt>
      <trkpt lat="45.14344" lon="6.33929">
        <ele>2455.92</ele>
        <time>2022-09-10T10:28:39Z</time>
      </trkpt>
      <trkpt lat="45.14344" lon="6.3393">
        <ele>2456.337</ele>
        <time>2022-09-10T10:28:49Z</time>
      </trkpt>
      <trkpt lat="45.14343" lon="6.33931">
        <ele>2457.073</ele>
        <time>2022-09-10T10:28:59Z</time>
      </trkpt>
      <trkpt lat="45.14348" lon="6.33935">
        <ele>2456.586</ele>
        <time>2022-09-10T10:29:08Z</time>
      </trkpt>
      <trkpt lat="45.1435" lon="6.33934">
        <ele>2456.22</ele>
        <time>2022-09-10T10:29:17Z</time>
      </trkpt>
      <trkpt lat="45.14349" lon="6.33934">
        <ele>2456.693</ele>
        <time>2022-09-10T10:29:27Z</time>
      </trkpt>
      <trkpt lat="45.14349" lon="6.33934">
        <ele>2456.703</ele>
        <time>2022-09-10T10:29:37Z</time>
      </trkpt>
      <trkpt lat="45.14349" lon="6.33934">
        <ele>2456.705</ele>
        <time>2022-09-10T10:29:46Z</time>
      </trkpt>
      <trkpt lat="45.14348" lon="6.33934">
        <ele>2455.151</ele>
        <time>2022-09-10T10:29:56Z</time>
      </trkpt>
      <trkpt lat="45.14349" lon="6.33934">
        <ele>2453.874</ele>
        <time>2022-09-10T10:30:05Z</time>
      </trkpt>
      <trkpt lat="45.14344" lon="6.33931">
        <ele>2452.972</ele>
        <time>2022-09-10T10:30:14Z</time>
      </trkpt>
      <trkpt lat="45.14346" lon="6.33929">
        <ele>2452.064</ele>
        <time>2022-09-10T10:30:23Z</time>
      </trkpt>
      <trkpt lat="45.14343" lon="6.33929">
        <ele>2452.256</ele>
        <time>2022-09-10T10:30:33Z</time>
      </trkpt>
      <trkpt lat="45.1434" lon="6.33931">
        <ele>2452.493</ele>
        <time>2022-09-10T10:30:43Z</time>
      </trkpt>
      <trkpt lat="45.14337" lon="6.33934">
        <ele>2455.447</ele>
        <time>2022-09-10T10:30:52Z</time>
      </trkpt>
      <trkpt lat="45.14336" lon="6.33933">
        <ele>2457.428</ele>
        <time>2022-09-10T10:31:01Z</time>
      </trkpt>
      <trkpt lat="45.14335" lon="6.33933">
        <ele>2455.72</ele>
        <time>2022-09-10T10:31:11Z</time>
      </trkpt>
      <trkpt lat="45.14335" lon="6.33933">
        <ele>2455.842</ele>
        <time>2022-09-10T10:31:20Z</time>
      </trkpt>
      <trkpt lat="45.14339" lon="6.3393">
        <ele>2452.616</ele>
        <time>2022-09-10T10:31:29Z</time>
      </trkpt>
      <trkpt lat="45.1434" lon="6.3393">
        <ele>2452.076</ele>
        <time>2022-09-10T10:31:38Z</time>
      </trkpt>
      <trkpt lat="45.1434" lon="6.3393">
        <ele>2452.285</ele>
        <time>2022-09-10T10:31:48Z</time>
      </trkpt>
      <trkpt lat="45.1434" lon="6.3393">
        <ele>2452.277</ele>
        <time>2022-09-10T10:31:57Z</time>
      </trkpt>
      <trkpt lat="45.14339" lon="6.33929">
        <ele>2452.524</ele>
        <time>2022-09-10T10:32:07Z</time>
      </trkpt>
      <trkpt lat="45.14339" lon="6.33928">
        <ele>2451.264</ele>
        <time>2022-09-10T10:32:16Z</time>
      </trkpt>
      <trkpt lat="45.14339" lon="6.33928">
        <ele>2451.014</ele>
        <time>2022-09-10T10:32:26Z</time>
      </trkpt>
      <trkpt lat="45.14339" lon="6.33927">
        <ele>2451.669</ele>
        <time>2022-09-10T10:32:36Z</time>
      </trkpt>
      <trkpt lat="45.14339" lon="6.33927">
        <ele>2451.695</ele>
        <time>2022-09-10T10:32:45Z</time>
      </trkpt>
      <trkpt lat="45.14339" lon="6.33927">
        <ele>2451.716</ele>
        <time>2022-09-10T10:32:55Z</time>
      </trkpt>
      <trkpt lat="45.14339" lon="6.33927">
        <ele>2451.723</ele>
        <time>2022-09-10T10:33:05Z</time>
      </trkpt>
      <trkpt lat="45.14339" lon="6.33927">
        <ele>2451.731</ele>
        <time>2022-09-10T10:33:14Z</time>
      </trkpt>
      <trkpt lat="45.14339" lon="6.33927">
        <ele>2451.731</ele>
        <time>2022-09-10T10:33:23Z</time>
      </trkpt>
      <trkpt lat="45.14342" lon="6.33922">
        <ele>2453.558</ele>
        <time>2022-09-10T10:33:32Z</time>
      </trkpt>
      <trkpt lat="45.14342" lon="6.33921">
        <ele>2454.693</ele>
        <time>2022-09-10T10:33:42Z</time>
      </trkpt>
      <trkpt lat="45.14341" lon="6.33921">
        <ele>2455.531</ele>
        <time>2022-09-10T10:33:52Z</time>
      </trkpt>
      <trkpt lat="45.14336" lon="6.3391">
        <ele>2453.447</ele>
        <time>2022-09-10T10:34:01Z</time>
      </trkpt>
      <trkpt lat="45.14333" lon="6.339">
        <ele>2452.024</ele>
        <time>2022-09-10T10:34:11Z</time>
      </trkpt>
      <trkpt lat="45.14336" lon="6.33911">
        <ele>2455.885</ele>
        <time>2022-09-10T10:34:20Z</time>
      </trkpt>
      <trkpt lat="45.14336" lon="6.33915">
        <ele>2456.325</ele>
        <time>2022-09-10T10:34:29Z</time>
      </trkpt>
      <trkpt lat="45.14332" lon="6.33898">
        <ele>2454.772</ele>
        <time>2022-09-10T10:34:38Z</time>
      </trkpt>
      <trkpt lat="45.14325" lon="6.33881">
        <ele>2451.063</ele>
        <time>2022-09-10T10:34:48Z</time>
      </trkpt>
      <trkpt lat="45.14325" lon="6.33881">
        <ele>2451.498</ele>
        <time>2022-09-10T10:34:58Z</time>
      </trkpt>
      <trkpt lat="45.14326" lon="6.33879">
        <ele>2448.369</ele>
        <time>2022-09-10T10:35:08Z</time>
      </trkpt>
      <trkpt lat="45.14326" lon="6.3388">
        <ele>2448.77</ele>
        <time>2022-09-10T10:35:17Z</time>
      </trkpt>
      <trkpt lat="45.14321" lon="6.33878">
        <ele>2450.366</ele>
        <time>2022-09-10T10:35:26Z</time>
      </trkpt>
      <trkpt lat="45.14308" lon="6.33875">
        <ele>2451.322</ele>
        <time>2022-09-10T10:35:36Z</time>
      </trkpt>
      <trkpt lat="45.14299" lon="6.33875">
        <ele>2452.91</ele>
        <time>2022-09-10T10:35:45Z</time>
      </trkpt>
      <trkpt lat="45.14288" lon="6.33882">
        <ele>2454.491</ele>
        <time>2022-09-10T10:35:55Z</time>
      </trkpt>
      <trkpt lat="45.14287" lon="6.33885">
        <ele>2455.008</ele>
        <time>2022-09-10T10:36:05Z</time>
      </trkpt>
      <trkpt lat="45.14282" lon="6.33881">
        <ele>2452.876</ele>
        <time>2022-09-10T10:36:14Z</time>
      </trkpt>
      <trkpt lat="45.14276" lon="6.33877">
        <ele>2453.068</ele>
        <time>2022-09-10T10:36:23Z</time>
      </trkpt>
      <trkpt lat="45.14272" lon="6.33871">
        <ele>2453.928</ele>
        <time>2022-09-10T10:36:33Z</time>
      </trkpt>
      <trkpt lat="45.14263" lon="6.33864">
        <ele>2453.617</ele>
        <time>2022-09-10T10:36:43Z</time>
      </trkpt>
      <trkpt lat="45.14258" lon="6.3386">
        <ele>2455.998</ele>
        <time>2022-09-10T10:36:52Z</time>
      </trkpt>
      <trkpt lat="45.14254" lon="6.33858">
        <ele>2455.982</ele>
        <time>2022-09-10T10:37:01Z</time>
      </trkpt>
      <trkpt lat="45.14249" lon="6.33858">
        <ele>2457.695</ele>
        <time>2022-09-10T10:37:10Z</time>
      </trkpt>
      <trkpt lat="45.14244" lon="6.33858">
        <ele>2458.357</ele>
        <time>2022-09-10T10:37:19Z</time>
      </trkpt>
      <trkpt lat="45.14239" lon="6.33858">
        <ele>2459.031</ele>
        <time>2022-09-10T10:37:29Z</time>
      </trkpt>
      <trkpt lat="45.14234" lon="6.33855">
        <ele>2459.456</ele>
        <time>2022-09-10T10:37:38Z</time>
      </trkpt>
      <trkpt lat="45.1423" lon="6.33854">
        <ele>2458.426</ele>
        <time>2022-09-10T10:37:48Z</time>
      </trkpt>
      <trkpt lat="45.14225" lon="6.33853">
        <ele>2458.713</ele>
        <time>2022-09-10T10:37:58Z</time>
      </trkpt>
      <trkpt lat="45.14223" lon="6.33853">
        <ele>2458.095</ele>
        <time>2022-09-10T10:38:08Z</time>
      </trkpt>
      <trkpt lat="45.14221" lon="6.33851">
        <ele>2456.395</ele>
        <time>2022-09-10T10:38:18Z</time>
      </trkpt>
      <trkpt lat="45.14213" lon="6.33843">
        <ele>2457.13</ele>
        <time>2022-09-10T10:38:27Z</time>
      </trkpt>
      <trkpt lat="45.14213" lon="6.33833">
        <ele>2457.441</ele>
        <time>2022-09-10T10:38:36Z</time>
      </trkpt>
      <trkpt lat="45.14211" lon="6.33825">
        <ele>2458.383</ele>
        <time>2022-09-10T10:38:46Z</time>
      </trkpt>
      <trkpt lat="45.14207" lon="6.3382">
        <ele>2460.322</ele>
        <time>2022-09-10T10:38:56Z</time>
      </trkpt>
      <trkpt lat="45.14204" lon="6.33811">
        <ele>2460.55</ele>
        <time>2022-09-10T10:39:06Z</time>
      </trkpt>
      <trkpt lat="45.14203" lon="6.33806">
        <ele>2458.803</ele>
        <time>2022-09-10T10:39:15Z</time>
      </trkpt>
      <trkpt lat="45.14202" lon="6.33801">
        <ele>2460.781</ele>
        <time>2022-09-10T10:39:24Z</time>
      </trkpt>
      <trkpt lat="45.14197" lon="6.338">
        <ele>2461.476</ele>
        <time>2022-09-10T10:39:34Z</time>
      </trkpt>
      <trkpt lat="45.14192" lon="6.33796">
        <ele>2462.961</ele>
        <time>2022-09-10T10:39:44Z</time>
      </trkpt>
      <trkpt lat="45.14187" lon="6.33791">
        <ele>2462.791</ele>
        <time>2022-09-10T10:39:53Z</time>
      </trkpt>
      <trkpt lat="45.14185" lon="6.33784">
        <ele>2462.162</ele>
        <time>2022-09-10T10:40:03Z</time>
      </trkpt>
      <trkpt lat="45.14186" lon="6.33772">
        <ele>2467.034</ele>
        <time>2022-09-10T10:40:13Z</time>
      </trkpt>
      <trkpt lat="45.14187" lon="6.33767">
        <ele>2468.289</ele>
        <time>2022-09-10T10:40:23Z</time>
      </trkpt>
      <trkpt lat="45.14186" lon="6.33767">
        <ele>2468.026</ele>
        <time>2022-09-10T10:40:32Z</time>
      </trkpt>
      <trkpt lat="45.14186" lon="6.33766">
        <ele>2466.736</ele>
        <time>2022-09-10T10:40:42Z</time>
      </trkpt>
      <trkpt lat="45.1419" lon="6.33759">
        <ele>2467.952</ele>
        <time>2022-09-10T10:40:52Z</time>
      </trkpt>
      <trkpt lat="45.1419" lon="6.33744">
        <ele>2467.773</ele>
        <time>2022-09-10T10:41:01Z</time>
      </trkpt>
      <trkpt lat="45.14192" lon="6.33727">
        <ele>2468.328</ele>
        <time>2022-09-10T10:41:11Z</time>
      </trkpt>
      <trkpt lat="45.14189" lon="6.33719">
        <ele>2469.066</ele>
        <time>2022-09-10T10:41:20Z</time>
      </trkpt>
      <trkpt lat="45.14188" lon="6.33712">
        <ele>2468.773</ele>
        <time>2022-09-10T10:41:30Z</time>
      </trkpt>
      <trkpt lat="45.14187" lon="6.33703">
        <ele>2466.261</ele>
        <time>2022-09-10T10:41:39Z</time>
      </trkpt>
      <trkpt lat="45.1419" lon="6.33688">
        <ele>2472.13</ele>
        <time>2022-09-10T10:41:49Z</time>
      </trkpt>
      <trkpt lat="45.14191" lon="6.33679">
        <ele>2471.564</ele>
        <time>2022-09-10T10:41:58Z</time>
      </trkpt>
      <trkpt lat="45.14192" lon="6.33667">
        <ele>2471.904</ele>
        <time>2022-09-10T10:42:07Z</time>
      </trkpt>
      <trkpt lat="45.14191" lon="6.33659">
        <ele>2473.605</ele>
        <time>2022-09-10T10:42:17Z</time>
      </trkpt>
      <trkpt lat="45.14196" lon="6.33635">
        <ele>2472.723</ele>
        <time>2022-09-10T10:42:27Z</time>
      </trkpt>
      <trkpt lat="45.14193" lon="6.33627">
        <ele>2472.588</ele>
        <time>2022-09-10T10:42:36Z</time>
      </trkpt>
      <trkpt lat="45.14193" lon="6.33615">
        <ele>2470.452</ele>
        <time>2022-09-10T10:42:45Z</time>
      </trkpt>
      <trkpt lat="45.14192" lon="6.33606">
        <ele>2473.048</ele>
        <time>2022-09-10T10:42:55Z</time>
      </trkpt>
      <trkpt lat="45.14193" lon="6.33593">
        <ele>2473.179</ele>
        <time>2022-09-10T10:43:05Z</time>
      </trkpt>
      <trkpt lat="45.14192" lon="6.33585">
        <ele>2476.107</ele>
        <time>2022-09-10T10:43:14Z</time>
      </trkpt>
      <trkpt lat="45.1419" lon="6.33573">
        <ele>2478.685</ele>
        <time>2022-09-10T10:43:24Z</time>
      </trkpt>
      <trkpt lat="45.14189" lon="6.33566">
        <ele>2481.229</ele>
        <time>2022-09-10T10:43:34Z</time>
      </trkpt>
      <trkpt lat="45.14187" lon="6.33558">
        <ele>2483.1</ele>
        <time>2022-09-10T10:43:44Z</time>
      </trkpt>
      <trkpt lat="45.14184" lon="6.33548">
        <ele>2484.084</ele>
        <time>2022-09-10T10:43:54Z</time>
      </trkpt>
      <trkpt lat="45.14179" lon="6.3354">
        <ele>2485.242</ele>
        <time>2022-09-10T10:44:03Z</time>
      </trkpt>
      <trkpt lat="45.14175" lon="6.3353">
        <ele>2485.473</ele>
        <time>2022-09-10T10:44:12Z</time>
      </trkpt>
      <trkpt lat="45.14173" lon="6.33521">
        <ele>2483.887</ele>
        <time>2022-09-10T10:44:22Z</time>
      </trkpt>
      <trkpt lat="45.1417" lon="6.33513">
        <ele>2485.7</ele>
        <time>2022-09-10T10:44:31Z</time>
      </trkpt>
      <trkpt lat="45.1417" lon="6.33506">
        <ele>2486.179</ele>
        <time>2022-09-10T10:44:41Z</time>
      </trkpt>
      <trkpt lat="45.14165" lon="6.33498">
        <ele>2486.356</ele>
        <time>2022-09-10T10:44:50Z</time>
      </trkpt>
      <trkpt lat="45.14164" lon="6.33491">
        <ele>2487.222</ele>
        <time>2022-09-10T10:44:59Z</time>
      </trkpt>
      <trkpt lat="45.14161" lon="6.33479">
        <ele>2489.82</ele>
        <time>2022-09-10T10:45:09Z</time>
      </trkpt>
      <trkpt lat="45.14161" lon="6.33468">
        <ele>2489.185</ele>
        <time>2022-09-10T10:45:18Z</time>
      </trkpt>
      <trkpt lat="45.14158" lon="6.33453">
        <ele>2488.982</ele>
        <time>2022-09-10T10:45:28Z</time>
      </trkpt>
      <trkpt lat="45.14155" lon="6.33436">
        <ele>2487.278</ele>
        <time>2022-09-10T10:45:38Z</time>
      </trkpt>
      <trkpt lat="45.14155" lon="6.33429">
        <ele>2488.44</ele>
        <time>2022-09-10T10:45:47Z</time>
      </trkpt>
      <trkpt lat="45.14158" lon="6.33419">
        <ele>2489.827</ele>
        <time>2022-09-10T10:45:56Z</time>
      </trkpt>
      <trkpt lat="45.1416" lon="6.33413">
        <ele>2490.599</ele>
        <time>2022-09-10T10:46:05Z</time>
      </trkpt>
      <trkpt lat="45.14162" lon="6.33399">
        <ele>2490.778</ele>
        <time>2022-09-10T10:46:14Z</time>
      </trkpt>
      <trkpt lat="45.14163" lon="6.3339">
        <ele>2491.26</ele>
        <time>2022-09-10T10:46:24Z</time>
      </trkpt>
      <trkpt lat="45.14161" lon="6.3338">
        <ele>2490.129</ele>
        <time>2022-09-10T10:46:33Z</time>
      </trkpt>
      <trkpt lat="45.14154" lon="6.33372">
        <ele>2489.871</ele>
        <time>2022-09-10T10:46:42Z</time>
      </trkpt>
      <trkpt lat="45.14147" lon="6.33363">
        <ele>2489.845</ele>
        <time>2022-09-10T10:46:51Z</time>
      </trkpt>
      <trkpt lat="45.14145" lon="6.33357">
        <ele>2492.18</ele>
        <time>2022-09-10T10:47:01Z</time>
      </trkpt>
      <trkpt lat="45.1414" lon="6.33345">
        <ele>2493.193</ele>
        <time>2022-09-10T10:47:11Z</time>
      </trkpt>
      <trkpt lat="45.14136" lon="6.33336">
        <ele>2494.936</ele>
        <time>2022-09-10T10:47:21Z</time>
      </trkpt>
      <trkpt lat="45.14131" lon="6.3333">
        <ele>2496.268</ele>
        <time>2022-09-10T10:47:30Z</time>
      </trkpt>
      <trkpt lat="45.14127" lon="6.33326">
        <ele>2497.656</ele>
        <time>2022-09-10T10:47:39Z</time>
      </trkpt>
      <trkpt lat="45.14122" lon="6.33321">
        <ele>2497.092</ele>
        <time>2022-09-10T10:47:49Z</time>
      </trkpt>
      <trkpt lat="45.14115" lon="6.33318">
        <ele>2497.879</ele>
        <time>2022-09-10T10:47:59Z</time>
      </trkpt>
      <trkpt lat="45.14109" lon="6.33317">
        <ele>2498.18</ele>
        <time>2022-09-10T10:48:08Z</time>
      </trkpt>
      <trkpt lat="45.14103" lon="6.33316">
        <ele>2498.279</ele>
        <time>2022-09-10T10:48:18Z</time>
      </trkpt>
      <trkpt lat="45.14102" lon="6.33318">
        <ele>2499.869</ele>
        <time>2022-09-10T10:48:28Z</time>
      </trkpt>
      <trkpt lat="45.14102" lon="6.33319">
        <ele>2500.012</ele>
        <time>2022-09-10T10:48:38Z</time>
      </trkpt>
      <trkpt lat="45.14099" lon="6.3332">
        <ele>2498.868</ele>
        <time>2022-09-10T10:48:47Z</time>
      </trkpt>
      <trkpt lat="45.14099" lon="6.33319">
        <ele>2499.141</ele>
        <time>2022-09-10T10:48:56Z</time>
      </trkpt>
      <trkpt lat="45.14098" lon="6.3332">
        <ele>2499.81</ele>
        <time>2022-09-10T10:49:06Z</time>
      </trkpt>
      <trkpt lat="45.14094" lon="6.3333">
        <ele>2499.623</ele>
        <time>2022-09-10T10:49:15Z</time>
      </trkpt>
      <trkpt lat="45.1409" lon="6.33341">
        <ele>2499.777</ele>
        <time>2022-09-10T10:49:24Z</time>
      </trkpt>
      <trkpt lat="45.14089" lon="6.33352">
        <ele>2501.578</ele>
        <time>2022-09-10T10:49:34Z</time>
      </trkpt>
      <trkpt lat="45.14085" lon="6.33358">
        <ele>2502.51</ele>
        <time>2022-09-10T10:49:43Z</time>
      </trkpt>
      <trkpt lat="45.14083" lon="6.33364">
        <ele>2503.915</ele>
        <time>2022-09-10T10:49:52Z</time>
      </trkpt>
      <trkpt lat="45.14082" lon="6.33373">
        <ele>2505.58</ele>
        <time>2022-09-10T10:50:02Z</time>
      </trkpt>
      <trkpt lat="45.14079" lon="6.33378">
        <ele>2505.73</ele>
        <time>2022-09-10T10:50:11Z</time>
      </trkpt>
      <trkpt lat="45.14077" lon="6.33383">
        <ele>2506.007</ele>
        <time>2022-09-10T10:50:21Z</time>
      </trkpt>
      <trkpt lat="45.14072" lon="6.33389">
        <ele>2507.182</ele>
        <time>2022-09-10T10:50:30Z</time>
      </trkpt>
      <trkpt lat="45.14068" lon="6.33395">
        <ele>2507.861</ele>
        <time>2022-09-10T10:50:39Z</time>
      </trkpt>
      <trkpt lat="45.14065" lon="6.33406">
        <ele>2508.801</ele>
        <time>2022-09-10T10:50:49Z</time>
      </trkpt>
      <trkpt lat="45.14064" lon="6.33412">
        <ele>2508.964</ele>
        <time>2022-09-10T10:50:59Z</time>
      </trkpt>
      <trkpt lat="45.14066" lon="6.33421">
        <ele>2509.544</ele>
        <time>2022-09-10T10:51:08Z</time>
      </trkpt>
      <trkpt lat="45.14067" lon="6.33428">
        <ele>2511.235</ele>
        <time>2022-09-10T10:51:17Z</time>
      </trkpt>
      <trkpt lat="45.14066" lon="6.33437">
        <ele>2513.256</ele>
        <time>2022-09-10T10:51:26Z</time>
      </trkpt>
      <trkpt lat="45.14061" lon="6.33445">
        <ele>2514.529</ele>
        <time>2022-09-10T10:51:36Z</time>
      </trkpt>
      <trkpt lat="45.1406" lon="6.33446">
        <ele>2514.809</ele>
        <time>2022-09-10T10:51:46Z</time>
      </trkpt>
      <trkpt lat="45.14057" lon="6.33455">
        <ele>2515.771</ele>
        <time>2022-09-10T10:51:56Z</time>
      </trkpt>
      <trkpt lat="45.14055" lon="6.33458">
        <ele>2516.22</ele>
        <time>2022-09-10T10:52:05Z</time>
      </trkpt>
      <trkpt lat="45.14055" lon="6.33458">
        <ele>2516.034</ele>
        <time>2022-09-10T10:52:14Z</time>
      </trkpt>
      <trkpt lat="45.14055" lon="6.33458">
        <ele>2516.147</ele>
        <time>2022-09-10T10:52:24Z</time>
      </trkpt>
      <trkpt lat="45.14048" lon="6.33455">
        <ele>2516.254</ele>
        <time>2022-09-10T10:52:33Z</time>
      </trkpt>
      <trkpt lat="45.1404" lon="6.33454">
        <ele>2514.105</ele>
        <time>2022-09-10T10:52:43Z</time>
      </trkpt>
      <trkpt lat="45.14029" lon="6.33456">
        <ele>2512.984</ele>
        <time>2022-09-10T10:52:53Z</time>
      </trkpt>
      <trkpt lat="45.14024" lon="6.33449">
        <ele>2512.767</ele>
        <time>2022-09-10T10:53:02Z</time>
      </trkpt>
      <trkpt lat="45.14021" lon="6.33447">
        <ele>2514.387</ele>
        <time>2022-09-10T10:53:12Z</time>
      </trkpt>
      <trkpt lat="45.14016" lon="6.33444">
        <ele>2515.18</ele>
        <time>2022-09-10T10:53:21Z</time>
      </trkpt>
      <trkpt lat="45.14012" lon="6.33443">
        <ele>2515.833</ele>
        <time>2022-09-10T10:53:30Z</time>
      </trkpt>
      <trkpt lat="45.14006" lon="6.3344">
        <ele>2516.462</ele>
        <time>2022-09-10T10:53:40Z</time>
      </trkpt>
      <trkpt lat="45.14" lon="6.33438">
        <ele>2517.607</ele>
        <time>2022-09-10T10:53:49Z</time>
      </trkpt>
      <trkpt lat="45.13997" lon="6.33437">
        <ele>2520.035</ele>
        <time>2022-09-10T10:53:59Z</time>
      </trkpt>
      <trkpt lat="45.13993" lon="6.33433">
        <ele>2525.872</ele>
        <time>2022-09-10T10:54:09Z</time>
      </trkpt>
      <trkpt lat="45.13995" lon="6.33425">
        <ele>2528.448</ele>
        <time>2022-09-10T10:54:19Z</time>
      </trkpt>
      <trkpt lat="45.13998" lon="6.33419">
        <ele>2532.051</ele>
        <time>2022-09-10T10:54:29Z</time>
      </trkpt>
      <trkpt lat="45.13995" lon="6.33412">
        <ele>2534.065</ele>
        <time>2022-09-10T10:54:38Z</time>
      </trkpt>
      <trkpt lat="45.13993" lon="6.33405">
        <ele>2535.562</ele>
        <time>2022-09-10T10:54:47Z</time>
      </trkpt>
      <trkpt lat="45.1399" lon="6.33402">
        <ele>2535.388</ele>
        <time>2022-09-10T10:54:56Z</time>
      </trkpt>
      <trkpt lat="45.13987" lon="6.334">
        <ele>2536.123</ele>
        <time>2022-09-10T10:55:06Z</time>
      </trkpt>
      <trkpt lat="45.13982" lon="6.334">
        <ele>2536.553</ele>
        <time>2022-09-10T10:55:15Z</time>
      </trkpt>
      <trkpt lat="45.13978" lon="6.33398">
        <ele>2538.335</ele>
        <time>2022-09-10T10:55:25Z</time>
      </trkpt>
      <trkpt lat="45.13974" lon="6.334">
        <ele>2538.179</ele>
        <time>2022-09-10T10:55:34Z</time>
      </trkpt>
      <trkpt lat="45.13968" lon="6.33396">
        <ele>2540.148</ele>
        <time>2022-09-10T10:55:44Z</time>
      </trkpt>
      <trkpt lat="45.13965" lon="6.33384">
        <ele>2542.887</ele>
        <time>2022-09-10T10:55:53Z</time>
      </trkpt>
      <trkpt lat="45.13961" lon="6.33377">
        <ele>2544.789</ele>
        <time>2022-09-10T10:56:02Z</time>
      </trkpt>
      <trkpt lat="45.13956" lon="6.33367">
        <ele>2547.021</ele>
        <time>2022-09-10T10:56:12Z</time>
      </trkpt>
      <trkpt lat="45.1395" lon="6.33358">
        <ele>2547.244</ele>
        <time>2022-09-10T10:56:22Z</time>
      </trkpt>
      <trkpt lat="45.13946" lon="6.33356">
        <ele>2548.58</ele>
        <time>2022-09-10T10:56:32Z</time>
      </trkpt>
      <trkpt lat="45.13941" lon="6.33354">
        <ele>2548.352</ele>
        <time>2022-09-10T10:56:41Z</time>
      </trkpt>
      <trkpt lat="45.13934" lon="6.33354">
        <ele>2550.033</ele>
        <time>2022-09-10T10:56:51Z</time>
      </trkpt>
      <trkpt lat="45.13929" lon="6.33353">
        <ele>2551.079</ele>
        <time>2022-09-10T10:57:00Z</time>
      </trkpt>
      <trkpt lat="45.13928" lon="6.33353">
        <ele>2551.398</ele>
        <time>2022-09-10T10:57:10Z</time>
      </trkpt>
      <trkpt lat="45.13928" lon="6.33353">
        <ele>2551.235</ele>
        <time>2022-09-10T10:57:19Z</time>
      </trkpt>
      <trkpt lat="45.13928" lon="6.33353">
        <ele>2551.217</ele>
        <time>2022-09-10T10:57:29Z</time>
      </trkpt>
      <trkpt lat="45.13926" lon="6.33353">
        <ele>2550.93</ele>
        <time>2022-09-10T10:57:39Z</time>
      </trkpt>
      <trkpt lat="45.1392" lon="6.33348">
        <ele>2551.663</ele>
        <time>2022-09-10T10:57:49Z</time>
      </trkpt>
      <trkpt lat="45.13917" lon="6.33344">
        <ele>2553.854</ele>
        <time>2022-09-10T10:57:59Z</time>
      </trkpt>
      <trkpt lat="45.13912" lon="6.33336">
        <ele>2554.912</ele>
        <time>2022-09-10T10:58:08Z</time>
      </trkpt>
      <trkpt lat="45.13907" lon="6.33331">
        <ele>2556.32</ele>
        <time>2022-09-10T10:58:17Z</time>
      </trkpt>
      <trkpt lat="45.13901" lon="6.33333">
        <ele>2558.134</ele>
        <time>2022-09-10T10:58:26Z</time>
      </trkpt>
      <trkpt lat="45.13898" lon="6.33336">
        <ele>2560.719</ele>
        <time>2022-09-10T10:58:36Z</time>
      </trkpt>
      <trkpt lat="45.13892" lon="6.33336">
        <ele>2561.636</ele>
        <time>2022-09-10T10:58:45Z</time>
      </trkpt>
      <trkpt lat="45.13885" lon="6.33342">
        <ele>2564.14</ele>
        <time>2022-09-10T10:58:55Z</time>
      </trkpt>
      <trkpt lat="45.1388" lon="6.3335">
        <ele>2565.109</ele>
        <time>2022-09-10T10:59:04Z</time>
      </trkpt>
      <trkpt lat="45.13879" lon="6.33351">
        <ele>2565.345</ele>
        <time>2022-09-10T10:59:13Z</time>
      </trkpt>
      <trkpt lat="45.13875" lon="6.33351">
        <ele>2564.435</ele>
        <time>2022-09-10T10:59:23Z</time>
      </trkpt>
      <trkpt lat="45.13871" lon="6.33348">
        <ele>2563.385</ele>
        <time>2022-09-10T10:59:32Z</time>
      </trkpt>
      <trkpt lat="45.1387" lon="6.33347">
        <ele>2564.947</ele>
        <time>2022-09-10T10:59:42Z</time>
      </trkpt>
      <trkpt lat="45.1387" lon="6.33347">
        <ele>2564.952</ele>
        <time>2022-09-10T10:59:51Z</time>
      </trkpt>
      <trkpt lat="45.1387" lon="6.33347">
        <ele>2564.959</ele>
        <time>2022-09-10T11:00:01Z</time>
      </trkpt>
      <trkpt lat="45.1387" lon="6.33347">
        <ele>2564.964</ele>
        <time>2022-09-10T11:00:10Z</time>
      </trkpt>
      <trkpt lat="45.13868" lon="6.33346">
        <ele>2563.584</ele>
        <time>2022-09-10T11:00:19Z</time>
      </trkpt>
      <trkpt lat="45.13849" lon="6.33334">
        <ele>2562.192</ele>
        <time>2022-09-10T11:00:28Z</time>
      </trkpt>
      <trkpt lat="45.13846" lon="6.33321">
        <ele>2563.767</ele>
        <time>2022-09-10T11:00:38Z</time>
      </trkpt>
      <trkpt lat="45.13822" lon="6.33293">
        <ele>2562.801</ele>
        <time>2022-09-10T11:00:48Z</time>
      </trkpt>
      <trkpt lat="45.13816" lon="6.33283">
        <ele>2562.455</ele>
        <time>2022-09-10T11:00:57Z</time>
      </trkpt>
      <trkpt lat="45.13818" lon="6.33277">
        <ele>2563.601</ele>
        <time>2022-09-10T11:01:06Z</time>
      </trkpt>
      <trkpt lat="45.13818" lon="6.33268">
        <ele>2566.903</ele>
        <time>2022-09-10T11:01:16Z</time>
      </trkpt>
      <trkpt lat="45.13823" lon="6.33263">
        <ele>2571.091</ele>
        <time>2022-09-10T11:01:25Z</time>
      </trkpt>
      <trkpt lat="45.13827" lon="6.33255">
        <ele>2570.28</ele>
        <time>2022-09-10T11:01:35Z</time>
      </trkpt>
      <trkpt lat="45.13829" lon="6.33248">
        <ele>2572.224</ele>
        <time>2022-09-10T11:01:44Z</time>
      </trkpt>
      <trkpt lat="45.13832" lon="6.33239">
        <ele>2573.48</ele>
        <time>2022-09-10T11:01:53Z</time>
      </trkpt>
      <trkpt lat="45.13832" lon="6.33229">
        <ele>2573.005</ele>
        <time>2022-09-10T11:02:03Z</time>
      </trkpt>
      <trkpt lat="45.13831" lon="6.33218">
        <ele>2573.205</ele>
        <time>2022-09-10T11:02:12Z</time>
      </trkpt>
      <trkpt lat="45.13834" lon="6.33209">
        <ele>2573.695</ele>
        <time>2022-09-10T11:02:22Z</time>
      </trkpt>
      <trkpt lat="45.13833" lon="6.33195">
        <ele>2575.822</ele>
        <time>2022-09-10T11:02:32Z</time>
      </trkpt>
      <trkpt lat="45.13833" lon="6.33186">
        <ele>2577.702</ele>
        <time>2022-09-10T11:02:41Z</time>
      </trkpt>
      <trkpt lat="45.13834" lon="6.33181">
        <ele>2579.247</ele>
        <time>2022-09-10T11:02:50Z</time>
      </trkpt>
      <trkpt lat="45.13833" lon="6.33173">
        <ele>2580.322</ele>
        <time>2022-09-10T11:03:00Z</time>
      </trkpt>
      <trkpt lat="45.13829" lon="6.3317">
        <ele>2579.461</ele>
        <time>2022-09-10T11:03:09Z</time>
      </trkpt>
      <trkpt lat="45.13826" lon="6.33164">
        <ele>2580.585</ele>
        <time>2022-09-10T11:03:19Z</time>
      </trkpt>
      <trkpt lat="45.13821" lon="6.33157">
        <ele>2582.734</ele>
        <time>2022-09-10T11:03:28Z</time>
      </trkpt>
      <trkpt lat="45.13819" lon="6.33156">
        <ele>2584.349</ele>
        <time>2022-09-10T11:03:38Z</time>
      </trkpt>
      <trkpt lat="45.1382" lon="6.33154">
        <ele>2584.954</ele>
        <time>2022-09-10T11:03:48Z</time>
      </trkpt>
      <trkpt lat="45.13821" lon="6.33154">
        <ele>2584.301</ele>
        <time>2022-09-10T11:03:58Z</time>
      </trkpt>
      <trkpt lat="45.1382" lon="6.33152">
        <ele>2585.762</ele>
        <time>2022-09-10T11:04:07Z</time>
      </trkpt>
      <trkpt lat="45.1382" lon="6.33153">
        <ele>2586.346</ele>
        <time>2022-09-10T11:04:16Z</time>
      </trkpt>
      <trkpt lat="45.1382" lon="6.33153">
        <ele>2586.153</ele>
        <time>2022-09-10T11:04:25Z</time>
      </trkpt>
      <trkpt lat="45.1382" lon="6.33153">
        <ele>2586.635</ele>
        <time>2022-09-10T11:04:34Z</time>
      </trkpt>
      <trkpt lat="45.13823" lon="6.33149">
        <ele>2587.846</ele>
        <time>2022-09-10T11:04:44Z</time>
      </trkpt>
      <trkpt lat="45.1383" lon="6.33141">
        <ele>2589.229</ele>
        <time>2022-09-10T11:04:54Z</time>
      </trkpt>
      <trkpt lat="45.13836" lon="6.33135">
        <ele>2590.802</ele>
        <time>2022-09-10T11:05:03Z</time>
      </trkpt>
      <trkpt lat="45.13837" lon="6.33133">
        <ele>2592.202</ele>
        <time>2022-09-10T11:05:13Z</time>
      </trkpt>
      <trkpt lat="45.13837" lon="6.33132">
        <ele>2593.056</ele>
        <time>2022-09-10T11:05:23Z</time>
      </trkpt>
      <trkpt lat="45.13861" lon="6.33112">
        <ele>2592.116</ele>
        <time>2022-09-10T11:05:32Z</time>
      </trkpt>
      <trkpt lat="45.13875" lon="6.33096">
        <ele>2594.316</ele>
        <time>2022-09-10T11:05:41Z</time>
      </trkpt>
      <trkpt lat="45.13887" lon="6.33083">
        <ele>2594.694</ele>
        <time>2022-09-10T11:05:50Z</time>
      </trkpt>
      <trkpt lat="45.139" lon="6.33071">
        <ele>2596.391</ele>
        <time>2022-09-10T11:06:00Z</time>
      </trkpt>
      <trkpt lat="45.13912" lon="6.33061">
        <ele>2598.114</ele>
        <time>2022-09-10T11:06:10Z</time>
      </trkpt>
      <trkpt lat="45.13922" lon="6.33051">
        <ele>2598.974</ele>
        <time>2022-09-10T11:06:20Z</time>
      </trkpt>
      <trkpt lat="45.13932" lon="6.33039">
        <ele>2597.761</ele>
        <time>2022-09-10T11:06:29Z</time>
      </trkpt>
      <trkpt lat="45.13947" lon="6.33018">
        <ele>2597.831</ele>
        <time>2022-09-10T11:06:39Z</time>
      </trkpt>
      <trkpt lat="45.13956" lon="6.33006">
        <ele>2599.325</ele>
        <time>2022-09-10T11:06:48Z</time>
      </trkpt>
      <trkpt lat="45.13964" lon="6.32991">
        <ele>2601.069</ele>
        <time>2022-09-10T11:06:58Z</time>
      </trkpt>
      <trkpt lat="45.1397" lon="6.32985">
        <ele>2601.86</ele>
        <time>2022-09-10T11:07:08Z</time>
      </trkpt>
      <trkpt lat="45.13969" lon="6.32991">
        <ele>2598.939</ele>
        <time>2022-09-10T11:07:18Z</time>
      </trkpt>
      <trkpt lat="45.13969" lon="6.32992">
        <ele>2598.785</ele>
        <time>2022-09-10T11:07:28Z</time>
      </trkpt>
      <trkpt lat="45.13969" lon="6.32992">
        <ele>2598.693</ele>
        <time>2022-09-10T11:07:38Z</time>
      </trkpt>
      <trkpt lat="45.13969" lon="6.32995">
        <ele>2597.309</ele>
        <time>2022-09-10T11:07:47Z</time>
      </trkpt>
      <trkpt lat="45.13966" lon="6.32999">
        <ele>2596.012</ele>
        <time>2022-09-10T11:07:57Z</time>
      </trkpt>
      <trkpt lat="45.13965" lon="6.32999">
        <ele>2596.571</ele>
        <time>2022-09-10T11:08:07Z</time>
      </trkpt>
      <trkpt lat="45.13964" lon="6.32997">
        <ele>2597.329</ele>
        <time>2022-09-10T11:08:16Z</time>
      </trkpt>
      <trkpt lat="45.13965" lon="6.32999">
        <ele>2596.98</ele>
        <time>2022-09-10T11:08:25Z</time>
      </trkpt>
      <trkpt lat="45.13964" lon="6.32999">
        <ele>2596.927</ele>
        <time>2022-09-10T11:08:35Z</time>
      </trkpt>
      <trkpt lat="45.13964" lon="6.32998">
        <ele>2597.641</ele>
        <time>2022-09-10T11:08:44Z</time>
      </trkpt>
      <trkpt lat="45.13964" lon="6.32998">
        <ele>2597.425</ele>
        <time>2022-09-10T11:08:53Z</time>
      </trkpt>
      <trkpt lat="45.13964" lon="6.32998">
        <ele>2597.421</ele>
        <time>2022-09-10T11:09:02Z</time>
      </trkpt>
      <trkpt lat="45.13966" lon="6.33">
        <ele>2597.071</ele>
        <time>2022-09-10T11:09:12Z</time>
      </trkpt>
      <trkpt lat="45.1397" lon="6.32991">
        <ele>2600.086</ele>
        <time>2022-09-10T11:09:21Z</time>
      </trkpt>
      <trkpt lat="45.1397" lon="6.32991">
        <ele>2599.626</ele>
        <time>2022-09-10T11:09:31Z</time>
      </trkpt>
      <trkpt lat="45.1397" lon="6.3299">
        <ele>2599.656</ele>
        <time>2022-09-10T11:09:40Z</time>
      </trkpt>
      <trkpt lat="45.1397" lon="6.3299">
        <ele>2599.655</ele>
        <time>2022-09-10T11:09:49Z</time>
      </trkpt>
      <trkpt lat="45.13971" lon="6.32993">
        <ele>2597.299</ele>
        <time>2022-09-10T11:09:58Z</time>
      </trkpt>
      <trkpt lat="45.13971" lon="6.32994">
        <ele>2596.838</ele>
        <time>2022-09-10T11:10:08Z</time>
      </trkpt>
      <trkpt lat="45.13971" lon="6.32995">
        <ele>2596.327</ele>
        <time>2022-09-10T11:10:17Z</time>
      </trkpt>
      <trkpt lat="45.1397" lon="6.32996">
        <ele>2595.383</ele>
        <time>2022-09-10T11:10:26Z</time>
      </trkpt>
      <trkpt lat="45.13971" lon="6.32993">
        <ele>2593.846</ele>
        <time>2022-09-10T11:10:36Z</time>
      </trkpt>
      <trkpt lat="45.13971" lon="6.32993">
        <ele>2595.246</ele>
        <time>2022-09-10T11:10:45Z</time>
      </trkpt>
      <trkpt lat="45.1397" lon="6.32996">
        <ele>2596.429</ele>
        <time>2022-09-10T11:10:54Z</time>
      </trkpt>
      <trkpt lat="45.1397" lon="6.32995">
        <ele>2596.975</ele>
        <time>2022-09-10T11:11:04Z</time>
      </trkpt>
      <trkpt lat="45.1397" lon="6.32995">
        <ele>2596.997</ele>
        <time>2022-09-10T11:11:13Z</time>
      </trkpt>
      <trkpt lat="45.1397" lon="6.32995">
        <ele>2596.997</ele>
        <time>2022-09-10T11:11:23Z</time>
      </trkpt>
      <trkpt lat="45.1397" lon="6.32995">
        <ele>2596.983</ele>
        <time>2022-09-10T11:11:32Z</time>
      </trkpt>
      <trkpt lat="45.13971" lon="6.32994">
        <ele>2597.139</ele>
        <time>2022-09-10T11:11:42Z</time>
      </trkpt>
      <trkpt lat="45.13971" lon="6.32994">
        <ele>2596.792</ele>
        <time>2022-09-10T11:11:52Z</time>
      </trkpt>
      <trkpt lat="45.13971" lon="6.32994">
        <ele>2596.788</ele>
        <time>2022-09-10T11:12:01Z</time>
      </trkpt>
      <trkpt lat="45.13971" lon="6.32994">
        <ele>2596.788</ele>
        <time>2022-09-10T11:12:10Z</time>
      </trkpt>
      <trkpt lat="45.13971" lon="6.32994">
        <ele>2596.787</ele>
        <time>2022-09-10T11:12:20Z</time>
      </trkpt>
      <trkpt lat="45.13971" lon="6.32994">
        <ele>2596.796</ele>
        <time>2022-09-10T11:12:29Z</time>
      </trkpt>
      <trkpt lat="45.13971" lon="6.32994">
        <ele>2596.802</ele>
        <time>2022-09-10T11:12:38Z</time>
      </trkpt>
      <trkpt lat="45.13971" lon="6.32994">
        <ele>2596.817</ele>
        <time>2022-09-10T11:12:48Z</time>
      </trkpt>
      <trkpt lat="45.13971" lon="6.32994">
        <ele>2596.83</ele>
        <time>2022-09-10T11:12:58Z</time>
      </trkpt>
      <trkpt lat="45.13971" lon="6.32994">
        <ele>2596.837</ele>
        <time>2022-09-10T11:13:07Z</time>
      </trkpt>
      <trkpt lat="45.13971" lon="6.32994">
        <ele>2596.849</ele>
        <time>2022-09-10T11:13:17Z</time>
      </trkpt>
      <trkpt lat="45.13971" lon="6.32994">
        <ele>2596.856</ele>
        <time>2022-09-10T11:13:27Z</time>
      </trkpt>
      <trkpt lat="45.13971" lon="6.32994">
        <ele>2596.859</ele>
        <time>2022-09-10T11:13:36Z</time>
      </trkpt>
      <trkpt lat="45.13971" lon="6.32994">
        <ele>2596.866</ele>
        <time>2022-09-10T11:13:46Z</time>
      </trkpt>
      <trkpt lat="45.13971" lon="6.32994">
        <ele>2596.869</ele>
        <time>2022-09-10T11:13:55Z</time>
      </trkpt>
      <trkpt lat="45.13971" lon="6.32994">
        <ele>2596.874</ele>
        <time>2022-09-10T11:14:05Z</time>
      </trkpt>
      <trkpt lat="45.13971" lon="6.32994">
        <ele>2596.872</ele>
        <time>2022-09-10T11:14:15Z</time>
      </trkpt>
      <trkpt lat="45.13971" lon="6.32994">
        <ele>2596.877</ele>
        <time>2022-09-10T11:14:25Z</time>
      </trkpt>
      <trkpt lat="45.13971" lon="6.32994">
        <ele>2596.88</ele>
        <time>2022-09-10T11:14:34Z</time>
      </trkpt>
      <trkpt lat="45.1397" lon="6.32994">
        <ele>2596.88</ele>
        <time>2022-09-10T11:14:44Z</time>
      </trkpt>
      <trkpt lat="45.1397" lon="6.32994">
        <ele>2596.879</ele>
        <time>2022-09-10T11:14:53Z</time>
      </trkpt>
      <trkpt lat="45.1397" lon="6.32994">
        <ele>2596.889</ele>
        <time>2022-09-10T11:15:02Z</time>
      </trkpt>
      <trkpt lat="45.1397" lon="6.32994">
        <ele>2596.889</ele>
        <time>2022-09-10T11:15:12Z</time>
      </trkpt>
      <trkpt lat="45.1397" lon="6.32994">
        <ele>2596.89</ele>
        <time>2022-09-10T11:15:22Z</time>
      </trkpt>
      <trkpt lat="45.1397" lon="6.32994">
        <ele>2596.898</ele>
        <time>2022-09-10T11:15:32Z</time>
      </trkpt>
      <trkpt lat="45.13969" lon="6.32995">
        <ele>2597.61</ele>
        <time>2022-09-10T11:15:41Z</time>
      </trkpt>
      <trkpt lat="45.13969" lon="6.32995">
        <ele>2597.527</ele>
        <time>2022-09-10T11:15:51Z</time>
      </trkpt>
      <trkpt lat="45.13969" lon="6.32995">
        <ele>2596.832</ele>
        <time>2022-09-10T11:16:00Z</time>
      </trkpt>
      <trkpt lat="45.13969" lon="6.32994">
        <ele>2597.779</ele>
        <time>2022-09-10T11:16:09Z</time>
      </trkpt>
      <trkpt lat="45.13969" lon="6.32993">
        <ele>2597.996</ele>
        <time>2022-09-10T11:16:19Z</time>
      </trkpt>
      <trkpt lat="45.13969" lon="6.32993">
        <ele>2598.007</ele>
        <time>2022-09-10T11:16:28Z</time>
      </trkpt>
      <trkpt lat="45.13969" lon="6.32993">
        <ele>2598.005</ele>
        <time>2022-09-10T11:16:37Z</time>
      </trkpt>
      <trkpt lat="45.13969" lon="6.32993">
        <ele>2597.984</ele>
        <time>2022-09-10T11:16:47Z</time>
      </trkpt>
      <trkpt lat="45.13969" lon="6.32994">
        <ele>2597.951</ele>
        <time>2022-09-10T11:16:57Z</time>
      </trkpt>
      <trkpt lat="45.13969" lon="6.32994">
        <ele>2597.939</ele>
        <time>2022-09-10T11:17:07Z</time>
      </trkpt>
      <trkpt lat="45.13969" lon="6.32994">
        <ele>2597.922</ele>
        <time>2022-09-10T11:17:16Z</time>
      </trkpt>
      <trkpt lat="45.13969" lon="6.32994">
        <ele>2597.884</ele>
        <time>2022-09-10T11:17:26Z</time>
      </trkpt>
      <trkpt lat="45.13969" lon="6.32994">
        <ele>2597.864</ele>
        <time>2022-09-10T11:17:35Z</time>
      </trkpt>
      <trkpt lat="45.13969" lon="6.32994">
        <ele>2597.837</ele>
        <time>2022-09-10T11:17:44Z</time>
      </trkpt>
      <trkpt lat="45.13969" lon="6.32994">
        <ele>2597.814</ele>
        <time>2022-09-10T11:17:54Z</time>
      </trkpt>
      <trkpt lat="45.13969" lon="6.32994">
        <ele>2597.792</ele>
        <time>2022-09-10T11:18:04Z</time>
      </trkpt>
      <trkpt lat="45.13969" lon="6.32994">
        <ele>2597.784</ele>
        <time>2022-09-10T11:18:14Z</time>
      </trkpt>
      <trkpt lat="45.13969" lon="6.32994">
        <ele>2597.784</ele>
        <time>2022-09-10T11:18:23Z</time>
      </trkpt>
      <trkpt lat="45.13969" lon="6.32994">
        <ele>2597.789</ele>
        <time>2022-09-10T11:18:32Z</time>
      </trkpt>
      <trkpt lat="45.13969" lon="6.32994">
        <ele>2597.779</ele>
        <time>2022-09-10T11:18:42Z</time>
      </trkpt>
      <trkpt lat="45.13969" lon="6.32994">
        <ele>2597.769</ele>
        <time>2022-09-10T11:18:52Z</time>
      </trkpt>
      <trkpt lat="45.13969" lon="6.32994">
        <ele>2597.76</ele>
        <time>2022-09-10T11:19:01Z</time>
      </trkpt>
      <trkpt lat="45.13969" lon="6.32994">
        <ele>2597.747</ele>
        <time>2022-09-10T11:19:11Z</time>
      </trkpt>
      <trkpt lat="45.13969" lon="6.32994">
        <ele>2597.742</ele>
        <time>2022-09-10T11:19:20Z</time>
      </trkpt>
      <trkpt lat="45.13969" lon="6.32993">
        <ele>2597.743</ele>
        <time>2022-09-10T11:19:29Z</time>
      </trkpt>
      <trkpt lat="45.13969" lon="6.32993">
        <ele>2597.733</ele>
        <time>2022-09-10T11:19:38Z</time>
      </trkpt>
      <trkpt lat="45.13969" lon="6.32993">
        <ele>2597.729</ele>
        <time>2022-09-10T11:19:48Z</time>
      </trkpt>
      <trkpt lat="45.13969" lon="6.32993">
        <ele>2597.712</ele>
        <time>2022-09-10T11:19:57Z</time>
      </trkpt>
      <trkpt lat="45.13969" lon="6.32994">
        <ele>2598.172</ele>
        <time>2022-09-10T11:20:07Z</time>
      </trkpt>
      <trkpt lat="45.1397" lon="6.32994">
        <ele>2598.73</ele>
        <time>2022-09-10T11:20:17Z</time>
      </trkpt>
      <trkpt lat="45.1397" lon="6.32994">
        <ele>2598.731</ele>
        <time>2022-09-10T11:20:26Z</time>
      </trkpt>
      <trkpt lat="45.1397" lon="6.32993">
        <ele>2599.041</ele>
        <time>2022-09-10T11:20:35Z</time>
      </trkpt>
      <trkpt lat="45.1397" lon="6.32993">
        <ele>2599.205</ele>
        <time>2022-09-10T11:20:45Z</time>
      </trkpt>
      <trkpt lat="45.1397" lon="6.32993">
        <ele>2599.232</ele>
        <time>2022-09-10T11:20:55Z</time>
      </trkpt>
      <trkpt lat="45.1397" lon="6.32993">
        <ele>2599.244</ele>
        <time>2022-09-10T11:21:04Z</time>
      </trkpt>
      <trkpt lat="45.1397" lon="6.32993">
        <ele>2599.262</ele>
        <time>2022-09-10T11:21:14Z</time>
      </trkpt>
      <trkpt lat="45.1397" lon="6.32993">
        <ele>2599.28</ele>
        <time>2022-09-10T11:21:24Z</time>
      </trkpt>
      <trkpt lat="45.1397" lon="6.32993">
        <ele>2599.289</ele>
        <time>2022-09-10T11:21:33Z</time>
      </trkpt>
      <trkpt lat="45.1397" lon="6.32993">
        <ele>2599.298</ele>
        <time>2022-09-10T11:21:42Z</time>
      </trkpt>
      <trkpt lat="45.1397" lon="6.32993">
        <ele>2599.301</ele>
        <time>2022-09-10T11:21:51Z</time>
      </trkpt>
      <trkpt lat="45.1397" lon="6.32993">
        <ele>2599.315</ele>
        <time>2022-09-10T11:22:01Z</time>
      </trkpt>
      <trkpt lat="45.1397" lon="6.32993">
        <ele>2599.312</ele>
        <time>2022-09-10T11:22:11Z</time>
      </trkpt>
      <trkpt lat="45.1397" lon="6.32993">
        <ele>2599.304</ele>
        <time>2022-09-10T11:22:20Z</time>
      </trkpt>
      <trkpt lat="45.1397" lon="6.32993">
        <ele>2599.3</ele>
        <time>2022-09-10T11:22:30Z</time>
      </trkpt>
      <trkpt lat="45.1397" lon="6.32993">
        <ele>2599.3</ele>
        <time>2022-09-10T11:22:40Z</time>
      </trkpt>
      <trkpt lat="45.1397" lon="6.32993">
        <ele>2599.292</ele>
        <time>2022-09-10T11:22:49Z</time>
      </trkpt>
      <trkpt lat="45.1397" lon="6.32993">
        <ele>2599.281</ele>
        <time>2022-09-10T11:22:59Z</time>
      </trkpt>
      <trkpt lat="45.1397" lon="6.32993">
        <ele>2599.273</ele>
        <time>2022-09-10T11:23:09Z</time>
      </trkpt>
      <trkpt lat="45.1397" lon="6.32993">
        <ele>2599.273</ele>
        <time>2022-09-10T11:23:18Z</time>
      </trkpt>
      <trkpt lat="45.1397" lon="6.32993">
        <ele>2599.277</ele>
        <time>2022-09-10T11:23:28Z</time>
      </trkpt>
      <trkpt lat="45.13969" lon="6.32993">
        <ele>2599.272</ele>
        <time>2022-09-10T11:23:38Z</time>
      </trkpt>
      <trkpt lat="45.13969" lon="6.32993">
        <ele>2599.259</ele>
        <time>2022-09-10T11:23:47Z</time>
      </trkpt>
      <trkpt lat="45.13969" lon="6.32993">
        <ele>2599.243</ele>
        <time>2022-09-10T11:23:56Z</time>
      </trkpt>
      <trkpt lat="45.1397" lon="6.32993">
        <ele>2598.828</ele>
        <time>2022-09-10T11:24:06Z</time>
      </trkpt>
      <trkpt lat="45.13967" lon="6.32994">
        <ele>2597.794</ele>
        <time>2022-09-10T11:24:15Z</time>
      </trkpt>
      <trkpt lat="45.13966" lon="6.32994">
        <ele>2598.711</ele>
        <time>2022-09-10T11:24:24Z</time>
      </trkpt>
      <trkpt lat="45.13967" lon="6.3299">
        <ele>2599.058</ele>
        <time>2022-09-10T11:24:34Z</time>
      </trkpt>
      <trkpt lat="45.13963" lon="6.32989">
        <ele>2597.023</ele>
        <time>2022-09-10T11:24:43Z</time>
      </trkpt>
      <trkpt lat="45.13961" lon="6.32988">
        <ele>2596.285</ele>
        <time>2022-09-10T11:24:53Z</time>
      </trkpt>
      <trkpt lat="45.13961" lon="6.32987">
        <ele>2596.466</ele>
        <time>2022-09-10T11:25:02Z</time>
      </trkpt>
      <trkpt lat="45.13961" lon="6.32986">
        <ele>2598.394</ele>
        <time>2022-09-10T11:25:11Z</time>
      </trkpt>
      <trkpt lat="45.13961" lon="6.32985">
        <ele>2599.24</ele>
        <time>2022-09-10T11:25:20Z</time>
      </trkpt>
      <trkpt lat="45.13961" lon="6.32985">
        <ele>2599.212</ele>
        <time>2022-09-10T11:25:29Z</time>
      </trkpt>
      <trkpt lat="45.13961" lon="6.32985">
        <ele>2599.185</ele>
        <time>2022-09-10T11:25:38Z</time>
      </trkpt>
      <trkpt lat="45.13961" lon="6.32985">
        <ele>2599.178</ele>
        <time>2022-09-10T11:25:48Z</time>
      </trkpt>
      <trkpt lat="45.13961" lon="6.32985">
        <ele>2599.167</ele>
        <time>2022-09-10T11:25:58Z</time>
      </trkpt>
      <trkpt lat="45.13961" lon="6.32985">
        <ele>2599.155</ele>
        <time>2022-09-10T11:26:08Z</time>
      </trkpt>
      <trkpt lat="45.13961" lon="6.32985">
        <ele>2599.144</ele>
        <time>2022-09-10T11:26:17Z</time>
      </trkpt>
      <trkpt lat="45.1396" lon="6.32987">
        <ele>2599.558</ele>
        <time>2022-09-10T11:26:26Z</time>
      </trkpt>
      <trkpt lat="45.13962" lon="6.32991">
        <ele>2599.156</ele>
        <time>2022-09-10T11:26:36Z</time>
      </trkpt>
      <trkpt lat="45.13962" lon="6.32991">
        <ele>2599.111</ele>
        <time>2022-09-10T11:26:46Z</time>
      </trkpt>
      <trkpt lat="45.13962" lon="6.32991">
        <ele>2599.526</ele>
        <time>2022-09-10T11:26:56Z</time>
      </trkpt>
      <trkpt lat="45.13961" lon="6.32991">
        <ele>2599.128</ele>
        <time>2022-09-10T11:27:06Z</time>
      </trkpt>
      <trkpt lat="45.13961" lon="6.32991">
        <ele>2599.14</ele>
        <time>2022-09-10T11:27:16Z</time>
      </trkpt>
      <trkpt lat="45.13961" lon="6.32991">
        <ele>2599.136</ele>
        <time>2022-09-10T11:27:26Z</time>
      </trkpt>
      <trkpt lat="45.13961" lon="6.32991">
        <ele>2599.129</ele>
        <time>2022-09-10T11:27:35Z</time>
      </trkpt>
      <trkpt lat="45.13961" lon="6.32991">
        <ele>2599.113</ele>
        <time>2022-09-10T11:27:45Z</time>
      </trkpt>
      <trkpt lat="45.13962" lon="6.32994">
        <ele>2599.507</ele>
        <time>2022-09-10T11:27:55Z</time>
      </trkpt>
      <trkpt lat="45.13962" lon="6.32993">
        <ele>2600.088</ele>
        <time>2022-09-10T11:28:05Z</time>
      </trkpt>
      <trkpt lat="45.13962" lon="6.32993">
        <ele>2601.116</ele>
        <time>2022-09-10T11:28:14Z</time>
      </trkpt>
      <trkpt lat="45.13963" lon="6.32993">
        <ele>2600.331</ele>
        <time>2022-09-10T11:28:24Z</time>
      </trkpt>
      <trkpt lat="45.13963" lon="6.32994">
        <ele>2599.684</ele>
        <time>2022-09-10T11:28:34Z</time>
      </trkpt>
      <trkpt lat="45.13962" lon="6.32994">
        <ele>2597.788</ele>
        <time>2022-09-10T11:28:44Z</time>
      </trkpt>
      <trkpt lat="45.13963" lon="6.32996">
        <ele>2599.434</ele>
        <time>2022-09-10T11:28:53Z</time>
      </trkpt>
      <trkpt lat="45.13963" lon="6.32995">
        <ele>2599.488</ele>
        <time>2022-09-10T11:29:03Z</time>
      </trkpt>
      <trkpt lat="45.13963" lon="6.32995">
        <ele>2599.511</ele>
        <time>2022-09-10T11:29:13Z</time>
      </trkpt>
      <trkpt lat="45.13963" lon="6.32995">
        <ele>2599.514</ele>
        <time>2022-09-10T11:29:23Z</time>
      </trkpt>
      <trkpt lat="45.13963" lon="6.32995">
        <ele>2599.529</ele>
        <time>2022-09-10T11:29:32Z</time>
      </trkpt>
      <trkpt lat="45.13963" lon="6.32995">
        <ele>2599.529</ele>
        <time>2022-09-10T11:29:41Z</time>
      </trkpt>
      <trkpt lat="45.13963" lon="6.32995">
        <ele>2599.526</ele>
        <time>2022-09-10T11:29:51Z</time>
      </trkpt>
      <trkpt lat="45.13963" lon="6.32995">
        <ele>2599.536</ele>
        <time>2022-09-10T11:30:01Z</time>
      </trkpt>
      <trkpt lat="45.13963" lon="6.32995">
        <ele>2599.544</ele>
        <time>2022-09-10T11:30:10Z</time>
      </trkpt>
      <trkpt lat="45.13963" lon="6.32994">
        <ele>2599.172</ele>
        <time>2022-09-10T11:30:20Z</time>
      </trkpt>
      <trkpt lat="45.13964" lon="6.32994">
        <ele>2599.712</ele>
        <time>2022-09-10T11:30:29Z</time>
      </trkpt>
      <trkpt lat="45.13964" lon="6.32993">
        <ele>2599.728</ele>
        <time>2022-09-10T11:30:39Z</time>
      </trkpt>
      <trkpt lat="45.13963" lon="6.32994">
        <ele>2599.776</ele>
        <time>2022-09-10T11:30:49Z</time>
      </trkpt>
      <trkpt lat="45.13963" lon="6.32993">
        <ele>2601.095</ele>
        <time>2022-09-10T11:30:59Z</time>
      </trkpt>
      <trkpt lat="45.13963" lon="6.32993">
        <ele>2601.085</ele>
        <time>2022-09-10T11:31:09Z</time>
      </trkpt>
      <trkpt lat="45.13962" lon="6.32987">
        <ele>2598.768</ele>
        <time>2022-09-10T11:31:19Z</time>
      </trkpt>
      <trkpt lat="45.13961" lon="6.32986">
        <ele>2595.378</ele>
        <time>2022-09-10T11:31:28Z</time>
      </trkpt>
      <trkpt lat="45.13961" lon="6.32986">
        <ele>2595.9</ele>
        <time>2022-09-10T11:31:37Z</time>
      </trkpt>
      <trkpt lat="45.13961" lon="6.32987">
        <ele>2596.017</ele>
        <time>2022-09-10T11:31:47Z</time>
      </trkpt>
      <trkpt lat="45.13961" lon="6.32987">
        <ele>2596.01</ele>
        <time>2022-09-10T11:31:57Z</time>
      </trkpt>
      <trkpt lat="45.13961" lon="6.32987">
        <ele>2595.995</ele>
        <time>2022-09-10T11:32:06Z</time>
      </trkpt>
      <trkpt lat="45.13961" lon="6.32987">
        <ele>2595.98</ele>
        <time>2022-09-10T11:32:16Z</time>
      </trkpt>
      <trkpt lat="45.13961" lon="6.32987">
        <ele>2595.968</ele>
        <time>2022-09-10T11:32:26Z</time>
      </trkpt>
      <trkpt lat="45.13961" lon="6.32987">
        <ele>2595.957</ele>
        <time>2022-09-10T11:32:36Z</time>
      </trkpt>
      <trkpt lat="45.13961" lon="6.32987">
        <ele>2595.955</ele>
        <time>2022-09-10T11:32:46Z</time>
      </trkpt>
      <trkpt lat="45.13961" lon="6.32987">
        <ele>2595.951</ele>
        <time>2022-09-10T11:32:56Z</time>
      </trkpt>
      <trkpt lat="45.13961" lon="6.32987">
        <ele>2595.934</ele>
        <time>2022-09-10T11:33:05Z</time>
      </trkpt>
      <trkpt lat="45.13961" lon="6.32987">
        <ele>2595.936</ele>
        <time>2022-09-10T11:33:15Z</time>
      </trkpt>
      <trkpt lat="45.13961" lon="6.32987">
        <ele>2595.94</ele>
        <time>2022-09-10T11:33:24Z</time>
      </trkpt>
      <trkpt lat="45.13961" lon="6.32987">
        <ele>2595.938</ele>
        <time>2022-09-10T11:33:34Z</time>
      </trkpt>
      <trkpt lat="45.13961" lon="6.32987">
        <ele>2595.937</ele>
        <time>2022-09-10T11:33:43Z</time>
      </trkpt>
      <trkpt lat="45.13961" lon="6.32987">
        <ele>2595.938</ele>
        <time>2022-09-10T11:33:53Z</time>
      </trkpt>
      <trkpt lat="45.13961" lon="6.32987">
        <ele>2595.933</ele>
        <time>2022-09-10T11:34:02Z</time>
      </trkpt>
      <trkpt lat="45.13961" lon="6.32987">
        <ele>2595.928</ele>
        <time>2022-09-10T11:34:12Z</time>
      </trkpt>
      <trkpt lat="45.13961" lon="6.32987">
        <ele>2595.924</ele>
        <time>2022-09-10T11:34:21Z</time>
      </trkpt>
      <trkpt lat="45.13961" lon="6.32987">
        <ele>2595.917</ele>
        <time>2022-09-10T11:34:30Z</time>
      </trkpt>
      <trkpt lat="45.13961" lon="6.32987">
        <ele>2595.904</ele>
        <time>2022-09-10T11:34:40Z</time>
      </trkpt>
      <trkpt lat="45.13961" lon="6.32987">
        <ele>2595.897</ele>
        <time>2022-09-10T11:34:49Z</time>
      </trkpt>
      <trkpt lat="45.13961" lon="6.32987">
        <ele>2595.886</ele>
        <time>2022-09-10T11:34:59Z</time>
      </trkpt>
      <trkpt lat="45.13961" lon="6.32987">
        <ele>2595.876</ele>
        <time>2022-09-10T11:35:08Z</time>
      </trkpt>
      <trkpt lat="45.13961" lon="6.32987">
        <ele>2595.871</ele>
        <time>2022-09-10T11:35:18Z</time>
      </trkpt>
      <trkpt lat="45.13961" lon="6.32987">
        <ele>2595.863</ele>
        <time>2022-09-10T11:35:28Z</time>
      </trkpt>
      <trkpt lat="45.13961" lon="6.32987">
        <ele>2595.853</ele>
        <time>2022-09-10T11:35:37Z</time>
      </trkpt>
      <trkpt lat="45.13961" lon="6.32987">
        <ele>2595.845</ele>
        <time>2022-09-10T11:35:47Z</time>
      </trkpt>
      <trkpt lat="45.13961" lon="6.32987">
        <ele>2595.842</ele>
        <time>2022-09-10T11:35:56Z</time>
      </trkpt>
      <trkpt lat="45.13961" lon="6.32987">
        <ele>2595.839</ele>
        <time>2022-09-10T11:36:05Z</time>
      </trkpt>
      <trkpt lat="45.13961" lon="6.32987">
        <ele>2595.834</ele>
        <time>2022-09-10T11:36:15Z</time>
      </trkpt>
      <trkpt lat="45.13961" lon="6.32987">
        <ele>2595.831</ele>
        <time>2022-09-10T11:36:24Z</time>
      </trkpt>
      <trkpt lat="45.13961" lon="6.32987">
        <ele>2595.832</ele>
        <time>2022-09-10T11:36:34Z</time>
      </trkpt>
      <trkpt lat="45.1396" lon="6.32986">
        <ele>2596.71</ele>
        <time>2022-09-10T11:36:44Z</time>
      </trkpt>
      <trkpt lat="45.1396" lon="6.32986">
        <ele>2596.094</ele>
        <time>2022-09-10T11:36:54Z</time>
      </trkpt>
      <trkpt lat="45.1396" lon="6.32986">
        <ele>2596.043</ele>
        <time>2022-09-10T11:37:04Z</time>
      </trkpt>
      <trkpt lat="45.1396" lon="6.32986">
        <ele>2596.029</ele>
        <time>2022-09-10T11:37:14Z</time>
      </trkpt>
      <trkpt lat="45.1396" lon="6.32986">
        <ele>2596.041</ele>
        <time>2022-09-10T11:37:24Z</time>
      </trkpt>
      <trkpt lat="45.1396" lon="6.32986">
        <ele>2596.034</ele>
        <time>2022-09-10T11:37:33Z</time>
      </trkpt>
      <trkpt lat="45.1396" lon="6.32986">
        <ele>2596.115</ele>
        <time>2022-09-10T11:37:43Z</time>
      </trkpt>
      <trkpt lat="45.13961" lon="6.32986">
        <ele>2596.366</ele>
        <time>2022-09-10T11:37:52Z</time>
      </trkpt>
      <trkpt lat="45.13961" lon="6.32986">
        <ele>2596.203</ele>
        <time>2022-09-10T11:38:01Z</time>
      </trkpt>
      <trkpt lat="45.13961" lon="6.32986">
        <ele>2596.202</ele>
        <time>2022-09-10T11:38:10Z</time>
      </trkpt>
      <trkpt lat="45.13961" lon="6.32986">
        <ele>2596.201</ele>
        <time>2022-09-10T11:38:20Z</time>
      </trkpt>
      <trkpt lat="45.13961" lon="6.32986">
        <ele>2596.196</ele>
        <time>2022-09-10T11:38:29Z</time>
      </trkpt>
      <trkpt lat="45.13961" lon="6.32986">
        <ele>2596.19</ele>
        <time>2022-09-10T11:38:38Z</time>
      </trkpt>
      <trkpt lat="45.13961" lon="6.32986">
        <ele>2596.185</ele>
        <time>2022-09-10T11:38:47Z</time>
      </trkpt>
      <trkpt lat="45.13961" lon="6.32986">
        <ele>2596.176</ele>
        <time>2022-09-10T11:38:57Z</time>
      </trkpt>
      <trkpt lat="45.13961" lon="6.32986">
        <ele>2596.171</ele>
        <time>2022-09-10T11:39:06Z</time>
      </trkpt>
      <trkpt lat="45.13961" lon="6.32986">
        <ele>2596.163</ele>
        <time>2022-09-10T11:39:16Z</time>
      </trkpt>
      <trkpt lat="45.13961" lon="6.32986">
        <ele>2596.157</ele>
        <time>2022-09-10T11:39:25Z</time>
      </trkpt>
      <trkpt lat="45.13961" lon="6.32986">
        <ele>2596.149</ele>
        <time>2022-09-10T11:39:35Z</time>
      </trkpt>
      <trkpt lat="45.13961" lon="6.32986">
        <ele>2596.141</ele>
        <time>2022-09-10T11:39:45Z</time>
      </trkpt>
      <trkpt lat="45.13961" lon="6.32986">
        <ele>2596.135</ele>
        <time>2022-09-10T11:39:54Z</time>
      </trkpt>
      <trkpt lat="45.13961" lon="6.32986">
        <ele>2596.126</ele>
        <time>2022-09-10T11:40:04Z</time>
      </trkpt>
      <trkpt lat="45.13961" lon="6.32986">
        <ele>2596.119</ele>
        <time>2022-09-10T11:40:14Z</time>
      </trkpt>
      <trkpt lat="45.13961" lon="6.32986">
        <ele>2596.112</ele>
        <time>2022-09-10T11:40:23Z</time>
      </trkpt>
      <trkpt lat="45.13961" lon="6.32986">
        <ele>2596.107</ele>
        <time>2022-09-10T11:40:32Z</time>
      </trkpt>
      <trkpt lat="45.13961" lon="6.32986">
        <ele>2596.105</ele>
        <time>2022-09-10T11:40:42Z</time>
      </trkpt>
      <trkpt lat="45.13961" lon="6.32986">
        <ele>2596.098</ele>
        <time>2022-09-10T11:40:52Z</time>
      </trkpt>
      <trkpt lat="45.13961" lon="6.32986">
        <ele>2596.092</ele>
        <time>2022-09-10T11:41:02Z</time>
      </trkpt>
      <trkpt lat="45.13961" lon="6.32986">
        <ele>2596.096</ele>
        <time>2022-09-10T11:41:12Z</time>
      </trkpt>
      <trkpt lat="45.13961" lon="6.32986">
        <ele>2596.093</ele>
        <time>2022-09-10T11:41:22Z</time>
      </trkpt>
      <trkpt lat="45.13961" lon="6.32986">
        <ele>2596.089</ele>
        <time>2022-09-10T11:41:32Z</time>
      </trkpt>
      <trkpt lat="45.13961" lon="6.32986">
        <ele>2596.083</ele>
        <time>2022-09-10T11:41:42Z</time>
      </trkpt>
      <trkpt lat="45.13961" lon="6.32986">
        <ele>2596.08</ele>
        <time>2022-09-10T11:41:52Z</time>
      </trkpt>
      <trkpt lat="45.13961" lon="6.32986">
        <ele>2596.079</ele>
        <time>2022-09-10T11:42:02Z</time>
      </trkpt>
      <trkpt lat="45.13961" lon="6.32986">
        <ele>2596.083</ele>
        <time>2022-09-10T11:42:12Z</time>
      </trkpt>
      <trkpt lat="45.13961" lon="6.32986">
        <ele>2596.084</ele>
        <time>2022-09-10T11:42:21Z</time>
      </trkpt>
      <trkpt lat="45.13961" lon="6.32986">
        <ele>2596.078</ele>
        <time>2022-09-10T11:42:31Z</time>
      </trkpt>
      <trkpt lat="45.13961" lon="6.32986">
        <ele>2596.068</ele>
        <time>2022-09-10T11:42:41Z</time>
      </trkpt>
      <trkpt lat="45.13961" lon="6.32986">
        <ele>2596.062</ele>
        <time>2022-09-10T11:42:50Z</time>
      </trkpt>
      <trkpt lat="45.13961" lon="6.32986">
        <ele>2596.055</ele>
        <time>2022-09-10T11:42:59Z</time>
      </trkpt>
      <trkpt lat="45.13961" lon="6.32986">
        <ele>2596.046</ele>
        <time>2022-09-10T11:43:08Z</time>
      </trkpt>
      <trkpt lat="45.13961" lon="6.32986">
        <ele>2596.039</ele>
        <time>2022-09-10T11:43:18Z</time>
      </trkpt>
      <trkpt lat="45.13961" lon="6.32986">
        <ele>2596.032</ele>
        <time>2022-09-10T11:43:27Z</time>
      </trkpt>
      <trkpt lat="45.13961" lon="6.32986">
        <ele>2596.022</ele>
        <time>2022-09-10T11:43:37Z</time>
      </trkpt>
      <trkpt lat="45.13961" lon="6.32986">
        <ele>2596.019</ele>
        <time>2022-09-10T11:43:47Z</time>
      </trkpt>
      <trkpt lat="45.13961" lon="6.32986">
        <ele>2596.013</ele>
        <time>2022-09-10T11:43:56Z</time>
      </trkpt>
      <trkpt lat="45.13961" lon="6.32988">
        <ele>2596.938</ele>
        <time>2022-09-10T11:44:06Z</time>
      </trkpt>
      <trkpt lat="45.13966" lon="6.32991">
        <ele>2599.043</ele>
        <time>2022-09-10T11:44:16Z</time>
      </trkpt>
      <trkpt lat="45.13966" lon="6.32991">
        <ele>2599.647</ele>
        <time>2022-09-10T11:44:26Z</time>
      </trkpt>
      <trkpt lat="45.1397" lon="6.3299">
        <ele>2599.611</ele>
        <time>2022-09-10T11:44:36Z</time>
      </trkpt>
      <trkpt lat="45.13969" lon="6.3299">
        <ele>2599.917</ele>
        <time>2022-09-10T11:44:45Z</time>
      </trkpt>
      <trkpt lat="45.13969" lon="6.3299">
        <ele>2600.078</ele>
        <time>2022-09-10T11:44:55Z</time>
      </trkpt>
      <trkpt lat="45.1397" lon="6.3299">
        <ele>2601.189</ele>
        <time>2022-09-10T11:45:04Z</time>
      </trkpt>
      <trkpt lat="45.1397" lon="6.3299">
        <ele>2601.675</ele>
        <time>2022-09-10T11:45:13Z</time>
      </trkpt>
      <trkpt lat="45.1397" lon="6.3299">
        <ele>2601.663</ele>
        <time>2022-09-10T11:45:22Z</time>
      </trkpt>
      <trkpt lat="45.13969" lon="6.32989">
        <ele>2601.254</ele>
        <time>2022-09-10T11:45:31Z</time>
      </trkpt>
      <trkpt lat="45.13969" lon="6.32989">
        <ele>2601.116</ele>
        <time>2022-09-10T11:45:41Z</time>
      </trkpt>
      <trkpt lat="45.13969" lon="6.32989">
        <ele>2600.85</ele>
        <time>2022-09-10T11:45:50Z</time>
      </trkpt>
      <trkpt lat="45.13969" lon="6.32989">
        <ele>2600.843</ele>
        <time>2022-09-10T11:45:59Z</time>
      </trkpt>
      <trkpt lat="45.13969" lon="6.32989">
        <ele>2600.88</ele>
        <time>2022-09-10T11:46:09Z</time>
      </trkpt>
      <trkpt lat="45.13969" lon="6.32989">
        <ele>2600.548</ele>
        <time>2022-09-10T11:46:19Z</time>
      </trkpt>
      <trkpt lat="45.13969" lon="6.32992">
        <ele>2598.692</ele>
        <time>2022-09-10T11:46:28Z</time>
      </trkpt>
      <trkpt lat="45.13969" lon="6.32992">
        <ele>2599.645</ele>
        <time>2022-09-10T11:46:37Z</time>
      </trkpt>
      <trkpt lat="45.13969" lon="6.3299">
        <ele>2599.344</ele>
        <time>2022-09-10T11:46:46Z</time>
      </trkpt>
      <trkpt lat="45.13968" lon="6.32989">
        <ele>2599.736</ele>
        <time>2022-09-10T11:46:56Z</time>
      </trkpt>
      <trkpt lat="45.13968" lon="6.32989">
        <ele>2599.751</ele>
        <time>2022-09-10T11:47:06Z</time>
      </trkpt>
      <trkpt lat="45.13968" lon="6.3299">
        <ele>2599.927</ele>
        <time>2022-09-10T11:47:16Z</time>
      </trkpt>
      <trkpt lat="45.13968" lon="6.3299">
        <ele>2600.01</ele>
        <time>2022-09-10T11:47:25Z</time>
      </trkpt>
      <trkpt lat="45.13968" lon="6.3299">
        <ele>2600.056</ele>
        <time>2022-09-10T11:47:34Z</time>
      </trkpt>
      <trkpt lat="45.13969" lon="6.32991">
        <ele>2600.85</ele>
        <time>2022-09-10T11:47:44Z</time>
      </trkpt>
      <trkpt lat="45.13969" lon="6.32992">
        <ele>2598.949</ele>
        <time>2022-09-10T11:47:53Z</time>
      </trkpt>
      <trkpt lat="45.13969" lon="6.32992">
        <ele>2597.773</ele>
        <time>2022-09-10T11:48:03Z</time>
      </trkpt>
      <trkpt lat="45.13969" lon="6.32992">
        <ele>2597.781</ele>
        <time>2022-09-10T11:48:13Z</time>
      </trkpt>
      <trkpt lat="45.13969" lon="6.32992">
        <ele>2597.796</ele>
        <time>2022-09-10T11:48:23Z</time>
      </trkpt>
      <trkpt lat="45.13969" lon="6.32992">
        <ele>2597.978</ele>
        <time>2022-09-10T11:48:32Z</time>
      </trkpt>
      <trkpt lat="45.13969" lon="6.32992">
        <ele>2598.09</ele>
        <time>2022-09-10T11:48:41Z</time>
      </trkpt>
      <trkpt lat="45.13969" lon="6.32992">
        <ele>2598.218</ele>
        <time>2022-09-10T11:48:51Z</time>
      </trkpt>
      <trkpt lat="45.13969" lon="6.32992">
        <ele>2598.312</ele>
        <time>2022-09-10T11:49:01Z</time>
      </trkpt>
      <trkpt lat="45.13968" lon="6.32991">
        <ele>2598.651</ele>
        <time>2022-09-10T11:49:10Z</time>
      </trkpt>
      <trkpt lat="45.13969" lon="6.32991">
        <ele>2598.592</ele>
        <time>2022-09-10T11:49:19Z</time>
      </trkpt>
      <trkpt lat="45.13968" lon="6.3299">
        <ele>2598.447</ele>
        <time>2022-09-10T11:49:28Z</time>
      </trkpt>
      <trkpt lat="45.13969" lon="6.3299">
        <ele>2598.402</ele>
        <time>2022-09-10T11:49:38Z</time>
      </trkpt>
      <trkpt lat="45.13969" lon="6.32989">
        <ele>2601.264</ele>
        <time>2022-09-10T11:49:48Z</time>
      </trkpt>
      <trkpt lat="45.13968" lon="6.32989">
        <ele>2601.011</ele>
        <time>2022-09-10T11:49:57Z</time>
      </trkpt>
      <trkpt lat="45.13968" lon="6.32988">
        <ele>2600.912</ele>
        <time>2022-09-10T11:50:07Z</time>
      </trkpt>
      <trkpt lat="45.13968" lon="6.32988">
        <ele>2600.892</ele>
        <time>2022-09-10T11:50:17Z</time>
      </trkpt>
      <trkpt lat="45.13968" lon="6.32989">
        <ele>2600.204</ele>
        <time>2022-09-10T11:50:26Z</time>
      </trkpt>
      <trkpt lat="45.13967" lon="6.32989">
        <ele>2599.842</ele>
        <time>2022-09-10T11:50:36Z</time>
      </trkpt>
      <trkpt lat="45.13967" lon="6.32989">
        <ele>2599.823</ele>
        <time>2022-09-10T11:50:44Z</time>
      </trkpt>
      <trkpt lat="45.1397" lon="6.3299">
        <ele>2600.932</ele>
        <time>2022-09-10T11:50:54Z</time>
      </trkpt>
      <trkpt lat="45.1397" lon="6.3299">
        <ele>2601.24</ele>
        <time>2022-09-10T11:51:04Z</time>
      </trkpt>
      <trkpt lat="45.1397" lon="6.3299">
        <ele>2601.217</ele>
        <time>2022-09-10T11:51:14Z</time>
      </trkpt>
      <trkpt lat="45.1397" lon="6.3299">
        <ele>2601.199</ele>
        <time>2022-09-10T11:51:23Z</time>
      </trkpt>
      <trkpt lat="45.1397" lon="6.3299">
        <ele>2601.175</ele>
        <time>2022-09-10T11:51:33Z</time>
      </trkpt>
      <trkpt lat="45.1397" lon="6.3299">
        <ele>2601.158</ele>
        <time>2022-09-10T11:51:43Z</time>
      </trkpt>
      <trkpt lat="45.1397" lon="6.3299">
        <ele>2601.154</ele>
        <time>2022-09-10T11:51:52Z</time>
      </trkpt>
      <trkpt lat="45.1397" lon="6.3299">
        <ele>2601.153</ele>
        <time>2022-09-10T11:52:02Z</time>
      </trkpt>
      <trkpt lat="45.1397" lon="6.3299">
        <ele>2601.159</ele>
        <time>2022-09-10T11:52:12Z</time>
      </trkpt>
      <trkpt lat="45.1397" lon="6.3299">
        <ele>2601.149</ele>
        <time>2022-09-10T11:52:21Z</time>
      </trkpt>
      <trkpt lat="45.1397" lon="6.3299">
        <ele>2601.135</ele>
        <time>2022-09-10T11:52:30Z</time>
      </trkpt>
      <trkpt lat="45.1397" lon="6.3299">
        <ele>2601.138</ele>
        <time>2022-09-10T11:52:39Z</time>
      </trkpt>
      <trkpt lat="45.1397" lon="6.3299">
        <ele>2601.13</ele>
        <time>2022-09-10T11:52:48Z</time>
      </trkpt>
      <trkpt lat="45.1397" lon="6.3299">
        <ele>2601.121</ele>
        <time>2022-09-10T11:52:57Z</time>
      </trkpt>
      <trkpt lat="45.1397" lon="6.3299">
        <ele>2601.768</ele>
        <time>2022-09-10T11:53:07Z</time>
      </trkpt>
      <trkpt lat="45.13971" lon="6.32991">
        <ele>2600.552</ele>
        <time>2022-09-10T11:53:17Z</time>
      </trkpt>
      <trkpt lat="45.1397" lon="6.3299">
        <ele>2600.304</ele>
        <time>2022-09-10T11:53:26Z</time>
      </trkpt>
      <trkpt lat="45.13969" lon="6.3299">
        <ele>2600.258</ele>
        <time>2022-09-10T11:53:35Z</time>
      </trkpt>
      <trkpt lat="45.13969" lon="6.32989">
        <ele>2601.532</ele>
        <time>2022-09-10T11:53:45Z</time>
      </trkpt>
      <trkpt lat="45.13969" lon="6.3299">
        <ele>2601.595</ele>
        <time>2022-09-10T11:53:54Z</time>
      </trkpt>
      <trkpt lat="45.1397" lon="6.32989">
        <ele>2600.435</ele>
        <time>2022-09-10T11:54:04Z</time>
      </trkpt>
      <trkpt lat="45.13969" lon="6.32989">
        <ele>2600.353</ele>
        <time>2022-09-10T11:54:14Z</time>
      </trkpt>
      <trkpt lat="45.1397" lon="6.3299">
        <ele>2598.37</ele>
        <time>2022-09-10T11:54:23Z</time>
      </trkpt>
      <trkpt lat="45.1397" lon="6.32991">
        <ele>2598.252</ele>
        <time>2022-09-10T11:54:33Z</time>
      </trkpt>
      <trkpt lat="45.1397" lon="6.32991">
        <ele>2598.296</ele>
        <time>2022-09-10T11:54:43Z</time>
      </trkpt>
      <trkpt lat="45.1397" lon="6.32991">
        <ele>2597.42</ele>
        <time>2022-09-10T11:54:53Z</time>
      </trkpt>
      <trkpt lat="45.1397" lon="6.3299">
        <ele>2599.046</ele>
        <time>2022-09-10T11:55:02Z</time>
      </trkpt>
      <trkpt lat="45.1397" lon="6.32991">
        <ele>2598.847</ele>
        <time>2022-09-10T11:55:12Z</time>
      </trkpt>
      <trkpt lat="45.1397" lon="6.32989">
        <ele>2600.246</ele>
        <time>2022-09-10T11:55:21Z</time>
      </trkpt>
      <trkpt lat="45.13969" lon="6.32988">
        <ele>2599.017</ele>
        <time>2022-09-10T11:55:30Z</time>
      </trkpt>
      <trkpt lat="45.13969" lon="6.32988">
        <ele>2598.958</ele>
        <time>2022-09-10T11:55:40Z</time>
      </trkpt>
      <trkpt lat="45.13969" lon="6.32988">
        <ele>2598.967</ele>
        <time>2022-09-10T11:55:49Z</time>
      </trkpt>
      <trkpt lat="45.13969" lon="6.32988">
        <ele>2598.904</ele>
        <time>2022-09-10T11:55:59Z</time>
      </trkpt>
      <trkpt lat="45.13969" lon="6.32988">
        <ele>2599.201</ele>
        <time>2022-09-10T11:56:08Z</time>
      </trkpt>
      <trkpt lat="45.1397" lon="6.32988">
        <ele>2600.181</ele>
        <time>2022-09-10T11:56:17Z</time>
      </trkpt>
      <trkpt lat="45.13969" lon="6.32988">
        <ele>2601.375</ele>
        <time>2022-09-10T11:56:27Z</time>
      </trkpt>
      <trkpt lat="45.1397" lon="6.32988">
        <ele>2601.018</ele>
        <time>2022-09-10T11:56:37Z</time>
      </trkpt>
      <trkpt lat="45.1397" lon="6.32988">
        <ele>2600.981</ele>
        <time>2022-09-10T11:56:47Z</time>
      </trkpt>
      <trkpt lat="45.1397" lon="6.32988">
        <ele>2600.135</ele>
        <time>2022-09-10T11:56:57Z</time>
      </trkpt>
      <trkpt lat="45.13974" lon="6.32983">
        <ele>2599.451</ele>
        <time>2022-09-10T11:57:06Z</time>
      </trkpt>
      <trkpt lat="45.13975" lon="6.3298">
        <ele>2598.198</ele>
        <time>2022-09-10T11:57:16Z</time>
      </trkpt>
      <trkpt lat="45.13973" lon="6.32984">
        <ele>2599.452</ele>
        <time>2022-09-10T11:57:25Z</time>
      </trkpt>
      <trkpt lat="45.13971" lon="6.32988">
        <ele>2599.083</ele>
        <time>2022-09-10T11:57:35Z</time>
      </trkpt>
      <trkpt lat="45.13971" lon="6.32988">
        <ele>2599.801</ele>
        <time>2022-09-10T11:57:44Z</time>
      </trkpt>
      <trkpt lat="45.1397" lon="6.32988">
        <ele>2599.966</ele>
        <time>2022-09-10T11:57:54Z</time>
      </trkpt>
      <trkpt lat="45.13971" lon="6.32987">
        <ele>2599.388</ele>
        <time>2022-09-10T11:58:03Z</time>
      </trkpt>
      <trkpt lat="45.13997" lon="6.32956">
        <ele>2594.222</ele>
        <time>2022-09-10T11:58:12Z</time>
      </trkpt>
      <trkpt lat="45.1401" lon="6.32941">
        <ele>2595.277</ele>
        <time>2022-09-10T11:58:22Z</time>
      </trkpt>
      <trkpt lat="45.1401" lon="6.3294">
        <ele>2594.862</ele>
        <time>2022-09-10T11:58:32Z</time>
      </trkpt>
      <trkpt lat="45.1401" lon="6.3294">
        <ele>2594.172</ele>
        <time>2022-09-10T11:58:41Z</time>
      </trkpt>
      <trkpt lat="45.1401" lon="6.32943">
        <ele>2595.325</ele>
        <time>2022-09-10T11:58:51Z</time>
      </trkpt>
      <trkpt lat="45.1401" lon="6.32942">
        <ele>2594.867</ele>
        <time>2022-09-10T11:59:01Z</time>
      </trkpt>
      <trkpt lat="45.1401" lon="6.32943">
        <ele>2593.39</ele>
        <time>2022-09-10T11:59:10Z</time>
      </trkpt>
      <trkpt lat="45.1401" lon="6.32944">
        <ele>2593.597</ele>
        <time>2022-09-10T11:59:19Z</time>
      </trkpt>
      <trkpt lat="45.14009" lon="6.32943">
        <ele>2594.39</ele>
        <time>2022-09-10T11:59:28Z</time>
      </trkpt>
      <trkpt lat="45.14009" lon="6.32942">
        <ele>2594.094</ele>
        <time>2022-09-10T11:59:38Z</time>
      </trkpt>
      <trkpt lat="45.14009" lon="6.32942">
        <ele>2594.099</ele>
        <time>2022-09-10T11:59:47Z</time>
      </trkpt>
      <trkpt lat="45.14009" lon="6.32942">
        <ele>2593.615</ele>
        <time>2022-09-10T11:59:56Z</time>
      </trkpt>
      <trkpt lat="45.14009" lon="6.32942">
        <ele>2594.241</ele>
        <time>2022-09-10T12:00:05Z</time>
      </trkpt>
      <trkpt lat="45.14009" lon="6.32942">
        <ele>2594.307</ele>
        <time>2022-09-10T12:00:15Z</time>
      </trkpt>
      <trkpt lat="45.14009" lon="6.32942">
        <ele>2594.803</ele>
        <time>2022-09-10T12:00:25Z</time>
      </trkpt>
      <trkpt lat="45.14009" lon="6.32941">
        <ele>2595.452</ele>
        <time>2022-09-10T12:00:34Z</time>
      </trkpt>
      <trkpt lat="45.14013" lon="6.32938">
        <ele>2595.144</ele>
        <time>2022-09-10T12:00:43Z</time>
      </trkpt>
      <trkpt lat="45.14045" lon="6.32895">
        <ele>2592.456</ele>
        <time>2022-09-10T12:00:52Z</time>
      </trkpt>
      <trkpt lat="45.1407" lon="6.32862">
        <ele>2588.709</ele>
        <time>2022-09-10T12:01:01Z</time>
      </trkpt>
      <trkpt lat="45.141" lon="6.32823">
        <ele>2587.145</ele>
        <time>2022-09-10T12:01:11Z</time>
      </trkpt>
      <trkpt lat="45.14144" lon="6.32781">
        <ele>2584.418</ele>
        <time>2022-09-10T12:01:20Z</time>
      </trkpt>
      <trkpt lat="45.14179" lon="6.32743">
        <ele>2584.22</ele>
        <time>2022-09-10T12:01:30Z</time>
      </trkpt>
      <trkpt lat="45.14226" lon="6.32717">
        <ele>2574.541</ele>
        <time>2022-09-10T12:01:39Z</time>
      </trkpt>
      <trkpt lat="45.14294" lon="6.32737">
        <ele>2571.912</ele>
        <time>2022-09-10T12:01:49Z</time>
      </trkpt>
      <trkpt lat="45.14344" lon="6.32755">
        <ele>2565.191</ele>
        <time>2022-09-10T12:01:58Z</time>
      </trkpt>
      <trkpt lat="45.14372" lon="6.32787">
        <ele>2563.104</ele>
        <time>2022-09-10T12:02:08Z</time>
      </trkpt>
      <trkpt lat="45.14372" lon="6.32787">
        <ele>2562.332</ele>
        <time>2022-09-10T12:02:18Z</time>
      </trkpt>
      <trkpt lat="45.14373" lon="6.32787">
        <ele>2563.444</ele>
        <time>2022-09-10T12:02:28Z</time>
      </trkpt>
      <trkpt lat="45.14376" lon="6.32782">
        <ele>2563.026</ele>
        <time>2022-09-10T12:02:37Z</time>
      </trkpt>
      <trkpt lat="45.14377" lon="6.32757">
        <ele>2559.02</ele>
        <time>2022-09-10T12:02:47Z</time>
      </trkpt>
      <trkpt lat="45.1438" lon="6.32693">
        <ele>2553.516</ele>
        <time>2022-09-10T12:02:57Z</time>
      </trkpt>
      <trkpt lat="45.14355" lon="6.32657">
        <ele>2548.612</ele>
        <time>2022-09-10T12:03:06Z</time>
      </trkpt>
      <trkpt lat="45.14342" lon="6.32612">
        <ele>2544.178</ele>
        <time>2022-09-10T12:03:16Z</time>
      </trkpt>
      <trkpt lat="45.1433" lon="6.32598">
        <ele>2543.086</ele>
        <time>2022-09-10T12:03:26Z</time>
      </trkpt>
      <trkpt lat="45.14331" lon="6.32595">
        <ele>2542.576</ele>
        <time>2022-09-10T12:03:35Z</time>
      </trkpt>
      <trkpt lat="45.14331" lon="6.32594">
        <ele>2541.646</ele>
        <time>2022-09-10T12:03:45Z</time>
      </trkpt>
      <trkpt lat="45.14327" lon="6.32586">
        <ele>2541.165</ele>
        <time>2022-09-10T12:03:55Z</time>
      </trkpt>
      <trkpt lat="45.14331" lon="6.32541">
        <ele>2531.292</ele>
        <time>2022-09-10T12:04:04Z</time>
      </trkpt>
      <trkpt lat="45.14334" lon="6.32509">
        <ele>2522.387</ele>
        <time>2022-09-10T12:04:14Z</time>
      </trkpt>
      <trkpt lat="45.14332" lon="6.32477">
        <ele>2514.658</ele>
        <time>2022-09-10T12:04:24Z</time>
      </trkpt>
      <trkpt lat="45.14324" lon="6.32451">
        <ele>2506.64</ele>
        <time>2022-09-10T12:04:34Z</time>
      </trkpt>
      <trkpt lat="45.14322" lon="6.32451">
        <ele>2506.105</ele>
        <time>2022-09-10T12:04:44Z</time>
      </trkpt>
      <trkpt lat="45.14318" lon="6.32442">
        <ele>2502.33</ele>
        <time>2022-09-10T12:04:53Z</time>
      </trkpt>
      <trkpt lat="45.14313" lon="6.3243">
        <ele>2497.668</ele>
        <time>2022-09-10T12:05:03Z</time>
      </trkpt>
      <trkpt lat="45.14317" lon="6.32425">
        <ele>2494.978</ele>
        <time>2022-09-10T12:05:12Z</time>
      </trkpt>
      <trkpt lat="45.14323" lon="6.3242">
        <ele>2494.996</ele>
        <time>2022-09-10T12:05:22Z</time>
      </trkpt>
      <trkpt lat="45.14324" lon="6.32405">
        <ele>2496.292</ele>
        <time>2022-09-10T12:05:31Z</time>
      </trkpt>
      <trkpt lat="45.14325" lon="6.3239">
        <ele>2498.306</ele>
        <time>2022-09-10T12:05:40Z</time>
      </trkpt>
      <trkpt lat="45.14332" lon="6.32385">
        <ele>2503.694</ele>
        <time>2022-09-10T12:05:49Z</time>
      </trkpt>
      <trkpt lat="45.14333" lon="6.32382">
        <ele>2504.831</ele>
        <time>2022-09-10T12:05:59Z</time>
      </trkpt>
      <trkpt lat="45.14333" lon="6.32382">
        <ele>2503.471</ele>
        <time>2022-09-10T12:06:09Z</time>
      </trkpt>
      <trkpt lat="45.14332" lon="6.32381">
        <ele>2502.793</ele>
        <time>2022-09-10T12:06:18Z</time>
      </trkpt>
      <trkpt lat="45.14332" lon="6.32381">
        <ele>2502.784</ele>
        <time>2022-09-10T12:06:28Z</time>
      </trkpt>
      <trkpt lat="45.14333" lon="6.3238">
        <ele>2501.805</ele>
        <time>2022-09-10T12:06:37Z</time>
      </trkpt>
      <trkpt lat="45.14333" lon="6.3238">
        <ele>2502.1</ele>
        <time>2022-09-10T12:06:46Z</time>
      </trkpt>
      <trkpt lat="45.14333" lon="6.3238">
        <ele>2502.095</ele>
        <time>2022-09-10T12:06:56Z</time>
      </trkpt>
      <trkpt lat="45.14333" lon="6.3238">
        <ele>2502.093</ele>
        <time>2022-09-10T12:07:05Z</time>
      </trkpt>
      <trkpt lat="45.14333" lon="6.3238">
        <ele>2503.394</ele>
        <time>2022-09-10T12:07:14Z</time>
      </trkpt>
      <trkpt lat="45.14333" lon="6.3238">
        <ele>2503.907</ele>
        <time>2022-09-10T12:07:23Z</time>
      </trkpt>
      <trkpt lat="45.14333" lon="6.3238">
        <ele>2503.909</ele>
        <time>2022-09-10T12:07:33Z</time>
      </trkpt>
      <trkpt lat="45.14333" lon="6.3238">
        <ele>2503.937</ele>
        <time>2022-09-10T12:07:42Z</time>
      </trkpt>
      <trkpt lat="45.14333" lon="6.3238">
        <ele>2503.914</ele>
        <time>2022-09-10T12:07:52Z</time>
      </trkpt>
      <trkpt lat="45.14333" lon="6.3238">
        <ele>2503.904</ele>
        <time>2022-09-10T12:08:02Z</time>
      </trkpt>
      <trkpt lat="45.14331" lon="6.32372">
        <ele>2502.32</ele>
        <time>2022-09-10T12:08:12Z</time>
      </trkpt>
      <trkpt lat="45.14326" lon="6.32352">
        <ele>2500.105</ele>
        <time>2022-09-10T12:08:21Z</time>
      </trkpt>
      <trkpt lat="45.14327" lon="6.32351">
        <ele>2501.004</ele>
        <time>2022-09-10T12:08:31Z</time>
      </trkpt>
      <trkpt lat="45.14327" lon="6.32351">
        <ele>2500.88</ele>
        <time>2022-09-10T12:08:41Z</time>
      </trkpt>
      <trkpt lat="45.14327" lon="6.32351">
        <ele>2500.897</ele>
        <time>2022-09-10T12:08:51Z</time>
      </trkpt>
      <trkpt lat="45.14326" lon="6.32348">
        <ele>2500.625</ele>
        <time>2022-09-10T12:09:00Z</time>
      </trkpt>
      <trkpt lat="45.14311" lon="6.32274">
        <ele>2491.659</ele>
        <time>2022-09-10T12:09:10Z</time>
      </trkpt>
      <trkpt lat="45.14275" lon="6.32197">
        <ele>2480.266</ele>
        <time>2022-09-10T12:09:20Z</time>
      </trkpt>
      <trkpt lat="45.14254" lon="6.32145">
        <ele>2470.961</ele>
        <time>2022-09-10T12:09:29Z</time>
      </trkpt>
      <trkpt lat="45.14249" lon="6.32069">
        <ele>2464.179</ele>
        <time>2022-09-10T12:09:38Z</time>
      </trkpt>
      <trkpt lat="45.14243" lon="6.31992">
        <ele>2456.663</ele>
        <time>2022-09-10T12:09:47Z</time>
      </trkpt>
      <trkpt lat="45.14237" lon="6.31914">
        <ele>2450.497</ele>
        <time>2022-09-10T12:09:56Z</time>
      </trkpt>
      <trkpt lat="45.14227" lon="6.31838">
        <ele>2446.579</ele>
        <time>2022-09-10T12:10:06Z</time>
      </trkpt>
      <trkpt lat="45.14219" lon="6.31771">
        <ele>2439.925</ele>
        <time>2022-09-10T12:10:16Z</time>
      </trkpt>
      <trkpt lat="45.14205" lon="6.31699">
        <ele>2430.027</ele>
        <time>2022-09-10T12:10:26Z</time>
      </trkpt>
      <trkpt lat="45.14182" lon="6.31614">
        <ele>2420.238</ele>
        <time>2022-09-10T12:10:36Z</time>
      </trkpt>
      <trkpt lat="45.14176" lon="6.31548">
        <ele>2417.008</ele>
        <time>2022-09-10T12:10:45Z</time>
      </trkpt>
      <trkpt lat="45.14183" lon="6.31487">
        <ele>2416.581</ele>
        <time>2022-09-10T12:10:55Z</time>
      </trkpt>
      <trkpt lat="45.14189" lon="6.31438">
        <ele>2413.887</ele>
        <time>2022-09-10T12:11:04Z</time>
      </trkpt>
      <trkpt lat="45.14195" lon="6.31379">
        <ele>2412.094</ele>
        <time>2022-09-10T12:11:13Z</time>
      </trkpt>
      <trkpt lat="45.14199" lon="6.31323">
        <ele>2409.761</ele>
        <time>2022-09-10T12:11:23Z</time>
      </trkpt>
      <trkpt lat="45.14211" lon="6.31266">
        <ele>2404.396</ele>
        <time>2022-09-10T12:11:32Z</time>
      </trkpt>
      <trkpt lat="45.14211" lon="6.31266">
        <ele>2404.306</ele>
        <time>2022-09-10T12:11:41Z</time>
      </trkpt>
      <trkpt lat="45.14211" lon="6.31266">
        <ele>2404.31</ele>
        <time>2022-09-10T12:11:50Z</time>
      </trkpt>
      <trkpt lat="45.14211" lon="6.31266">
        <ele>2404.309</ele>
        <time>2022-09-10T12:12:00Z</time>
      </trkpt>
      <trkpt lat="45.14211" lon="6.31266">
        <ele>2404.307</ele>
        <time>2022-09-10T12:12:10Z</time>
      </trkpt>
      <trkpt lat="45.14211" lon="6.31266">
        <ele>2404.315</ele>
        <time>2022-09-10T12:12:19Z</time>
      </trkpt>
      <trkpt lat="45.14211" lon="6.31266">
        <ele>2404.32</ele>
        <time>2022-09-10T12:12:29Z</time>
      </trkpt>
      <trkpt lat="45.14211" lon="6.31266">
        <ele>2404.327</ele>
        <time>2022-09-10T12:12:39Z</time>
      </trkpt>
      <trkpt lat="45.14211" lon="6.31266">
        <ele>2404.334</ele>
        <time>2022-09-10T12:12:49Z</time>
      </trkpt>
      <trkpt lat="45.14211" lon="6.31266">
        <ele>2404.341</ele>
        <time>2022-09-10T12:12:58Z</time>
      </trkpt>
      <trkpt lat="45.14211" lon="6.31266">
        <ele>2404.287</ele>
        <time>2022-09-10T12:13:08Z</time>
      </trkpt>
      <trkpt lat="45.14214" lon="6.31237">
        <ele>2402.641</ele>
        <time>2022-09-10T12:13:17Z</time>
      </trkpt>
      <trkpt lat="45.14224" lon="6.31184">
        <ele>2399.173</ele>
        <time>2022-09-10T12:13:26Z</time>
      </trkpt>
      <trkpt lat="45.14246" lon="6.31118">
        <ele>2393.906</ele>
        <time>2022-09-10T12:13:35Z</time>
      </trkpt>
      <trkpt lat="45.14271" lon="6.31055">
        <ele>2390.09</ele>
        <time>2022-09-10T12:13:45Z</time>
      </trkpt>
      <trkpt lat="45.14286" lon="6.30999">
        <ele>2388.4</ele>
        <time>2022-09-10T12:13:55Z</time>
      </trkpt>
      <trkpt lat="45.143" lon="6.30951">
        <ele>2387.756</ele>
        <time>2022-09-10T12:14:05Z</time>
      </trkpt>
      <trkpt lat="45.14309" lon="6.30914">
        <ele>2385.817</ele>
        <time>2022-09-10T12:14:15Z</time>
      </trkpt>
      <trkpt lat="45.14317" lon="6.3086">
        <ele>2378.976</ele>
        <time>2022-09-10T12:14:24Z</time>
      </trkpt>
      <trkpt lat="45.14327" lon="6.30796">
        <ele>2368.966</ele>
        <time>2022-09-10T12:14:34Z</time>
      </trkpt>
      <trkpt lat="45.1433" lon="6.30791">
        <ele>2368.762</ele>
        <time>2022-09-10T12:14:43Z</time>
      </trkpt>
      <trkpt lat="45.1433" lon="6.30791">
        <ele>2369.541</ele>
        <time>2022-09-10T12:14:53Z</time>
      </trkpt>
      <trkpt lat="45.1433" lon="6.3079">
        <ele>2369.639</ele>
        <time>2022-09-10T12:15:03Z</time>
      </trkpt>
      <trkpt lat="45.1433" lon="6.30791">
        <ele>2369.633</ele>
        <time>2022-09-10T12:15:13Z</time>
      </trkpt>
      <trkpt lat="45.1433" lon="6.3079">
        <ele>2369.634</ele>
        <time>2022-09-10T12:15:22Z</time>
      </trkpt>
      <trkpt lat="45.1433" lon="6.3079">
        <ele>2369.635</ele>
        <time>2022-09-10T12:15:31Z</time>
      </trkpt>
      <trkpt lat="45.1433" lon="6.3079">
        <ele>2369.603</ele>
        <time>2022-09-10T12:15:40Z</time>
      </trkpt>
      <trkpt lat="45.14329" lon="6.30786">
        <ele>2368.736</ele>
        <time>2022-09-10T12:15:50Z</time>
      </trkpt>
      <trkpt lat="45.14337" lon="6.3076">
        <ele>2366.603</ele>
        <time>2022-09-10T12:15:59Z</time>
      </trkpt>
      <trkpt lat="45.14358" lon="6.30705">
        <ele>2364.765</ele>
        <time>2022-09-10T12:16:09Z</time>
      </trkpt>
      <trkpt lat="45.14381" lon="6.30651">
        <ele>2361.811</ele>
        <time>2022-09-10T12:16:18Z</time>
      </trkpt>
      <trkpt lat="45.1441" lon="6.30577">
        <ele>2358.556</ele>
        <time>2022-09-10T12:16:28Z</time>
      </trkpt>
      <trkpt lat="45.14429" lon="6.30527">
        <ele>2357.079</ele>
        <time>2022-09-10T12:16:38Z</time>
      </trkpt>
      <trkpt lat="45.14438" lon="6.30502">
        <ele>2354.456</ele>
        <time>2022-09-10T12:16:47Z</time>
      </trkpt>
      <trkpt lat="45.14448" lon="6.30488">
        <ele>2352.733</ele>
        <time>2022-09-10T12:16:57Z</time>
      </trkpt>
      <trkpt lat="45.14452" lon="6.3048">
        <ele>2352.027</ele>
        <time>2022-09-10T12:17:07Z</time>
      </trkpt>
      <trkpt lat="45.14452" lon="6.3048">
        <ele>2352.214</ele>
        <time>2022-09-10T12:17:17Z</time>
      </trkpt>
      <trkpt lat="45.14453" lon="6.3048">
        <ele>2353.398</ele>
        <time>2022-09-10T12:17:26Z</time>
      </trkpt>
      <trkpt lat="45.14453" lon="6.30481">
        <ele>2353.625</ele>
        <time>2022-09-10T12:17:36Z</time>
      </trkpt>
      <trkpt lat="45.14453" lon="6.30481">
        <ele>2353.647</ele>
        <time>2022-09-10T12:17:46Z</time>
      </trkpt>
      <trkpt lat="45.14453" lon="6.30481">
        <ele>2353.658</ele>
        <time>2022-09-10T12:17:55Z</time>
      </trkpt>
      <trkpt lat="45.14453" lon="6.30481">
        <ele>2353.655</ele>
        <time>2022-09-10T12:18:04Z</time>
      </trkpt>
      <trkpt lat="45.14453" lon="6.30481">
        <ele>2353.65</ele>
        <time>2022-09-10T12:18:13Z</time>
      </trkpt>
      <trkpt lat="45.14453" lon="6.30481">
        <ele>2353.644</ele>
        <time>2022-09-10T12:18:23Z</time>
      </trkpt>
      <trkpt lat="45.14454" lon="6.30477">
        <ele>2352.075</ele>
        <time>2022-09-10T12:18:32Z</time>
      </trkpt>
      <trkpt lat="45.14468" lon="6.30456">
        <ele>2349.302</ele>
        <time>2022-09-10T12:18:41Z</time>
      </trkpt>
      <trkpt lat="45.14479" lon="6.30441">
        <ele>2346.743</ele>
        <time>2022-09-10T12:18:51Z</time>
      </trkpt>
      <trkpt lat="45.14479" lon="6.30441">
        <ele>2347.536</ele>
        <time>2022-09-10T12:19:01Z</time>
      </trkpt>
      <trkpt lat="45.14479" lon="6.30442">
        <ele>2347.158</ele>
        <time>2022-09-10T12:19:11Z</time>
      </trkpt>
      <trkpt lat="45.14479" lon="6.30441">
        <ele>2346.907</ele>
        <time>2022-09-10T12:19:20Z</time>
      </trkpt>
      <trkpt lat="45.14479" lon="6.30441">
        <ele>2347.612</ele>
        <time>2022-09-10T12:19:30Z</time>
      </trkpt>
      <trkpt lat="45.14479" lon="6.30443">
        <ele>2347.23</ele>
        <time>2022-09-10T12:19:39Z</time>
      </trkpt>
      <trkpt lat="45.14479" lon="6.30443">
        <ele>2347.187</ele>
        <time>2022-09-10T12:19:48Z</time>
      </trkpt>
      <trkpt lat="45.1448" lon="6.30443">
        <ele>2347.341</ele>
        <time>2022-09-10T12:19:58Z</time>
      </trkpt>
      <trkpt lat="45.14481" lon="6.3044">
        <ele>2347.3</ele>
        <time>2022-09-10T12:20:07Z</time>
      </trkpt>
      <trkpt lat="45.14492" lon="6.30417">
        <ele>2343.536</ele>
        <time>2022-09-10T12:20:16Z</time>
      </trkpt>
      <trkpt lat="45.14513" lon="6.30366">
        <ele>2334.219</ele>
        <time>2022-09-10T12:20:26Z</time>
      </trkpt>
      <trkpt lat="45.14528" lon="6.30316">
        <ele>2319.398</ele>
        <time>2022-09-10T12:20:36Z</time>
      </trkpt>
      <trkpt lat="45.14533" lon="6.30238">
        <ele>2306.143</ele>
        <time>2022-09-10T12:20:45Z</time>
      </trkpt>
      <trkpt lat="45.14534" lon="6.30162">
        <ele>2299.615</ele>
        <time>2022-09-10T12:20:55Z</time>
      </trkpt>
      <trkpt lat="45.14534" lon="6.30147">
        <ele>2298.017</ele>
        <time>2022-09-10T12:21:04Z</time>
      </trkpt>
      <trkpt lat="45.14533" lon="6.30147">
        <ele>2298.344</ele>
        <time>2022-09-10T12:21:13Z</time>
      </trkpt>
      <trkpt lat="45.14532" lon="6.30147">
        <ele>2299.513</ele>
        <time>2022-09-10T12:21:22Z</time>
      </trkpt>
      <trkpt lat="45.14532" lon="6.30147">
        <ele>2300.035</ele>
        <time>2022-09-10T12:21:32Z</time>
      </trkpt>
      <trkpt lat="45.14542" lon="6.30148">
        <ele>2299.402</ele>
        <time>2022-09-10T12:21:41Z</time>
      </trkpt>
      <trkpt lat="45.14578" lon="6.30133">
        <ele>2294.398</ele>
        <time>2022-09-10T12:21:51Z</time>
      </trkpt>
      <trkpt lat="45.14604" lon="6.30072">
        <ele>2283.468</ele>
        <time>2022-09-10T12:22:00Z</time>
      </trkpt>
      <trkpt lat="45.14626" lon="6.30031">
        <ele>2271.549</ele>
        <time>2022-09-10T12:22:10Z</time>
      </trkpt>
      <trkpt lat="45.14656" lon="6.30055">
        <ele>2262.15</ele>
        <time>2022-09-10T12:22:19Z</time>
      </trkpt>
      <trkpt lat="45.147" lon="6.30105">
        <ele>2251.061</ele>
        <time>2022-09-10T12:22:29Z</time>
      </trkpt>
      <trkpt lat="45.14742" lon="6.30167">
        <ele>2240.965</ele>
        <time>2022-09-10T12:22:39Z</time>
      </trkpt>
      <trkpt lat="45.14778" lon="6.3022">
        <ele>2235.264</ele>
        <time>2022-09-10T12:22:48Z</time>
      </trkpt>
      <trkpt lat="45.14808" lon="6.30254">
        <ele>2229.383</ele>
        <time>2022-09-10T12:22:57Z</time>
      </trkpt>
      <trkpt lat="45.14848" lon="6.30262">
        <ele>2224.488</ele>
        <time>2022-09-10T12:23:06Z</time>
      </trkpt>
      <trkpt lat="45.14903" lon="6.30251">
        <ele>2214.488</ele>
        <time>2022-09-10T12:23:15Z</time>
      </trkpt>
      <trkpt lat="45.14951" lon="6.30249">
        <ele>2206.124</ele>
        <time>2022-09-10T12:23:25Z</time>
      </trkpt>
      <trkpt lat="45.14975" lon="6.30256">
        <ele>2197.436</ele>
        <time>2022-09-10T12:23:34Z</time>
      </trkpt>
      <trkpt lat="45.15004" lon="6.30229">
        <ele>2185.377</ele>
        <time>2022-09-10T12:23:44Z</time>
      </trkpt>
      <trkpt lat="45.15025" lon="6.30216">
        <ele>2176.469</ele>
        <time>2022-09-10T12:23:54Z</time>
      </trkpt>
      <trkpt lat="45.15056" lon="6.30198">
        <ele>2164.746</ele>
        <time>2022-09-10T12:24:04Z</time>
      </trkpt>
      <trkpt lat="45.15088" lon="6.3021">
        <ele>2158.36</ele>
        <time>2022-09-10T12:24:13Z</time>
      </trkpt>
      <trkpt lat="45.15088" lon="6.30211">
        <ele>2159.168</ele>
        <time>2022-09-10T12:24:22Z</time>
      </trkpt>
      <trkpt lat="45.15089" lon="6.30211">
        <ele>2159.438</ele>
        <time>2022-09-10T12:24:32Z</time>
      </trkpt>
      <trkpt lat="45.15089" lon="6.30211">
        <ele>2159.443</ele>
        <time>2022-09-10T12:24:41Z</time>
      </trkpt>
      <trkpt lat="45.15089" lon="6.30211">
        <ele>2159.439</ele>
        <time>2022-09-10T12:24:50Z</time>
      </trkpt>
      <trkpt lat="45.15089" lon="6.30211">
        <ele>2159.545</ele>
        <time>2022-09-10T12:25:00Z</time>
      </trkpt>
      <trkpt lat="45.15088" lon="6.3021">
        <ele>2159.699</ele>
        <time>2022-09-10T12:25:09Z</time>
      </trkpt>
      <trkpt lat="45.15088" lon="6.3021">
        <ele>2159.236</ele>
        <time>2022-09-10T12:25:18Z</time>
      </trkpt>
      <trkpt lat="45.15087" lon="6.30216">
        <ele>2158.594</ele>
        <time>2022-09-10T12:25:28Z</time>
      </trkpt>
      <trkpt lat="45.15086" lon="6.30217">
        <ele>2157.488</ele>
        <time>2022-09-10T12:25:38Z</time>
      </trkpt>
      <trkpt lat="45.15093" lon="6.30221">
        <ele>2156.738</ele>
        <time>2022-09-10T12:25:47Z</time>
      </trkpt>
      <trkpt lat="45.15095" lon="6.30233">
        <ele>2155.928</ele>
        <time>2022-09-10T12:25:57Z</time>
      </trkpt>
      <trkpt lat="45.15098" lon="6.30238">
        <ele>2155.694</ele>
        <time>2022-09-10T12:26:06Z</time>
      </trkpt>
      <trkpt lat="45.151" lon="6.3024">
        <ele>2155.807</ele>
        <time>2022-09-10T12:26:15Z</time>
      </trkpt>
      <trkpt lat="45.151" lon="6.3024">
        <ele>2155.719</ele>
        <time>2022-09-10T12:26:25Z</time>
      </trkpt>
      <trkpt lat="45.151" lon="6.30241">
        <ele>2155.704</ele>
        <time>2022-09-10T12:26:35Z</time>
      </trkpt>
      <trkpt lat="45.151" lon="6.30241">
        <ele>2155.836</ele>
        <time>2022-09-10T12:26:44Z</time>
      </trkpt>
      <trkpt lat="45.151" lon="6.30241">
        <ele>2154.969</ele>
        <time>2022-09-10T12:26:54Z</time>
      </trkpt>
      <trkpt lat="45.151" lon="6.30241">
        <ele>2155.586</ele>
        <time>2022-09-10T12:27:03Z</time>
      </trkpt>
      <trkpt lat="45.15101" lon="6.30241">
        <ele>2155.041</ele>
        <time>2022-09-10T12:27:12Z</time>
      </trkpt>
      <trkpt lat="45.15103" lon="6.30243">
        <ele>2156.219</ele>
        <time>2022-09-10T12:27:22Z</time>
      </trkpt>
      <trkpt lat="45.15103" lon="6.30242">
        <ele>2156.366</ele>
        <time>2022-09-10T12:27:32Z</time>
      </trkpt>
      <trkpt lat="45.15103" lon="6.30246">
        <ele>2154.633</ele>
        <time>2022-09-10T12:27:41Z</time>
      </trkpt>
      <trkpt lat="45.15103" lon="6.30247">
        <ele>2154.974</ele>
        <time>2022-09-10T12:27:50Z</time>
      </trkpt>
      <trkpt lat="45.15103" lon="6.30247">
        <ele>2154.989</ele>
        <time>2022-09-10T12:28:00Z</time>
      </trkpt>
      <trkpt lat="45.15104" lon="6.30247">
        <ele>2154.95</ele>
        <time>2022-09-10T12:28:10Z</time>
      </trkpt>
      <trkpt lat="45.15104" lon="6.30247">
        <ele>2154.924</ele>
        <time>2022-09-10T12:28:20Z</time>
      </trkpt>
      <trkpt lat="45.15104" lon="6.30247">
        <ele>2154.736</ele>
        <time>2022-09-10T12:28:30Z</time>
      </trkpt>
      <trkpt lat="45.15104" lon="6.30248">
        <ele>2154.609</ele>
        <time>2022-09-10T12:28:39Z</time>
      </trkpt>
      <trkpt lat="45.15104" lon="6.30248">
        <ele>2154.541</ele>
        <time>2022-09-10T12:28:49Z</time>
      </trkpt>
      <trkpt lat="45.15104" lon="6.30248">
        <ele>2154.435</ele>
        <time>2022-09-10T12:28:59Z</time>
      </trkpt>
      <trkpt lat="45.15104" lon="6.30248">
        <ele>2154.38</ele>
        <time>2022-09-10T12:29:09Z</time>
      </trkpt>
      <trkpt lat="45.15104" lon="6.30247">
        <ele>2153.986</ele>
        <time>2022-09-10T12:29:18Z</time>
      </trkpt>
      <trkpt lat="45.15104" lon="6.30247">
        <ele>2153.75</ele>
        <time>2022-09-10T12:29:28Z</time>
      </trkpt>
      <trkpt lat="45.15104" lon="6.30247">
        <ele>2153.595</ele>
        <time>2022-09-10T12:29:38Z</time>
      </trkpt>
      <trkpt lat="45.15104" lon="6.30247">
        <ele>2153.534</ele>
        <time>2022-09-10T12:29:48Z</time>
      </trkpt>
      <trkpt lat="45.15104" lon="6.30247">
        <ele>2153.474</ele>
        <time>2022-09-10T12:29:57Z</time>
      </trkpt>
      <trkpt lat="45.15104" lon="6.30247">
        <ele>2153.449</ele>
        <time>2022-09-10T12:30:06Z</time>
      </trkpt>
      <trkpt lat="45.15104" lon="6.30247">
        <ele>2153.435</ele>
        <time>2022-09-10T12:30:15Z</time>
      </trkpt>
      <trkpt lat="45.15104" lon="6.30247">
        <ele>2153.435</ele>
        <time>2022-09-10T12:30:25Z</time>
      </trkpt>
      <trkpt lat="45.15104" lon="6.30247">
        <ele>2153.402</ele>
        <time>2022-09-10T12:30:34Z</time>
      </trkpt>
      <trkpt lat="45.15104" lon="6.30247">
        <ele>2153.404</ele>
        <time>2022-09-10T12:30:43Z</time>
      </trkpt>
      <trkpt lat="45.15104" lon="6.30247">
        <ele>2153.409</ele>
        <time>2022-09-10T12:30:53Z</time>
      </trkpt>
      <trkpt lat="45.15104" lon="6.30247">
        <ele>2153.391</ele>
        <time>2022-09-10T12:31:03Z</time>
      </trkpt>
      <trkpt lat="45.15104" lon="6.30247">
        <ele>2153.375</ele>
        <time>2022-09-10T12:31:13Z</time>
      </trkpt>
      <trkpt lat="45.15104" lon="6.30247">
        <ele>2153.354</ele>
        <time>2022-09-10T12:31:23Z</time>
      </trkpt>
      <trkpt lat="45.15104" lon="6.30247">
        <ele>2153.352</ele>
        <time>2022-09-10T12:31:32Z</time>
      </trkpt>
      <trkpt lat="45.15104" lon="6.30247">
        <ele>2153.353</ele>
        <time>2022-09-10T12:31:42Z</time>
      </trkpt>
      <trkpt lat="45.15104" lon="6.30247">
        <ele>2153.343</ele>
        <time>2022-09-10T12:31:51Z</time>
      </trkpt>
      <trkpt lat="45.15104" lon="6.30247">
        <ele>2153.323</ele>
        <time>2022-09-10T12:32:01Z</time>
      </trkpt>
      <trkpt lat="45.15104" lon="6.30247">
        <ele>2153.313</ele>
        <time>2022-09-10T12:32:11Z</time>
      </trkpt>
      <trkpt lat="45.15104" lon="6.30247">
        <ele>2153.309</ele>
        <time>2022-09-10T12:32:20Z</time>
      </trkpt>
      <trkpt lat="45.15104" lon="6.30247">
        <ele>2153.304</ele>
        <time>2022-09-10T12:32:30Z</time>
      </trkpt>
      <trkpt lat="45.15104" lon="6.30247">
        <ele>2153.304</ele>
        <time>2022-09-10T12:32:40Z</time>
      </trkpt>
      <trkpt lat="45.15105" lon="6.30241">
        <ele>2150.677</ele>
        <time>2022-09-10T12:32:49Z</time>
      </trkpt>
      <trkpt lat="45.15096" lon="6.30235">
        <ele>2151.204</ele>
        <time>2022-09-10T12:32:58Z</time>
      </trkpt>
      <trkpt lat="45.15093" lon="6.30223">
        <ele>2154.876</ele>
        <time>2022-09-10T12:33:07Z</time>
      </trkpt>
      <trkpt lat="45.15089" lon="6.30219">
        <ele>2155.184</ele>
        <time>2022-09-10T12:33:17Z</time>
      </trkpt>
      <trkpt lat="45.15087" lon="6.30216">
        <ele>2157.415</ele>
        <time>2022-09-10T12:33:26Z</time>
      </trkpt>
      <trkpt lat="45.15085" lon="6.30212">
        <ele>2156.967</ele>
        <time>2022-09-10T12:33:35Z</time>
      </trkpt>
      <trkpt lat="45.15104" lon="6.3022">
        <ele>2151.509</ele>
        <time>2022-09-10T12:33:45Z</time>
      </trkpt>
      <trkpt lat="45.1512" lon="6.30239">
        <ele>2153.123</ele>
        <time>2022-09-10T12:33:55Z</time>
      </trkpt>
      <trkpt lat="45.15129" lon="6.30275">
        <ele>2153.026</ele>
        <time>2022-09-10T12:34:04Z</time>
      </trkpt>
      <trkpt lat="45.15137" lon="6.30312">
        <ele>2153.827</ele>
        <time>2022-09-10T12:34:13Z</time>
      </trkpt>
      <trkpt lat="45.15124" lon="6.30365">
        <ele>2152.673</ele>
        <time>2022-09-10T12:34:23Z</time>
      </trkpt>
      <trkpt lat="45.15124" lon="6.30382">
        <ele>2153.666</ele>
        <time>2022-09-10T12:34:32Z</time>
      </trkpt>
      <trkpt lat="45.15129" lon="6.30389">
        <ele>2154.382</ele>
        <time>2022-09-10T12:34:42Z</time>
      </trkpt>
      <trkpt lat="45.15133" lon="6.30382">
        <ele>2154.527</ele>
        <time>2022-09-10T12:34:51Z</time>
      </trkpt>
      <trkpt lat="45.15138" lon="6.30375">
        <ele>2154.72</ele>
        <time>2022-09-10T12:35:01Z</time>
      </trkpt>
      <trkpt lat="45.15143" lon="6.30371">
        <ele>2155.059</ele>
        <time>2022-09-10T12:35:10Z</time>
      </trkpt>
      <trkpt lat="45.1515" lon="6.30363">
        <ele>2158.12</ele>
        <time>2022-09-10T12:35:20Z</time>
      </trkpt>
      <trkpt lat="45.15151" lon="6.30357">
        <ele>2160.179</ele>
        <time>2022-09-10T12:35:29Z</time>
      </trkpt>
      <trkpt lat="45.15158" lon="6.30345">
        <ele>2160.931</ele>
        <time>2022-09-10T12:35:38Z</time>
      </trkpt>
      <trkpt lat="45.15166" lon="6.30334">
        <ele>2162.567</ele>
        <time>2022-09-10T12:35:48Z</time>
      </trkpt>
      <trkpt lat="45.15167" lon="6.30331">
        <ele>2163.588</ele>
        <time>2022-09-10T12:35:57Z</time>
      </trkpt>
      <trkpt lat="45.15168" lon="6.30331">
        <ele>2164.065</ele>
        <time>2022-09-10T12:36:06Z</time>
      </trkpt>
      <trkpt lat="45.15173" lon="6.3032">
        <ele>2163.27</ele>
        <time>2022-09-10T12:36:15Z</time>
      </trkpt>
      <trkpt lat="45.15181" lon="6.30301">
        <ele>2159.063</ele>
        <time>2022-09-10T12:36:25Z</time>
      </trkpt>
      <trkpt lat="45.15181" lon="6.30302">
        <ele>2159.137</ele>
        <time>2022-09-10T12:36:34Z</time>
      </trkpt>
      <trkpt lat="45.15185" lon="6.30295">
        <ele>2157.449</ele>
        <time>2022-09-10T12:36:44Z</time>
      </trkpt>
      <trkpt lat="45.15206" lon="6.30273">
        <ele>2151.926</ele>
        <time>2022-09-10T12:36:54Z</time>
      </trkpt>
      <trkpt lat="45.15251" lon="6.30199">
        <ele>2134.835</ele>
        <time>2022-09-10T12:37:04Z</time>
      </trkpt>
      <trkpt lat="45.1529" lon="6.30139">
        <ele>2119.931</ele>
        <time>2022-09-10T12:37:13Z</time>
      </trkpt>
      <trkpt lat="45.15314" lon="6.30097">
        <ele>2109.723</ele>
        <time>2022-09-10T12:37:23Z</time>
      </trkpt>
      <trkpt lat="45.15351" lon="6.30018">
        <ele>2095.523</ele>
        <time>2022-09-10T12:37:33Z</time>
      </trkpt>
      <trkpt lat="45.15368" lon="6.29951">
        <ele>2088.731</ele>
        <time>2022-09-10T12:37:42Z</time>
      </trkpt>
      <trkpt lat="45.15379" lon="6.29889">
        <ele>2081.39</ele>
        <time>2022-09-10T12:37:52Z</time>
      </trkpt>
      <trkpt lat="45.15401" lon="6.29822">
        <ele>2065.166</ele>
        <time>2022-09-10T12:38:02Z</time>
      </trkpt>
      <trkpt lat="45.15409" lon="6.29767">
        <ele>2051.637</ele>
        <time>2022-09-10T12:38:11Z</time>
      </trkpt>
      <trkpt lat="45.15425" lon="6.29756">
        <ele>2047.075</ele>
        <time>2022-09-10T12:38:21Z</time>
      </trkpt>
      <trkpt lat="45.15432" lon="6.29761">
        <ele>2044.649</ele>
        <time>2022-09-10T12:38:30Z</time>
      </trkpt>
      <trkpt lat="45.15433" lon="6.29762">
        <ele>2044.344</ele>
        <time>2022-09-10T12:38:39Z</time>
      </trkpt>
      <trkpt lat="45.15433" lon="6.29762">
        <ele>2043.759</ele>
        <time>2022-09-10T12:38:48Z</time>
      </trkpt>
      <trkpt lat="45.15434" lon="6.29763">
        <ele>2042.764</ele>
        <time>2022-09-10T12:38:58Z</time>
      </trkpt>
      <trkpt lat="45.15441" lon="6.29775">
        <ele>2038.235</ele>
        <time>2022-09-10T12:39:08Z</time>
      </trkpt>
      <trkpt lat="45.15445" lon="6.29782">
        <ele>2035.994</ele>
        <time>2022-09-10T12:39:17Z</time>
      </trkpt>
      <trkpt lat="45.15446" lon="6.2979">
        <ele>2036.733</ele>
        <time>2022-09-10T12:39:27Z</time>
      </trkpt>
      <trkpt lat="45.15448" lon="6.29799">
        <ele>2036.853</ele>
        <time>2022-09-10T12:39:36Z</time>
      </trkpt>
      <trkpt lat="45.15451" lon="6.29807">
        <ele>2034.683</ele>
        <time>2022-09-10T12:39:45Z</time>
      </trkpt>
      <trkpt lat="45.15458" lon="6.29809">
        <ele>2033.155</ele>
        <time>2022-09-10T12:39:55Z</time>
      </trkpt>
      <trkpt lat="45.15462" lon="6.29801">
        <ele>2031.003</ele>
        <time>2022-09-10T12:40:05Z</time>
      </trkpt>
      <trkpt lat="45.15465" lon="6.29799">
        <ele>2030.37</ele>
        <time>2022-09-10T12:40:14Z</time>
      </trkpt>
      <trkpt lat="45.15467" lon="6.29783">
        <ele>2029.164</ele>
        <time>2022-09-10T12:40:24Z</time>
      </trkpt>
      <trkpt lat="45.15476" lon="6.29779">
        <ele>2026.51</ele>
        <time>2022-09-10T12:40:34Z</time>
      </trkpt>
      <trkpt lat="45.15483" lon="6.29779">
        <ele>2024.668</ele>
        <time>2022-09-10T12:40:43Z</time>
      </trkpt>
      <trkpt lat="45.15492" lon="6.29768">
        <ele>2022.822</ele>
        <time>2022-09-10T12:40:53Z</time>
      </trkpt>
      <trkpt lat="45.15497" lon="6.29752">
        <ele>2022.719</ele>
        <time>2022-09-10T12:41:03Z</time>
      </trkpt>
      <trkpt lat="45.15503" lon="6.29739">
        <ele>2020.819</ele>
        <time>2022-09-10T12:41:12Z</time>
      </trkpt>
      <trkpt lat="45.15511" lon="6.29732">
        <ele>2017.449</ele>
        <time>2022-09-10T12:41:22Z</time>
      </trkpt>
      <trkpt lat="45.15506" lon="6.29721">
        <ele>2015.028</ele>
        <time>2022-09-10T12:41:32Z</time>
      </trkpt>
      <trkpt lat="45.15503" lon="6.29705">
        <ele>2009.887</ele>
        <time>2022-09-10T12:41:41Z</time>
      </trkpt>
      <trkpt lat="45.15509" lon="6.29703">
        <ele>2007.466</ele>
        <time>2022-09-10T12:41:51Z</time>
      </trkpt>
      <trkpt lat="45.15544" lon="6.29717">
        <ele>1997.353</ele>
        <time>2022-09-10T12:42:01Z</time>
      </trkpt>
      <trkpt lat="45.15567" lon="6.2974">
        <ele>1989.856</ele>
        <time>2022-09-10T12:42:10Z</time>
      </trkpt>
      <trkpt lat="45.15578" lon="6.29701">
        <ele>1978.422</ele>
        <time>2022-09-10T12:42:20Z</time>
      </trkpt>
      <trkpt lat="45.15589" lon="6.29672">
        <ele>1972.907</ele>
        <time>2022-09-10T12:42:29Z</time>
      </trkpt>
      <trkpt lat="45.15589" lon="6.29621">
        <ele>1970.115</ele>
        <time>2022-09-10T12:42:39Z</time>
      </trkpt>
      <trkpt lat="45.15592" lon="6.29569">
        <ele>1968.456</ele>
        <time>2022-09-10T12:42:49Z</time>
      </trkpt>
      <trkpt lat="45.15586" lon="6.29546">
        <ele>1968.501</ele>
        <time>2022-09-10T12:42:58Z</time>
      </trkpt>
      <trkpt lat="45.15587" lon="6.29547">
        <ele>1969.739</ele>
        <time>2022-09-10T12:43:07Z</time>
      </trkpt>
      <trkpt lat="45.15585" lon="6.29544">
        <ele>1969.996</ele>
        <time>2022-09-10T12:43:16Z</time>
      </trkpt>
      <trkpt lat="45.15599" lon="6.29518">
        <ele>1964.497</ele>
        <time>2022-09-10T12:43:25Z</time>
      </trkpt>
      <trkpt lat="45.15626" lon="6.29472">
        <ele>1958.778</ele>
        <time>2022-09-10T12:43:35Z</time>
      </trkpt>
      <trkpt lat="45.15662" lon="6.29446">
        <ele>1945.583</ele>
        <time>2022-09-10T12:43:45Z</time>
      </trkpt>
      <trkpt lat="45.15704" lon="6.29433">
        <ele>1935.82</ele>
        <time>2022-09-10T12:43:54Z</time>
      </trkpt>
      <trkpt lat="45.15726" lon="6.29381">
        <ele>1929.295</ele>
        <time>2022-09-10T12:44:04Z</time>
      </trkpt>
      <trkpt lat="45.15743" lon="6.29353">
        <ele>1917.407</ele>
        <time>2022-09-10T12:44:14Z</time>
      </trkpt>
      <trkpt lat="45.1576" lon="6.29356">
        <ele>1908.444</ele>
        <time>2022-09-10T12:44:23Z</time>
      </trkpt>
      <trkpt lat="45.15774" lon="6.2932">
        <ele>1900.338</ele>
        <time>2022-09-10T12:44:32Z</time>
      </trkpt>
      <trkpt lat="45.15793" lon="6.29246">
        <ele>1892.62</ele>
        <time>2022-09-10T12:44:42Z</time>
      </trkpt>
      <trkpt lat="45.15827" lon="6.29197">
        <ele>1883.934</ele>
        <time>2022-09-10T12:44:51Z</time>
      </trkpt>
      <trkpt lat="45.1584" lon="6.29151">
        <ele>1872.683</ele>
        <time>2022-09-10T12:45:01Z</time>
      </trkpt>
      <trkpt lat="45.15843" lon="6.2915">
        <ele>1872.174</ele>
        <time>2022-09-10T12:45:10Z</time>
      </trkpt>
      <trkpt lat="45.15841" lon="6.29155">
        <ele>1873.52</ele>
        <time>2022-09-10T12:45:20Z</time>
      </trkpt>
      <trkpt lat="45.15841" lon="6.29153">
        <ele>1873.516</ele>
        <time>2022-09-10T12:45:30Z</time>
      </trkpt>
      <trkpt lat="45.15841" lon="6.29149">
        <ele>1872.172</ele>
        <time>2022-09-10T12:45:40Z</time>
      </trkpt>
      <trkpt lat="45.1585" lon="6.29127">
        <ele>1866.139</ele>
        <time>2022-09-10T12:45:49Z</time>
      </trkpt>
      <trkpt lat="45.15872" lon="6.29085">
        <ele>1857.146</ele>
        <time>2022-09-10T12:45:58Z</time>
      </trkpt>
      <trkpt lat="45.15871" lon="6.29086">
        <ele>1856.587</ele>
        <time>2022-09-10T12:46:08Z</time>
      </trkpt>
      <trkpt lat="45.15873" lon="6.29087">
        <ele>1857.726</ele>
        <time>2022-09-10T12:46:17Z</time>
      </trkpt>
      <trkpt lat="45.15874" lon="6.29088">
        <ele>1858.364</ele>
        <time>2022-09-10T12:46:27Z</time>
      </trkpt>
      <trkpt lat="45.15874" lon="6.29088">
        <ele>1858.388</ele>
        <time>2022-09-10T12:46:37Z</time>
      </trkpt>
      <trkpt lat="45.15874" lon="6.29088">
        <ele>1858.381</ele>
        <time>2022-09-10T12:46:46Z</time>
      </trkpt>
      <trkpt lat="45.15873" lon="6.29088">
        <ele>1858.436</ele>
        <time>2022-09-10T12:46:55Z</time>
      </trkpt>
      <trkpt lat="45.15899" lon="6.29075">
        <ele>1850.406</ele>
        <time>2022-09-10T12:47:05Z</time>
      </trkpt>
      <trkpt lat="45.15942" lon="6.29064">
        <ele>1841.278</ele>
        <time>2022-09-10T12:47:14Z</time>
      </trkpt>
      <trkpt lat="45.15964" lon="6.29039">
        <ele>1830.413</ele>
        <time>2022-09-10T12:47:23Z</time>
      </trkpt>
      <trkpt lat="45.15999" lon="6.29039">
        <ele>1822.174</ele>
        <time>2022-09-10T12:47:33Z</time>
      </trkpt>
      <trkpt lat="45.16037" lon="6.29022">
        <ele>1810.702</ele>
        <time>2022-09-10T12:47:43Z</time>
      </trkpt>
      <trkpt lat="45.1607" lon="6.29017">
        <ele>1801.133</ele>
        <time>2022-09-10T12:47:52Z</time>
      </trkpt>
      <trkpt lat="45.16091" lon="6.29001">
        <ele>1797.958</ele>
        <time>2022-09-10T12:48:01Z</time>
      </trkpt>
      <trkpt lat="45.16124" lon="6.29007">
        <ele>1788.294</ele>
        <time>2022-09-10T12:48:11Z</time>
      </trkpt>
      <trkpt lat="45.16134" lon="6.2899">
        <ele>1775.669</ele>
        <time>2022-09-10T12:48:21Z</time>
      </trkpt>
      <trkpt lat="45.16141" lon="6.28974">
        <ele>1770.532</ele>
        <time>2022-09-10T12:48:30Z</time>
      </trkpt>
      <trkpt lat="45.16144" lon="6.28975">
        <ele>1769.484</ele>
        <time>2022-09-10T12:48:40Z</time>
      </trkpt>
      <trkpt lat="45.1616" lon="6.28991">
        <ele>1763.427</ele>
        <time>2022-09-10T12:48:50Z</time>
      </trkpt>
      <trkpt lat="45.16169" lon="6.28975">
        <ele>1755.044</ele>
        <time>2022-09-10T12:48:59Z</time>
      </trkpt>
      <trkpt lat="45.1617" lon="6.2894">
        <ele>1744.158</ele>
        <time>2022-09-10T12:49:08Z</time>
      </trkpt>
      <trkpt lat="45.16198" lon="6.28961">
        <ele>1732.369</ele>
        <time>2022-09-10T12:49:18Z</time>
      </trkpt>
      <trkpt lat="45.16218" lon="6.29005">
        <ele>1723.808</ele>
        <time>2022-09-10T12:49:27Z</time>
      </trkpt>
      <trkpt lat="45.1622" lon="6.29009">
        <ele>1724.077</ele>
        <time>2022-09-10T12:49:37Z</time>
      </trkpt>
      <trkpt lat="45.16222" lon="6.29011">
        <ele>1722.973</ele>
        <time>2022-09-10T12:49:46Z</time>
      </trkpt>
      <trkpt lat="45.16228" lon="6.29018">
        <ele>1722.537</ele>
        <time>2022-09-10T12:49:56Z</time>
      </trkpt>
      <trkpt lat="45.16232" lon="6.29006">
        <ele>1723.881</ele>
        <time>2022-09-10T12:50:06Z</time>
      </trkpt>
      <trkpt lat="45.16236" lon="6.28994">
        <ele>1724.76</ele>
        <time>2022-09-10T12:50:16Z</time>
      </trkpt>
      <trkpt lat="45.1624" lon="6.28984">
        <ele>1726.112</ele>
        <time>2022-09-10T12:50:25Z</time>
      </trkpt>
      <trkpt lat="45.16244" lon="6.28974">
        <ele>1728.041</ele>
        <time>2022-09-10T12:50:34Z</time>
      </trkpt>
      <trkpt lat="45.16249" lon="6.28968">
        <ele>1728.692</ele>
        <time>2022-09-10T12:50:44Z</time>
      </trkpt>
      <trkpt lat="45.16258" lon="6.28975">
        <ele>1731.432</ele>
        <time>2022-09-10T12:50:54Z</time>
      </trkpt>
      <trkpt lat="45.16264" lon="6.28984">
        <ele>1730.698</ele>
        <time>2022-09-10T12:51:03Z</time>
      </trkpt>
      <trkpt lat="45.16272" lon="6.28979">
        <ele>1732.926</ele>
        <time>2022-09-10T12:51:13Z</time>
      </trkpt>
      <trkpt lat="45.16278" lon="6.2897">
        <ele>1735.166</ele>
        <time>2022-09-10T12:51:23Z</time>
      </trkpt>
      <trkpt lat="45.16284" lon="6.28959">
        <ele>1738.337</ele>
        <time>2022-09-10T12:51:32Z</time>
      </trkpt>
      <trkpt lat="45.16291" lon="6.28954">
        <ele>1739.985</ele>
        <time>2022-09-10T12:51:41Z</time>
      </trkpt>
      <trkpt lat="45.16292" lon="6.28953">
        <ele>1740.846</ele>
        <time>2022-09-10T12:51:51Z</time>
      </trkpt>
      <trkpt lat="45.16292" lon="6.28953">
        <ele>1741.481</ele>
        <time>2022-09-10T12:52:00Z</time>
      </trkpt>
      <trkpt lat="45.16292" lon="6.28953">
        <ele>1741.681</ele>
        <time>2022-09-10T12:52:10Z</time>
      </trkpt>
      <trkpt lat="45.16292" lon="6.28954">
        <ele>1741.954</ele>
        <time>2022-09-10T12:52:19Z</time>
      </trkpt>
      <trkpt lat="45.16292" lon="6.28954">
        <ele>1741.961</ele>
        <time>2022-09-10T12:52:29Z</time>
      </trkpt>
      <trkpt lat="45.16295" lon="6.28949">
        <ele>1741.994</ele>
        <time>2022-09-10T12:52:38Z</time>
      </trkpt>
      <trkpt lat="45.16311" lon="6.28941">
        <ele>1743.831</ele>
        <time>2022-09-10T12:52:48Z</time>
      </trkpt>
      <trkpt lat="45.16325" lon="6.2892">
        <ele>1745.294</ele>
        <time>2022-09-10T12:52:58Z</time>
      </trkpt>
      <trkpt lat="45.16334" lon="6.28906">
        <ele>1745.42</ele>
        <time>2022-09-10T12:53:07Z</time>
      </trkpt>
      <trkpt lat="45.16334" lon="6.28906">
        <ele>1746.161</ele>
        <time>2022-09-10T12:53:17Z</time>
      </trkpt>
      <trkpt lat="45.16334" lon="6.28906">
        <ele>1745.363</ele>
        <time>2022-09-10T12:53:26Z</time>
      </trkpt>
      <trkpt lat="45.1634" lon="6.2889">
        <ele>1744.007</ele>
        <time>2022-09-10T12:53:36Z</time>
      </trkpt>
      <trkpt lat="45.16382" lon="6.28853">
        <ele>1739.417</ele>
        <time>2022-09-10T12:53:45Z</time>
      </trkpt>
      <trkpt lat="45.16427" lon="6.28792">
        <ele>1737.345</ele>
        <time>2022-09-10T12:53:55Z</time>
      </trkpt>
      <trkpt lat="45.16445" lon="6.28752">
        <ele>1737.784</ele>
        <time>2022-09-10T12:54:05Z</time>
      </trkpt>
      <trkpt lat="45.16464" lon="6.28714">
        <ele>1735.302</ele>
        <time>2022-09-10T12:54:14Z</time>
      </trkpt>
      <trkpt lat="45.16538" lon="6.28675">
        <ele>1722.845</ele>
        <time>2022-09-10T12:54:24Z</time>
      </trkpt>
      <trkpt lat="45.1663" lon="6.28649">
        <ele>1707.202</ele>
        <time>2022-09-10T12:54:34Z</time>
      </trkpt>
      <trkpt lat="45.16716" lon="6.28641">
        <ele>1696.212</ele>
        <time>2022-09-10T12:54:43Z</time>
      </trkpt>
      <trkpt lat="45.16804" lon="6.28633">
        <ele>1683.551</ele>
        <time>2022-09-10T12:54:53Z</time>
      </trkpt>
      <trkpt lat="45.1687" lon="6.28614">
        <ele>1671.811</ele>
        <time>2022-09-10T12:55:03Z</time>
      </trkpt>
      <trkpt lat="45.16924" lon="6.28598">
        <ele>1661.968</ele>
        <time>2022-09-10T12:55:12Z</time>
      </trkpt>
      <trkpt lat="45.16986" lon="6.28586">
        <ele>1649.589</ele>
        <time>2022-09-10T12:55:21Z</time>
      </trkpt>
      <trkpt lat="45.17059" lon="6.28569">
        <ele>1638.625</ele>
        <time>2022-09-10T12:55:31Z</time>
      </trkpt>
      <trkpt lat="45.17135" lon="6.28557">
        <ele>1626.421</ele>
        <time>2022-09-10T12:55:41Z</time>
      </trkpt>
      <trkpt lat="45.17195" lon="6.28557">
        <ele>1616.033</ele>
        <time>2022-09-10T12:55:50Z</time>
      </trkpt>
      <trkpt lat="45.17249" lon="6.28583">
        <ele>1602.652</ele>
        <time>2022-09-10T12:55:59Z</time>
      </trkpt>
      <trkpt lat="45.17307" lon="6.28561">
        <ele>1592.492</ele>
        <time>2022-09-10T12:56:09Z</time>
      </trkpt>
      <trkpt lat="45.17356" lon="6.2853">
        <ele>1581.051</ele>
        <time>2022-09-10T12:56:18Z</time>
      </trkpt>
      <trkpt lat="45.17401" lon="6.28574">
        <ele>1568.746</ele>
        <time>2022-09-10T12:56:28Z</time>
      </trkpt>
      <trkpt lat="45.1738" lon="6.28525">
        <ele>1559.015</ele>
        <time>2022-09-10T12:56:37Z</time>
      </trkpt>
      <trkpt lat="45.1739" lon="6.28523">
        <ele>1546.383</ele>
        <time>2022-09-10T12:56:47Z</time>
      </trkpt>
      <trkpt lat="45.17398" lon="6.28511">
        <ele>1538.515</ele>
        <time>2022-09-10T12:56:57Z</time>
      </trkpt>
      <trkpt lat="45.17378" lon="6.28438">
        <ele>1525.638</ele>
        <time>2022-09-10T12:57:06Z</time>
      </trkpt>
      <trkpt lat="45.17361" lon="6.28427">
        <ele>1519.938</ele>
        <time>2022-09-10T12:57:15Z</time>
      </trkpt>
      <trkpt lat="45.17408" lon="6.28408">
        <ele>1508.864</ele>
        <time>2022-09-10T12:57:24Z</time>
      </trkpt>
      <trkpt lat="45.17429" lon="6.28467">
        <ele>1500.306</ele>
        <time>2022-09-10T12:57:33Z</time>
      </trkpt>
      <trkpt lat="45.17436" lon="6.28381">
        <ele>1491.541</ele>
        <time>2022-09-10T12:57:43Z</time>
      </trkpt>
      <trkpt lat="45.17405" lon="6.28337">
        <ele>1477.176</ele>
        <time>2022-09-10T12:57:53Z</time>
      </trkpt>
      <trkpt lat="45.17347" lon="6.28332">
        <ele>1465.608</ele>
        <time>2022-09-10T12:58:03Z</time>
      </trkpt>
      <trkpt lat="45.1736" lon="6.28304">
        <ele>1453.684</ele>
        <time>2022-09-10T12:58:12Z</time>
      </trkpt>
      <trkpt lat="45.17414" lon="6.28268">
        <ele>1442.276</ele>
        <time>2022-09-10T12:58:21Z</time>
      </trkpt>
      <trkpt lat="45.17477" lon="6.2823">
        <ele>1428.522</ele>
        <time>2022-09-10T12:58:30Z</time>
      </trkpt>
      <trkpt lat="45.17527" lon="6.28265">
        <ele>1417.416</ele>
        <time>2022-09-10T12:58:40Z</time>
      </trkpt>
      <trkpt lat="45.1754" lon="6.28254">
        <ele>1413.729</ele>
        <time>2022-09-10T12:58:49Z</time>
      </trkpt>
      <trkpt lat="45.17571" lon="6.28242">
        <ele>1412.38</ele>
        <time>2022-09-10T12:58:59Z</time>
      </trkpt>
      <trkpt lat="45.17607" lon="6.28239">
        <ele>1413.548</ele>
        <time>2022-09-10T12:59:09Z</time>
      </trkpt>
      <trkpt lat="45.17643" lon="6.28242">
        <ele>1412.487</ele>
        <time>2022-09-10T12:59:19Z</time>
      </trkpt>
      <trkpt lat="45.17679" lon="6.28268">
        <ele>1411.555</ele>
        <time>2022-09-10T12:59:28Z</time>
      </trkpt>
      <trkpt lat="45.17716" lon="6.28297">
        <ele>1410.94</ele>
        <time>2022-09-10T12:59:37Z</time>
      </trkpt>
      <trkpt lat="45.17764" lon="6.28353">
        <ele>1406.902</ele>
        <time>2022-09-10T12:59:47Z</time>
      </trkpt>
      <trkpt lat="45.17807" lon="6.28388">
        <ele>1404.892</ele>
        <time>2022-09-10T12:59:56Z</time>
      </trkpt>
      <trkpt lat="45.17852" lon="6.28423">
        <ele>1405.136</ele>
        <time>2022-09-10T13:00:06Z</time>
      </trkpt>
      <trkpt lat="45.17906" lon="6.28448">
        <ele>1401.804</ele>
        <time>2022-09-10T13:00:16Z</time>
      </trkpt>
      <trkpt lat="45.17965" lon="6.2848">
        <ele>1400.354</ele>
        <time>2022-09-10T13:00:25Z</time>
      </trkpt>
      <trkpt lat="45.1803" lon="6.28483">
        <ele>1398.187</ele>
        <time>2022-09-10T13:00:35Z</time>
      </trkpt>
      <trkpt lat="45.18087" lon="6.28448">
        <ele>1395.147</ele>
        <time>2022-09-10T13:00:45Z</time>
      </trkpt>
      <trkpt lat="45.1814" lon="6.28422">
        <ele>1392.333</ele>
        <time>2022-09-10T13:00:54Z</time>
      </trkpt>
      <trkpt lat="45.18206" lon="6.28382">
        <ele>1386.472</ele>
        <time>2022-09-10T13:01:04Z</time>
      </trkpt>
      <trkpt lat="45.18243" lon="6.28369">
        <ele>1388.38</ele>
        <time>2022-09-10T13:01:14Z</time>
      </trkpt>
      <trkpt lat="45.18261" lon="6.28362">
        <ele>1389.218</ele>
        <time>2022-09-10T13:01:24Z</time>
      </trkpt>
      <trkpt lat="45.18275" lon="6.28316">
        <ele>1384.866</ele>
        <time>2022-09-10T13:01:33Z</time>
      </trkpt>
      <trkpt lat="45.18322" lon="6.28288">
        <ele>1382.004</ele>
        <time>2022-09-10T13:01:43Z</time>
      </trkpt>
      <trkpt lat="45.18341" lon="6.28256">
        <ele>1383.145</ele>
        <time>2022-09-10T13:01:52Z</time>
      </trkpt>
      <trkpt lat="45.18382" lon="6.28245">
        <ele>1378.775</ele>
        <time>2022-09-10T13:02:01Z</time>
      </trkpt>
      <trkpt lat="45.18428" lon="6.28287">
        <ele>1368.885</ele>
        <time>2022-09-10T13:02:11Z</time>
      </trkpt>
      <trkpt lat="45.18469" lon="6.28329">
        <ele>1362.731</ele>
        <time>2022-09-10T13:02:20Z</time>
      </trkpt>
      <trkpt lat="45.18516" lon="6.28333">
        <ele>1349.738</ele>
        <time>2022-09-10T13:02:29Z</time>
      </trkpt>
      <trkpt lat="45.18541" lon="6.2841">
        <ele>1338.707</ele>
        <time>2022-09-10T13:02:38Z</time>
      </trkpt>
      <trkpt lat="45.18565" lon="6.28474">
        <ele>1335.109</ele>
        <time>2022-09-10T13:02:48Z</time>
      </trkpt>
      <trkpt lat="45.18616" lon="6.2849">
        <ele>1327.27</ele>
        <time>2022-09-10T13:02:58Z</time>
      </trkpt>
      <trkpt lat="45.18657" lon="6.28486">
        <ele>1320.83</ele>
        <time>2022-09-10T13:03:08Z</time>
      </trkpt>
      <trkpt lat="45.18705" lon="6.28458">
        <ele>1314.857</ele>
        <time>2022-09-10T13:03:17Z</time>
      </trkpt>
      <trkpt lat="45.18772" lon="6.28439">
        <ele>1306.031</ele>
        <time>2022-09-10T13:03:26Z</time>
      </trkpt>
      <trkpt lat="45.18863" lon="6.28392">
        <ele>1299.172</ele>
        <time>2022-09-10T13:03:36Z</time>
      </trkpt>
      <trkpt lat="45.18933" lon="6.28378">
        <ele>1293.255</ele>
        <time>2022-09-10T13:03:46Z</time>
      </trkpt>
      <trkpt lat="45.18985" lon="6.28437">
        <ele>1289.605</ele>
        <time>2022-09-10T13:03:55Z</time>
      </trkpt>
      <trkpt lat="45.19027" lon="6.28486">
        <ele>1286.679</ele>
        <time>2022-09-10T13:04:04Z</time>
      </trkpt>
      <trkpt lat="45.19056" lon="6.28503">
        <ele>1290.597</ele>
        <time>2022-09-10T13:04:14Z</time>
      </trkpt>
      <trkpt lat="45.19069" lon="6.28506">
        <ele>1289.613</ele>
        <time>2022-09-10T13:04:23Z</time>
      </trkpt>
      <trkpt lat="45.19083" lon="6.28521">
        <ele>1290.081</ele>
        <time>2022-09-10T13:04:33Z</time>
      </trkpt>
      <trkpt lat="45.19093" lon="6.28532">
        <ele>1288.871</ele>
        <time>2022-09-10T13:04:42Z</time>
      </trkpt>
      <trkpt lat="45.19091" lon="6.28532">
        <ele>1288.025</ele>
        <time>2022-09-10T13:04:52Z</time>
      </trkpt>
      <trkpt lat="45.19091" lon="6.28531">
        <ele>1286.263</ele>
        <time>2022-09-10T13:05:02Z</time>
      </trkpt>
      <trkpt lat="45.19095" lon="6.28539">
        <ele>1287.315</ele>
        <time>2022-09-10T13:05:11Z</time>
      </trkpt>
      <trkpt lat="45.19098" lon="6.28545">
        <ele>1287.634</ele>
        <time>2022-09-10T13:05:21Z</time>
      </trkpt>
      <trkpt lat="45.191" lon="6.28544">
        <ele>1288.19</ele>
        <time>2022-09-10T13:05:31Z</time>
      </trkpt>
      <trkpt lat="45.19101" lon="6.28544">
        <ele>1288.269</ele>
        <time>2022-09-10T13:05:40Z</time>
      </trkpt>
      <trkpt lat="45.19101" lon="6.28544">
        <ele>1288.281</ele>
        <time>2022-09-10T13:05:50Z</time>
      </trkpt>
      <trkpt lat="45.19101" lon="6.28544">
        <ele>1288.292</ele>
        <time>2022-09-10T13:06:00Z</time>
      </trkpt>
      <trkpt lat="45.19101" lon="6.28544">
        <ele>1288.306</ele>
        <time>2022-09-10T13:06:10Z</time>
      </trkpt>
      <trkpt lat="45.19101" lon="6.28544">
        <ele>1288.579</ele>
        <time>2022-09-10T13:06:20Z</time>
      </trkpt>
      <trkpt lat="45.19099" lon="6.28543">
        <ele>1288.222</ele>
        <time>2022-09-10T13:06:29Z</time>
      </trkpt>
      <trkpt lat="45.191" lon="6.28543">
        <ele>1288.167</ele>
        <time>2022-09-10T13:06:39Z</time>
      </trkpt>
      <trkpt lat="45.191" lon="6.28543">
        <ele>1288.164</ele>
        <time>2022-09-10T13:06:48Z</time>
      </trkpt>
      <trkpt lat="45.191" lon="6.28543">
        <ele>1288.153</ele>
        <time>2022-09-10T13:06:57Z</time>
      </trkpt>
      <trkpt lat="45.191" lon="6.28543">
        <ele>1288.135</ele>
        <time>2022-09-10T13:07:07Z</time>
      </trkpt>
      <trkpt lat="45.19112" lon="6.28562">
        <ele>1287.869</ele>
        <time>2022-09-10T13:07:17Z</time>
      </trkpt>
      <trkpt lat="45.19143" lon="6.28602">
        <ele>1287.089</ele>
        <time>2022-09-10T13:07:26Z</time>
      </trkpt>
      <trkpt lat="45.19174" lon="6.28629">
        <ele>1284.206</ele>
        <time>2022-09-10T13:07:35Z</time>
      </trkpt>
      <trkpt lat="45.19198" lon="6.28638">
        <ele>1283.791</ele>
        <time>2022-09-10T13:07:44Z</time>
      </trkpt>
      <trkpt lat="45.19226" lon="6.28612">
        <ele>1284.948</ele>
        <time>2022-09-10T13:07:54Z</time>
      </trkpt>
      <trkpt lat="45.19239" lon="6.28606">
        <ele>1285.837</ele>
        <time>2022-09-10T13:08:03Z</time>
      </trkpt>
      <trkpt lat="45.19241" lon="6.28607">
        <ele>1284.717</ele>
        <time>2022-09-10T13:08:13Z</time>
      </trkpt>
      <trkpt lat="45.19242" lon="6.2861">
        <ele>1285.218</ele>
        <time>2022-09-10T13:08:23Z</time>
      </trkpt>
      <trkpt lat="45.19241" lon="6.28609">
        <ele>1285.19</ele>
        <time>2022-09-10T13:08:33Z</time>
      </trkpt>
      <trkpt lat="45.1924" lon="6.2861">
        <ele>1283.459</ele>
        <time>2022-09-10T13:08:42Z</time>
      </trkpt>
      <trkpt lat="45.1924" lon="6.2861">
        <ele>1283.429</ele>
        <time>2022-09-10T13:08:52Z</time>
      </trkpt>
      <trkpt lat="45.1924" lon="6.2861">
        <ele>1283.424</ele>
        <time>2022-09-10T13:09:01Z</time>
      </trkpt>
      <trkpt lat="45.1924" lon="6.28609">
        <ele>1283.421</ele>
        <time>2022-09-10T13:09:11Z</time>
      </trkpt>
      <trkpt lat="45.1924" lon="6.28609">
        <ele>1283.441</ele>
        <time>2022-09-10T13:09:20Z</time>
      </trkpt>
      <trkpt lat="45.1924" lon="6.28609">
        <ele>1283.441</ele>
        <time>2022-09-10T13:09:29Z</time>
      </trkpt>
      <trkpt lat="45.1924" lon="6.28609">
        <ele>1283.437</ele>
        <time>2022-09-10T13:09:39Z</time>
      </trkpt>
      <trkpt lat="45.1924" lon="6.28609">
        <ele>1283.423</ele>
        <time>2022-09-10T13:09:48Z</time>
      </trkpt>
      <trkpt lat="45.19242" lon="6.2861">
        <ele>1284.638</ele>
        <time>2022-09-10T13:09:58Z</time>
      </trkpt>
      <trkpt lat="45.19242" lon="6.2861">
        <ele>1284.999</ele>
        <time>2022-09-10T13:10:07Z</time>
      </trkpt>
      <trkpt lat="45.19242" lon="6.2861">
        <ele>1284.978</ele>
        <time>2022-09-10T13:10:16Z</time>
      </trkpt>
      <trkpt lat="45.19242" lon="6.2861">
        <ele>1284.968</ele>
        <time>2022-09-10T13:10:25Z</time>
      </trkpt>
      <trkpt lat="45.19242" lon="6.2861">
        <ele>1284.967</ele>
        <time>2022-09-10T13:10:35Z</time>
      </trkpt>
      <trkpt lat="45.19242" lon="6.28611">
        <ele>1285.577</ele>
        <time>2022-09-10T13:10:45Z</time>
      </trkpt>
      <trkpt lat="45.19243" lon="6.28612">
        <ele>1285.273</ele>
        <time>2022-09-10T13:10:54Z</time>
      </trkpt>
      <trkpt lat="45.19243" lon="6.28612">
        <ele>1285.313</ele>
        <time>2022-09-10T13:11:03Z</time>
      </trkpt>
      <trkpt lat="45.19243" lon="6.28612">
        <ele>1285.312</ele>
        <time>2022-09-10T13:11:13Z</time>
      </trkpt>
      <trkpt lat="45.19243" lon="6.28612">
        <ele>1285.308</ele>
        <time>2022-09-10T13:11:23Z</time>
      </trkpt>
      <trkpt lat="45.19243" lon="6.28612">
        <ele>1285.321</ele>
        <time>2022-09-10T13:11:33Z</time>
      </trkpt>
      <trkpt lat="45.19243" lon="6.28612">
        <ele>1285.325</ele>
        <time>2022-09-10T13:11:43Z</time>
      </trkpt>
      <trkpt lat="45.19243" lon="6.28612">
        <ele>1285.328</ele>
        <time>2022-09-10T13:11:53Z</time>
      </trkpt>
      <trkpt lat="45.19249" lon="6.28613">
        <ele>1285.188</ele>
        <time>2022-09-10T13:12:03Z</time>
      </trkpt>
      <trkpt lat="45.19264" lon="6.28641">
        <ele>1284.62</ele>
        <time>2022-09-10T13:12:12Z</time>
      </trkpt>
      <trkpt lat="45.19273" lon="6.28696">
        <ele>1283.031</ele>
        <time>2022-09-10T13:12:22Z</time>
      </trkpt>
      <trkpt lat="45.19245" lon="6.28763">
        <ele>1280.942</ele>
        <time>2022-09-10T13:12:32Z</time>
      </trkpt>
      <trkpt lat="45.19223" lon="6.28826">
        <ele>1280.792</ele>
        <time>2022-09-10T13:12:41Z</time>
      </trkpt>
      <trkpt lat="45.19222" lon="6.28912">
        <ele>1277.008</ele>
        <time>2022-09-10T13:12:51Z</time>
      </trkpt>
      <trkpt lat="45.19244" lon="6.28972">
        <ele>1272.285</ele>
        <time>2022-09-10T13:13:01Z</time>
      </trkpt>
      <trkpt lat="45.19283" lon="6.29031">
        <ele>1268.753</ele>
        <time>2022-09-10T13:13:11Z</time>
      </trkpt>
      <trkpt lat="45.19271" lon="6.29108">
        <ele>1267.15</ele>
        <time>2022-09-10T13:13:20Z</time>
      </trkpt>
      <trkpt lat="45.1924" lon="6.29198">
        <ele>1265.329</ele>
        <time>2022-09-10T13:13:30Z</time>
      </trkpt>
      <trkpt lat="45.19242" lon="6.29288">
        <ele>1258.095</ele>
        <time>2022-09-10T13:13:39Z</time>
      </trkpt>
      <trkpt lat="45.19293" lon="6.29376">
        <ele>1251.947</ele>
        <time>2022-09-10T13:13:49Z</time>
      </trkpt>
      <trkpt lat="45.19333" lon="6.29499">
        <ele>1247.181</ele>
        <time>2022-09-10T13:13:59Z</time>
      </trkpt>
      <trkpt lat="45.19352" lon="6.29625">
        <ele>1243.367</ele>
        <time>2022-09-10T13:14:08Z</time>
      </trkpt>
      <trkpt lat="45.19392" lon="6.29732">
        <ele>1238.476</ele>
        <time>2022-09-10T13:14:17Z</time>
      </trkpt>
      <trkpt lat="45.19465" lon="6.29805">
        <ele>1230.394</ele>
        <time>2022-09-10T13:14:27Z</time>
      </trkpt>
      <trkpt lat="45.1954" lon="6.29839">
        <ele>1229.773</ele>
        <time>2022-09-10T13:14:36Z</time>
      </trkpt>
      <trkpt lat="45.19586" lon="6.29871">
        <ele>1231.012</ele>
        <time>2022-09-10T13:14:45Z</time>
      </trkpt>
      <trkpt lat="45.19599" lon="6.29943">
        <ele>1230.968</ele>
        <time>2022-09-10T13:14:55Z</time>
      </trkpt>
      <trkpt lat="45.19615" lon="6.30008">
        <ele>1233.092</ele>
        <time>2022-09-10T13:15:05Z</time>
      </trkpt>
      <trkpt lat="45.19638" lon="6.30048">
        <ele>1229.709</ele>
        <time>2022-09-10T13:15:14Z</time>
      </trkpt>
      <trkpt lat="45.19665" lon="6.30078">
        <ele>1226.815</ele>
        <time>2022-09-10T13:15:23Z</time>
      </trkpt>
      <trkpt lat="45.19686" lon="6.30107">
        <ele>1226.694</ele>
        <time>2022-09-10T13:15:32Z</time>
      </trkpt>
      <trkpt lat="45.19686" lon="6.30134">
        <ele>1228.841</ele>
        <time>2022-09-10T13:15:42Z</time>
      </trkpt>
      <trkpt lat="45.19686" lon="6.30169">
        <ele>1232.949</ele>
        <time>2022-09-10T13:15:51Z</time>
      </trkpt>
      <trkpt lat="45.19695" lon="6.30193">
        <ele>1234.839</ele>
        <time>2022-09-10T13:16:00Z</time>
      </trkpt>
      <trkpt lat="45.197" lon="6.30226">
        <ele>1235.76</ele>
        <time>2022-09-10T13:16:10Z</time>
      </trkpt>
      <trkpt lat="45.19705" lon="6.30259">
        <ele>1237.626</ele>
        <time>2022-09-10T13:16:20Z</time>
      </trkpt>
      <trkpt lat="45.19708" lon="6.30293">
        <ele>1238.671</ele>
        <time>2022-09-10T13:16:29Z</time>
      </trkpt>
      <trkpt lat="45.1967" lon="6.30313">
        <ele>1236.461</ele>
        <time>2022-09-10T13:16:39Z</time>
      </trkpt>
      <trkpt lat="45.19654" lon="6.30353">
        <ele>1235.982</ele>
        <time>2022-09-10T13:16:48Z</time>
      </trkpt>
      <trkpt lat="45.19659" lon="6.30374">
        <ele>1237.436</ele>
        <time>2022-09-10T13:16:57Z</time>
      </trkpt>
      <trkpt lat="45.19666" lon="6.30398">
        <ele>1237.859</ele>
        <time>2022-09-10T13:17:07Z</time>
      </trkpt>
      <trkpt lat="45.19674" lon="6.3042">
        <ele>1238.899</ele>
        <time>2022-09-10T13:17:17Z</time>
      </trkpt>
      <trkpt lat="45.19685" lon="6.30433">
        <ele>1240.883</ele>
        <time>2022-09-10T13:17:26Z</time>
      </trkpt>
      <trkpt lat="45.19697" lon="6.3044">
        <ele>1241</ele>
        <time>2022-09-10T13:17:35Z</time>
      </trkpt>
      <trkpt lat="45.19709" lon="6.3045">
        <ele>1243.601</ele>
        <time>2022-09-10T13:17:45Z</time>
      </trkpt>
      <trkpt lat="45.1972" lon="6.30459">
        <ele>1244.421</ele>
        <time>2022-09-10T13:17:54Z</time>
      </trkpt>
      <trkpt lat="45.19732" lon="6.30474">
        <ele>1247.781</ele>
        <time>2022-09-10T13:18:04Z</time>
      </trkpt>
      <trkpt lat="45.19742" lon="6.30489">
        <ele>1249.917</ele>
        <time>2022-09-10T13:18:14Z</time>
      </trkpt>
      <trkpt lat="45.19752" lon="6.30506">
        <ele>1252.798</ele>
        <time>2022-09-10T13:18:23Z</time>
      </trkpt>
      <trkpt lat="45.1976" lon="6.3052">
        <ele>1252.357</ele>
        <time>2022-09-10T13:18:32Z</time>
      </trkpt>
      <trkpt lat="45.1977" lon="6.30533">
        <ele>1254.865</ele>
        <time>2022-09-10T13:18:41Z</time>
      </trkpt>
      <trkpt lat="45.19781" lon="6.30548">
        <ele>1255.414</ele>
        <time>2022-09-10T13:18:51Z</time>
      </trkpt>
      <trkpt lat="45.19792" lon="6.30558">
        <ele>1257.033</ele>
        <time>2022-09-10T13:19:00Z</time>
      </trkpt>
      <trkpt lat="45.19801" lon="6.30568">
        <ele>1256.371</ele>
        <time>2022-09-10T13:19:09Z</time>
      </trkpt>
      <trkpt lat="45.19813" lon="6.30581">
        <ele>1257.387</ele>
        <time>2022-09-10T13:19:19Z</time>
      </trkpt>
      <trkpt lat="45.19824" lon="6.30594">
        <ele>1258.765</ele>
        <time>2022-09-10T13:19:28Z</time>
      </trkpt>
      <trkpt lat="45.19834" lon="6.30612">
        <ele>1259.569</ele>
        <time>2022-09-10T13:19:38Z</time>
      </trkpt>
      <trkpt lat="45.19847" lon="6.30628">
        <ele>1262.359</ele>
        <time>2022-09-10T13:19:48Z</time>
      </trkpt>
      <trkpt lat="45.19859" lon="6.30642">
        <ele>1264.095</ele>
        <time>2022-09-10T13:19:58Z</time>
      </trkpt>
      <trkpt lat="45.19871" lon="6.30652">
        <ele>1267.207</ele>
        <time>2022-09-10T13:20:07Z</time>
      </trkpt>
      <trkpt lat="45.19885" lon="6.30657">
        <ele>1268.075</ele>
        <time>2022-09-10T13:20:17Z</time>
      </trkpt>
      <trkpt lat="45.19898" lon="6.30661">
        <ele>1268.043</ele>
        <time>2022-09-10T13:20:26Z</time>
      </trkpt>
      <trkpt lat="45.19911" lon="6.30672">
        <ele>1270.484</ele>
        <time>2022-09-10T13:20:35Z</time>
      </trkpt>
      <trkpt lat="45.19922" lon="6.30687">
        <ele>1271.196</ele>
        <time>2022-09-10T13:20:45Z</time>
      </trkpt>
      <trkpt lat="45.19929" lon="6.30708">
        <ele>1272.713</ele>
        <time>2022-09-10T13:20:55Z</time>
      </trkpt>
      <trkpt lat="45.19929" lon="6.30729">
        <ele>1274.656</ele>
        <time>2022-09-10T13:21:05Z</time>
      </trkpt>
      <trkpt lat="45.19927" lon="6.30747">
        <ele>1278.588</ele>
        <time>2022-09-10T13:21:14Z</time>
      </trkpt>
      <trkpt lat="45.19924" lon="6.30767">
        <ele>1280.449</ele>
        <time>2022-09-10T13:21:24Z</time>
      </trkpt>
      <trkpt lat="45.19918" lon="6.30784">
        <ele>1282.499</ele>
        <time>2022-09-10T13:21:34Z</time>
      </trkpt>
      <trkpt lat="45.1991" lon="6.30798">
        <ele>1284.939</ele>
        <time>2022-09-10T13:21:43Z</time>
      </trkpt>
      <trkpt lat="45.19903" lon="6.30816">
        <ele>1285.022</ele>
        <time>2022-09-10T13:21:53Z</time>
      </trkpt>
      <trkpt lat="45.199" lon="6.30836">
        <ele>1285.218</ele>
        <time>2022-09-10T13:22:03Z</time>
      </trkpt>
      <trkpt lat="45.19897" lon="6.30855">
        <ele>1286.657</ele>
        <time>2022-09-10T13:22:12Z</time>
      </trkpt>
      <trkpt lat="45.19894" lon="6.30875">
        <ele>1289.297</ele>
        <time>2022-09-10T13:22:22Z</time>
      </trkpt>
      <trkpt lat="45.19896" lon="6.30893">
        <ele>1289.448</ele>
        <time>2022-09-10T13:22:31Z</time>
      </trkpt>
      <trkpt lat="45.19902" lon="6.30909">
        <ele>1291.157</ele>
        <time>2022-09-10T13:22:41Z</time>
      </trkpt>
      <trkpt lat="45.19912" lon="6.30921">
        <ele>1292.103</ele>
        <time>2022-09-10T13:22:51Z</time>
      </trkpt>
      <trkpt lat="45.19925" lon="6.30927">
        <ele>1294.518</ele>
        <time>2022-09-10T13:23:00Z</time>
      </trkpt>
      <trkpt lat="45.19939" lon="6.30934">
        <ele>1296.411</ele>
        <time>2022-09-10T13:23:10Z</time>
      </trkpt>
      <trkpt lat="45.19953" lon="6.30939">
        <ele>1297.323</ele>
        <time>2022-09-10T13:23:20Z</time>
      </trkpt>
      <trkpt lat="45.19965" lon="6.30948">
        <ele>1299.18</ele>
        <time>2022-09-10T13:23:29Z</time>
      </trkpt>
      <trkpt lat="45.19975" lon="6.30963">
        <ele>1301.337</ele>
        <time>2022-09-10T13:23:39Z</time>
      </trkpt>
      <trkpt lat="45.19983" lon="6.30979">
        <ele>1303.067</ele>
        <time>2022-09-10T13:23:49Z</time>
      </trkpt>
      <trkpt lat="45.19993" lon="6.30993">
        <ele>1306.686</ele>
        <time>2022-09-10T13:23:59Z</time>
      </trkpt>
      <trkpt lat="45.20004" lon="6.31003">
        <ele>1310.282</ele>
        <time>2022-09-10T13:24:08Z</time>
      </trkpt>
      <trkpt lat="45.20015" lon="6.31012">
        <ele>1312.993</ele>
        <time>2022-09-10T13:24:18Z</time>
      </trkpt>
      <trkpt lat="45.20025" lon="6.31017">
        <ele>1311.455</ele>
        <time>2022-09-10T13:24:27Z</time>
      </trkpt>
      <trkpt lat="45.20037" lon="6.31024">
        <ele>1310.532</ele>
        <time>2022-09-10T13:24:37Z</time>
      </trkpt>
      <trkpt lat="45.2005" lon="6.3104">
        <ele>1307.943</ele>
        <time>2022-09-10T13:24:46Z</time>
      </trkpt>
      <trkpt lat="45.2006" lon="6.31055">
        <ele>1308.338</ele>
        <time>2022-09-10T13:24:55Z</time>
      </trkpt>
      <trkpt lat="45.20073" lon="6.3107">
        <ele>1311.665</ele>
        <time>2022-09-10T13:25:05Z</time>
      </trkpt>
      <trkpt lat="45.20085" lon="6.31084">
        <ele>1314.996</ele>
        <time>2022-09-10T13:25:15Z</time>
      </trkpt>
      <trkpt lat="45.20096" lon="6.311">
        <ele>1316.202</ele>
        <time>2022-09-10T13:25:24Z</time>
      </trkpt>
      <trkpt lat="45.20107" lon="6.31114">
        <ele>1318.562</ele>
        <time>2022-09-10T13:25:34Z</time>
      </trkpt>
      <trkpt lat="45.20119" lon="6.31123">
        <ele>1321.551</ele>
        <time>2022-09-10T13:25:44Z</time>
      </trkpt>
      <trkpt lat="45.20132" lon="6.31133">
        <ele>1321.422</ele>
        <time>2022-09-10T13:25:54Z</time>
      </trkpt>
      <trkpt lat="45.20143" lon="6.31142">
        <ele>1322.545</ele>
        <time>2022-09-10T13:26:03Z</time>
      </trkpt>
      <trkpt lat="45.20141" lon="6.31157">
        <ele>1324.325</ele>
        <time>2022-09-10T13:26:12Z</time>
      </trkpt>
      <trkpt lat="45.20128" lon="6.31148">
        <ele>1325.937</ele>
        <time>2022-09-10T13:26:22Z</time>
      </trkpt>
      <trkpt lat="45.20116" lon="6.31143">
        <ele>1328.894</ele>
        <time>2022-09-10T13:26:31Z</time>
      </trkpt>
      <trkpt lat="45.20104" lon="6.31141">
        <ele>1331.84</ele>
        <time>2022-09-10T13:26:41Z</time>
      </trkpt>
      <trkpt lat="45.20091" lon="6.31139">
        <ele>1335.454</ele>
        <time>2022-09-10T13:26:50Z</time>
      </trkpt>
      <trkpt lat="45.2008" lon="6.31137">
        <ele>1337.558</ele>
        <time>2022-09-10T13:26:59Z</time>
      </trkpt>
      <trkpt lat="45.20069" lon="6.31135">
        <ele>1339.34</ele>
        <time>2022-09-10T13:27:08Z</time>
      </trkpt>
      <trkpt lat="45.20056" lon="6.31131">
        <ele>1341.419</ele>
        <time>2022-09-10T13:27:18Z</time>
      </trkpt>
      <trkpt lat="45.20043" lon="6.31124">
        <ele>1337.236</ele>
        <time>2022-09-10T13:27:27Z</time>
      </trkpt>
      <trkpt lat="45.20027" lon="6.31118">
        <ele>1340.565</ele>
        <time>2022-09-10T13:27:37Z</time>
      </trkpt>
      <trkpt lat="45.20016" lon="6.31109">
        <ele>1340.422</ele>
        <time>2022-09-10T13:27:46Z</time>
      </trkpt>
      <trkpt lat="45.20004" lon="6.31101">
        <ele>1344.67</ele>
        <time>2022-09-10T13:27:55Z</time>
      </trkpt>
      <trkpt lat="45.19995" lon="6.31093">
        <ele>1345.304</ele>
        <time>2022-09-10T13:28:05Z</time>
      </trkpt>
      <trkpt lat="45.19984" lon="6.31087">
        <ele>1347.222</ele>
        <time>2022-09-10T13:28:14Z</time>
      </trkpt>
      <trkpt lat="45.19971" lon="6.31078">
        <ele>1352.484</ele>
        <time>2022-09-10T13:28:24Z</time>
      </trkpt>
      <trkpt lat="45.19957" lon="6.31073">
        <ele>1349.789</ele>
        <time>2022-09-10T13:28:34Z</time>
      </trkpt>
      <trkpt lat="45.19941" lon="6.31062">
        <ele>1351.504</ele>
        <time>2022-09-10T13:28:44Z</time>
      </trkpt>
      <trkpt lat="45.19928" lon="6.31053">
        <ele>1352.711</ele>
        <time>2022-09-10T13:28:54Z</time>
      </trkpt>
      <trkpt lat="45.19918" lon="6.3104">
        <ele>1354.052</ele>
        <time>2022-09-10T13:29:04Z</time>
      </trkpt>
      <trkpt lat="45.19907" lon="6.31031">
        <ele>1357.486</ele>
        <time>2022-09-10T13:29:14Z</time>
      </trkpt>
      <trkpt lat="45.19897" lon="6.31031">
        <ele>1356.373</ele>
        <time>2022-09-10T13:29:23Z</time>
      </trkpt>
      <trkpt lat="45.19886" lon="6.31035">
        <ele>1358.81</ele>
        <time>2022-09-10T13:29:32Z</time>
      </trkpt>
      <trkpt lat="45.19875" lon="6.31041">
        <ele>1358.703</ele>
        <time>2022-09-10T13:29:42Z</time>
      </trkpt>
      <trkpt lat="45.1986" lon="6.31041">
        <ele>1361.069</ele>
        <time>2022-09-10T13:29:51Z</time>
      </trkpt>
      <trkpt lat="45.19848" lon="6.31033">
        <ele>1362.936</ele>
        <time>2022-09-10T13:30:00Z</time>
      </trkpt>
      <trkpt lat="45.19835" lon="6.31024">
        <ele>1368.058</ele>
        <time>2022-09-10T13:30:10Z</time>
      </trkpt>
      <trkpt lat="45.19824" lon="6.31018">
        <ele>1370.456</ele>
        <time>2022-09-10T13:30:19Z</time>
      </trkpt>
      <trkpt lat="45.1981" lon="6.31013">
        <ele>1372.733</ele>
        <time>2022-09-10T13:30:29Z</time>
      </trkpt>
      <trkpt lat="45.19798" lon="6.31005">
        <ele>1372.059</ele>
        <time>2022-09-10T13:30:38Z</time>
      </trkpt>
      <trkpt lat="45.19784" lon="6.30997">
        <ele>1373.401</ele>
        <time>2022-09-10T13:30:48Z</time>
      </trkpt>
      <trkpt lat="45.19772" lon="6.3099">
        <ele>1379.065</ele>
        <time>2022-09-10T13:30:57Z</time>
      </trkpt>
      <trkpt lat="45.19761" lon="6.30981">
        <ele>1383.305</ele>
        <time>2022-09-10T13:31:07Z</time>
      </trkpt>
      <trkpt lat="45.19749" lon="6.30971">
        <ele>1386.142</ele>
        <time>2022-09-10T13:31:16Z</time>
      </trkpt>
      <trkpt lat="45.19738" lon="6.30957">
        <ele>1383.413</ele>
        <time>2022-09-10T13:31:26Z</time>
      </trkpt>
      <trkpt lat="45.19733" lon="6.30937">
        <ele>1383.722</ele>
        <time>2022-09-10T13:31:35Z</time>
      </trkpt>
      <trkpt lat="45.19731" lon="6.30913">
        <ele>1384.046</ele>
        <time>2022-09-10T13:31:45Z</time>
      </trkpt>
      <trkpt lat="45.19728" lon="6.3089">
        <ele>1385.569</ele>
        <time>2022-09-10T13:31:55Z</time>
      </trkpt>
      <trkpt lat="45.1972" lon="6.30874">
        <ele>1385.063</ele>
        <time>2022-09-10T13:32:05Z</time>
      </trkpt>
      <trkpt lat="45.19707" lon="6.30871">
        <ele>1384.293</ele>
        <time>2022-09-10T13:32:14Z</time>
      </trkpt>
      <trkpt lat="45.19692" lon="6.30878">
        <ele>1387.586</ele>
        <time>2022-09-10T13:32:24Z</time>
      </trkpt>
      <trkpt lat="45.19676" lon="6.30885">
        <ele>1393.605</ele>
        <time>2022-09-10T13:32:34Z</time>
      </trkpt>
      <trkpt lat="45.19661" lon="6.30891">
        <ele>1396.092</ele>
        <time>2022-09-10T13:32:44Z</time>
      </trkpt>
      <trkpt lat="45.19649" lon="6.30892">
        <ele>1392.978</ele>
        <time>2022-09-10T13:32:53Z</time>
      </trkpt>
      <trkpt lat="45.19636" lon="6.30898">
        <ele>1393.939</ele>
        <time>2022-09-10T13:33:03Z</time>
      </trkpt>
      <trkpt lat="45.19622" lon="6.30902">
        <ele>1393.312</ele>
        <time>2022-09-10T13:33:13Z</time>
      </trkpt>
      <trkpt lat="45.19607" lon="6.30902">
        <ele>1393.211</ele>
        <time>2022-09-10T13:33:23Z</time>
      </trkpt>
      <trkpt lat="45.19591" lon="6.30903">
        <ele>1393.387</ele>
        <time>2022-09-10T13:33:33Z</time>
      </trkpt>
      <trkpt lat="45.19576" lon="6.30906">
        <ele>1396.117</ele>
        <time>2022-09-10T13:33:43Z</time>
      </trkpt>
      <trkpt lat="45.19559" lon="6.30907">
        <ele>1401.303</ele>
        <time>2022-09-10T13:33:53Z</time>
      </trkpt>
      <trkpt lat="45.19542" lon="6.30905">
        <ele>1402.726</ele>
        <time>2022-09-10T13:34:03Z</time>
      </trkpt>
      <trkpt lat="45.19527" lon="6.30904">
        <ele>1402.789</ele>
        <time>2022-09-10T13:34:12Z</time>
      </trkpt>
      <trkpt lat="45.1952" lon="6.30922">
        <ele>1404.743</ele>
        <time>2022-09-10T13:34:21Z</time>
      </trkpt>
      <trkpt lat="45.19531" lon="6.30939">
        <ele>1407.231</ele>
        <time>2022-09-10T13:34:31Z</time>
      </trkpt>
      <trkpt lat="45.19549" lon="6.30953">
        <ele>1409.957</ele>
        <time>2022-09-10T13:34:41Z</time>
      </trkpt>
      <trkpt lat="45.19555" lon="6.30973">
        <ele>1410.545</ele>
        <time>2022-09-10T13:34:50Z</time>
      </trkpt>
      <trkpt lat="45.19562" lon="6.30994">
        <ele>1412.252</ele>
        <time>2022-09-10T13:34:59Z</time>
      </trkpt>
      <trkpt lat="45.19568" lon="6.31013">
        <ele>1413.669</ele>
        <time>2022-09-10T13:35:08Z</time>
      </trkpt>
      <trkpt lat="45.19575" lon="6.31034">
        <ele>1415.868</ele>
        <time>2022-09-10T13:35:18Z</time>
      </trkpt>
      <trkpt lat="45.19587" lon="6.31048">
        <ele>1417.592</ele>
        <time>2022-09-10T13:35:27Z</time>
      </trkpt>
      <trkpt lat="45.196" lon="6.3106">
        <ele>1419.88</ele>
        <time>2022-09-10T13:35:36Z</time>
      </trkpt>
      <trkpt lat="45.19616" lon="6.31073">
        <ele>1421.789</ele>
        <time>2022-09-10T13:35:46Z</time>
      </trkpt>
      <trkpt lat="45.19633" lon="6.31086">
        <ele>1424.533</ele>
        <time>2022-09-10T13:35:56Z</time>
      </trkpt>
      <trkpt lat="45.19649" lon="6.31088">
        <ele>1427.522</ele>
        <time>2022-09-10T13:36:05Z</time>
      </trkpt>
      <trkpt lat="45.19659" lon="6.31106">
        <ele>1426.897</ele>
        <time>2022-09-10T13:36:15Z</time>
      </trkpt>
      <trkpt lat="45.19643" lon="6.31117">
        <ele>1427.758</ele>
        <time>2022-09-10T13:36:25Z</time>
      </trkpt>
      <trkpt lat="45.19623" lon="6.31106">
        <ele>1429.255</ele>
        <time>2022-09-10T13:36:35Z</time>
      </trkpt>
      <trkpt lat="45.19605" lon="6.31101">
        <ele>1433.371</ele>
        <time>2022-09-10T13:36:44Z</time>
      </trkpt>
      <trkpt lat="45.19585" lon="6.31097">
        <ele>1433.987</ele>
        <time>2022-09-10T13:36:54Z</time>
      </trkpt>
      <trkpt lat="45.19566" lon="6.31092">
        <ele>1435.105</ele>
        <time>2022-09-10T13:37:03Z</time>
      </trkpt>
      <trkpt lat="45.19543" lon="6.31088">
        <ele>1437.864</ele>
        <time>2022-09-10T13:37:13Z</time>
      </trkpt>
      <trkpt lat="45.19522" lon="6.31084">
        <ele>1440.296</ele>
        <time>2022-09-10T13:37:23Z</time>
      </trkpt>
      <trkpt lat="45.19504" lon="6.31073">
        <ele>1441.367</ele>
        <time>2022-09-10T13:37:32Z</time>
      </trkpt>
      <trkpt lat="45.19486" lon="6.31066">
        <ele>1441.569</ele>
        <time>2022-09-10T13:37:41Z</time>
      </trkpt>
      <trkpt lat="45.19464" lon="6.31061">
        <ele>1443.89</ele>
        <time>2022-09-10T13:37:51Z</time>
      </trkpt>
      <trkpt lat="45.19446" lon="6.31055">
        <ele>1446.606</ele>
        <time>2022-09-10T13:38:00Z</time>
      </trkpt>
      <trkpt lat="45.19425" lon="6.31049">
        <ele>1449.38</ele>
        <time>2022-09-10T13:38:10Z</time>
      </trkpt>
      <trkpt lat="45.19408" lon="6.31046">
        <ele>1450.841</ele>
        <time>2022-09-10T13:38:19Z</time>
      </trkpt>
      <trkpt lat="45.1939" lon="6.31045">
        <ele>1453.816</ele>
        <time>2022-09-10T13:38:28Z</time>
      </trkpt>
      <trkpt lat="45.19372" lon="6.31044">
        <ele>1454.617</ele>
        <time>2022-09-10T13:38:37Z</time>
      </trkpt>
      <trkpt lat="45.19353" lon="6.31045">
        <ele>1456.951</ele>
        <time>2022-09-10T13:38:47Z</time>
      </trkpt>
      <trkpt lat="45.19335" lon="6.31048">
        <ele>1458.282</ele>
        <time>2022-09-10T13:38:56Z</time>
      </trkpt>
      <trkpt lat="45.19313" lon="6.31058">
        <ele>1460.726</ele>
        <time>2022-09-10T13:39:06Z</time>
      </trkpt>
      <trkpt lat="45.19296" lon="6.31071">
        <ele>1463.545</ele>
        <time>2022-09-10T13:39:15Z</time>
      </trkpt>
      <trkpt lat="45.19278" lon="6.31086">
        <ele>1465.865</ele>
        <time>2022-09-10T13:39:25Z</time>
      </trkpt>
      <trkpt lat="45.19261" lon="6.311">
        <ele>1468.409</ele>
        <time>2022-09-10T13:39:34Z</time>
      </trkpt>
      <trkpt lat="45.19245" lon="6.31112">
        <ele>1470.639</ele>
        <time>2022-09-10T13:39:43Z</time>
      </trkpt>
      <trkpt lat="45.19228" lon="6.31128">
        <ele>1471.622</ele>
        <time>2022-09-10T13:39:53Z</time>
      </trkpt>
      <trkpt lat="45.1921" lon="6.31142">
        <ele>1474.236</ele>
        <time>2022-09-10T13:40:03Z</time>
      </trkpt>
      <trkpt lat="45.19189" lon="6.31151">
        <ele>1476.452</ele>
        <time>2022-09-10T13:40:12Z</time>
      </trkpt>
      <trkpt lat="45.19172" lon="6.3116">
        <ele>1479.094</ele>
        <time>2022-09-10T13:40:21Z</time>
      </trkpt>
      <trkpt lat="45.19157" lon="6.31165">
        <ele>1482.076</ele>
        <time>2022-09-10T13:40:31Z</time>
      </trkpt>
      <trkpt lat="45.1914" lon="6.31168">
        <ele>1484.422</ele>
        <time>2022-09-10T13:40:41Z</time>
      </trkpt>
      <trkpt lat="45.19124" lon="6.31162">
        <ele>1486.332</ele>
        <time>2022-09-10T13:40:50Z</time>
      </trkpt>
      <trkpt lat="45.19108" lon="6.31154">
        <ele>1487.368</ele>
        <time>2022-09-10T13:40:59Z</time>
      </trkpt>
      <trkpt lat="45.1909" lon="6.31153">
        <ele>1489.748</ele>
        <time>2022-09-10T13:41:09Z</time>
      </trkpt>
      <trkpt lat="45.19072" lon="6.31156">
        <ele>1490.603</ele>
        <time>2022-09-10T13:41:19Z</time>
      </trkpt>
      <trkpt lat="45.19056" lon="6.31154">
        <ele>1492.787</ele>
        <time>2022-09-10T13:41:28Z</time>
      </trkpt>
      <trkpt lat="45.19035" lon="6.3115">
        <ele>1496.535</ele>
        <time>2022-09-10T13:41:38Z</time>
      </trkpt>
      <trkpt lat="45.19019" lon="6.31165">
        <ele>1497.468</ele>
        <time>2022-09-10T13:41:47Z</time>
      </trkpt>
      <trkpt lat="45.19007" lon="6.31183">
        <ele>1501.195</ele>
        <time>2022-09-10T13:41:57Z</time>
      </trkpt>
      <trkpt lat="45.18995" lon="6.31199">
        <ele>1502.014</ele>
        <time>2022-09-10T13:42:06Z</time>
      </trkpt>
      <trkpt lat="45.18983" lon="6.31214">
        <ele>1502.849</ele>
        <time>2022-09-10T13:42:16Z</time>
      </trkpt>
      <trkpt lat="45.18972" lon="6.31229">
        <ele>1503.472</ele>
        <time>2022-09-10T13:42:25Z</time>
      </trkpt>
      <trkpt lat="45.18958" lon="6.31248">
        <ele>1505.823</ele>
        <time>2022-09-10T13:42:35Z</time>
      </trkpt>
      <trkpt lat="45.18945" lon="6.31263">
        <ele>1508.26</ele>
        <time>2022-09-10T13:42:44Z</time>
      </trkpt>
      <trkpt lat="45.18932" lon="6.31278">
        <ele>1512.06</ele>
        <time>2022-09-10T13:42:53Z</time>
      </trkpt>
      <trkpt lat="45.18921" lon="6.31295">
        <ele>1512.37</ele>
        <time>2022-09-10T13:43:02Z</time>
      </trkpt>
      <trkpt lat="45.18909" lon="6.31313">
        <ele>1513.079</ele>
        <time>2022-09-10T13:43:12Z</time>
      </trkpt>
      <trkpt lat="45.18898" lon="6.31329">
        <ele>1515.672</ele>
        <time>2022-09-10T13:43:21Z</time>
      </trkpt>
      <trkpt lat="45.18887" lon="6.31346">
        <ele>1517.679</ele>
        <time>2022-09-10T13:43:30Z</time>
      </trkpt>
      <trkpt lat="45.18875" lon="6.31363">
        <ele>1518.047</ele>
        <time>2022-09-10T13:43:40Z</time>
      </trkpt>
      <trkpt lat="45.18863" lon="6.31379">
        <ele>1519.906</ele>
        <time>2022-09-10T13:43:49Z</time>
      </trkpt>
      <trkpt lat="45.18847" lon="6.3139">
        <ele>1523.803</ele>
        <time>2022-09-10T13:43:59Z</time>
      </trkpt>
      <trkpt lat="45.18833" lon="6.31401">
        <ele>1526.342</ele>
        <time>2022-09-10T13:44:08Z</time>
      </trkpt>
      <trkpt lat="45.18818" lon="6.31414">
        <ele>1527.454</ele>
        <time>2022-09-10T13:44:18Z</time>
      </trkpt>
      <trkpt lat="45.18805" lon="6.31428">
        <ele>1529.801</ele>
        <time>2022-09-10T13:44:27Z</time>
      </trkpt>
      <trkpt lat="45.18794" lon="6.31443">
        <ele>1531.196</ele>
        <time>2022-09-10T13:44:36Z</time>
      </trkpt>
      <trkpt lat="45.18783" lon="6.3146">
        <ele>1532.643</ele>
        <time>2022-09-10T13:44:45Z</time>
      </trkpt>
      <trkpt lat="45.18772" lon="6.31478">
        <ele>1534.56</ele>
        <time>2022-09-10T13:44:55Z</time>
      </trkpt>
      <trkpt lat="45.18762" lon="6.31494">
        <ele>1536.321</ele>
        <time>2022-09-10T13:45:04Z</time>
      </trkpt>
      <trkpt lat="45.18751" lon="6.31508">
        <ele>1536.013</ele>
        <time>2022-09-10T13:45:13Z</time>
      </trkpt>
      <trkpt lat="45.18737" lon="6.31522">
        <ele>1537.643</ele>
        <time>2022-09-10T13:45:23Z</time>
      </trkpt>
      <trkpt lat="45.18725" lon="6.31535">
        <ele>1539.801</ele>
        <time>2022-09-10T13:45:33Z</time>
      </trkpt>
      <trkpt lat="45.18714" lon="6.31548">
        <ele>1541.966</ele>
        <time>2022-09-10T13:45:43Z</time>
      </trkpt>
      <trkpt lat="45.18704" lon="6.31559">
        <ele>1544.247</ele>
        <time>2022-09-10T13:45:52Z</time>
      </trkpt>
      <trkpt lat="45.18693" lon="6.31573">
        <ele>1545.752</ele>
        <time>2022-09-10T13:46:02Z</time>
      </trkpt>
      <trkpt lat="45.18682" lon="6.31584">
        <ele>1546.449</ele>
        <time>2022-09-10T13:46:11Z</time>
      </trkpt>
      <trkpt lat="45.18671" lon="6.31595">
        <ele>1549.063</ele>
        <time>2022-09-10T13:46:20Z</time>
      </trkpt>
      <trkpt lat="45.18661" lon="6.31608">
        <ele>1551.169</ele>
        <time>2022-09-10T13:46:29Z</time>
      </trkpt>
      <trkpt lat="45.18649" lon="6.31621">
        <ele>1553.598</ele>
        <time>2022-09-10T13:46:38Z</time>
      </trkpt>
      <trkpt lat="45.18638" lon="6.31633">
        <ele>1555.38</ele>
        <time>2022-09-10T13:46:47Z</time>
      </trkpt>
      <trkpt lat="45.18625" lon="6.31642">
        <ele>1557.046</ele>
        <time>2022-09-10T13:46:57Z</time>
      </trkpt>
      <trkpt lat="45.18611" lon="6.31642">
        <ele>1559.301</ele>
        <time>2022-09-10T13:47:06Z</time>
      </trkpt>
      <trkpt lat="45.18595" lon="6.31631">
        <ele>1560.894</ele>
        <time>2022-09-10T13:47:16Z</time>
      </trkpt>
      <trkpt lat="45.18582" lon="6.31618">
        <ele>1561.325</ele>
        <time>2022-09-10T13:47:25Z</time>
      </trkpt>
      <trkpt lat="45.18569" lon="6.31609">
        <ele>1563.213</ele>
        <time>2022-09-10T13:47:34Z</time>
      </trkpt>
      <trkpt lat="45.18557" lon="6.31601">
        <ele>1567.395</ele>
        <time>2022-09-10T13:47:43Z</time>
      </trkpt>
      <trkpt lat="45.18543" lon="6.31608">
        <ele>1569.796</ele>
        <time>2022-09-10T13:47:53Z</time>
      </trkpt>
      <trkpt lat="45.18539" lon="6.31626">
        <ele>1569.163</ele>
        <time>2022-09-10T13:48:02Z</time>
      </trkpt>
      <trkpt lat="45.18539" lon="6.31643">
        <ele>1569.107</ele>
        <time>2022-09-10T13:48:12Z</time>
      </trkpt>
      <trkpt lat="45.18542" lon="6.31649">
        <ele>1569.84</ele>
        <time>2022-09-10T13:48:21Z</time>
      </trkpt>
      <trkpt lat="45.1854" lon="6.31649">
        <ele>1570.013</ele>
        <time>2022-09-10T13:48:30Z</time>
      </trkpt>
      <trkpt lat="45.18546" lon="6.31632">
        <ele>1565.671</ele>
        <time>2022-09-10T13:48:39Z</time>
      </trkpt>
      <trkpt lat="45.18547" lon="6.31634">
        <ele>1563.838</ele>
        <time>2022-09-10T13:48:49Z</time>
      </trkpt>
      <trkpt lat="45.18548" lon="6.31637">
        <ele>1562.974</ele>
        <time>2022-09-10T13:48:59Z</time>
      </trkpt>
      <trkpt lat="45.18548" lon="6.31636">
        <ele>1562.937</ele>
        <time>2022-09-10T13:49:08Z</time>
      </trkpt>
      <trkpt lat="45.18548" lon="6.31636">
        <ele>1562.544</ele>
        <time>2022-09-10T13:49:18Z</time>
      </trkpt>
      <trkpt lat="45.18548" lon="6.31636">
        <ele>1562.584</ele>
        <time>2022-09-10T13:49:28Z</time>
      </trkpt>
      <trkpt lat="45.18548" lon="6.31636">
        <ele>1562.584</ele>
        <time>2022-09-10T13:49:38Z</time>
      </trkpt>
    </trkseg>
  </trk>
</gpx>